[[{"header":{"parameterUnit":"m.s-1","parameterCategory":1,"la1":30.6,"la2":28.766,"lo1":-90.7593,"lo2":-88.6598,"dy":0.0162,"dx":0.0183,"nx":116,"ny":114,"refTime":"2023-05-07T00:00:00:Z","depth":0,"parameterNumber":2,"parameterNumberName":"U-component_of_WINDS"},"data":[0.0,0.0,0.0,0.0,0.0,0.0,0.0,0.0,0.0,0.0,0.0,0.0,0.0,0.0,0.0,0.0,0.0,0.0,0.0,0.0,0.0,0.0,0.0,0.0,0.0,0.0,0.0,0.0,0.0,0.0,0.0,0.0,0.0,0.0,0.0,0.0,0.0,0.0,0.0,0.0,0.0,0.0,0.0,0.0,0.0,0.0,0.0,0.0,0.0,0.0,0.0,0.0,0.0,0.0,0.0,0.0,0.0,0.0,0.0,0.0,0.0,0.0,0.0,0.0,0.0,0.0,0.0,0.0,0.0,0.0,0.0,0.0,0.0,0.0,0.0,0.0,0.0,0.0,0.0,0.0,0.0,0.0,0.0,0.0,0.0,0.0,0.0,0.0,0.0,0.0,0.0,0.0,0.0,0.0,0.0,0.0,0.0,0.0,0.0,0.0,0.0,0.0,0.0,0.0,0.0,0.0,0.0,0.0,0.0,0.0,0.0,0.0,0.0,0.0,0.0,0.0,0.0,0.0,0.0,0.0,0.0,0.0,0.0,0.0,0.0,0.0,0.0,0.0,0.0,0.0,0.0,0.0,0.0,0.0,0.0,0.0,0.0,0.0,0.0,0.0,0.0,0.0,0.0,0.0,0.0,0.0,0.0,0.0,0.0,0.0,0.0,0.0,0.0,0.0,0.0,0.0,0.0,0.0,0.0,0.0,0.0,0.0,0.0,0.0,0.0,0.0,0.0,0.0,0.0,0.0,0.0,0.0,0.0,0.0,0.0,0.0,0.0,0.0,0.0,0.0,0.0,0.0,0.0,0.0,0.0,0.0,0.0,0.0,0.0,0.0,0.0,0.0,0.0,0.0,0.0,0.0,0.0,0.0,0.0,0.0,0.0,0.0,0.0,0.0,0.0,0.0,0.0,0.0,0.0,0.0,0.0,0.0,0.0,0.0,0.0,0.0,0.0,0.0,0.0,0.0,0.0,0.0,0.0,0.0,0.0,0.0,0.0,0.0,0.0,0.0,0.0,0.0,0.0,0.0,0.0,0.0,0.0,0.0,0.0,0.0,0.0,0.0,0.0,0.0,0.0,0.0,0.0,0.0,0.0,0.0,0.0,0.0,0.0,0.0,0.0,0.0,0.0,0.0,0.0,0.0,0.0,0.0,0.0,0.0,0.0,0.0,0.0,0.0,0.0,0.0,0.0,0.0,0.0,0.0,0.0,0.0,0.0,0.0,0.0,0.0,0.0,0.0,0.0,0.0,0.0,0.0,0.0,0.0,0.0,0.0,0.0,0.0,0.0,0.0,0.0,0.0,0.0,0.0,0.0,0.0,0.0,0.0,0.0,0.0,0.0,0.0,0.0,0.0,0.0,0.0,0.0,0.0,0.0,0.0,0.0,0.0,0.0,0.0,0.0,0.0,0.0,0.0,0.0,0.0,0.0,0.0,0.0,0.0,0.0,0.0,0.0,0.0,0.0,0.0,0.0,0.0,0.0,0.0,0.0,0.0,0.0,0.0,0.0,0.0,0.0,0.0,0.0,0.0,0.0,0.0,0.0,0.0,0.0,0.0,0.0,0.0,0.0,0.0,0.0,0.0,0.0,0.0,0.0,0.0,0.0,0.0,0.0,0.0,0.0,0.0,0.0,0.0,0.0,0.0,0.0,0.0,0.0,0.0,0.0,0.0,0.0,0.0,0.0,0.0,0.0,0.0,0.0,0.0,0.0,0.0,0.0,0.0,0.0,0.0,0.0,0.0,0.0,0.0,0.0,0.0,0.0,0.0,0.0,0.0,0.0,0.0,0.0,0.0,0.0,0.0,0.0,0.0,0.0,0.0,0.0,0.0,0.0,0.0,0.0,0.0,0.0,0.0,0.0,0.0,0.0,0.0,0.0,0.0,0.0,0.0,0.0,0.0,0.0,0.0,0.0,0.0,0.0,0.0,0.0,0.0,0.0,0.0,0.0,0.0,0.0,0.0,0.0,0.0,0.0,0.0,0.0,0.0,0.0,0.0,0.0,0.0,0.0,0.0,0.0,0.0,0.0,0.0,0.0,0.0,0.0,0.0,0.0,0.0,0.0,0.0,0.0,0.0,0.0,0.0,0.0,0.0,0.0,0.0,0.0,0.0,0.0,0.0,0.0,0.0,0.0,0.0,0.0,0.0,0.0,0.0,0.0,0.0,0.0,0.0,0.0,0.0,0.0,0.0,0.0,0.0,0.0,0.0,0.0,0.0,0.0,0.0,0.0,0.0,0.0,0.0,0.0,0.0,0.0,0.0,0.0,0.0,0.0,0.0,0.0,0.0,0.0,0.0,0.0,0.0,0.0,0.0,0.0,0.0,0.0,0.0,0.0,0.0,0.0,0.0,0.0,0.0,0.0,0.0,0.0,0.0,0.0,0.0,0.0,0.0,0.0,0.0,0.0,0.0,0.0,0.0,0.0,0.0,0.0,0.0,0.0,0.0,0.0,0.0,0.0,0.0,0.0,0.0,0.0,0.0,0.0,0.0,0.0,0.0,0.0,0.0,0.0,0.0,0.0,0.0,0.0,0.0,0.0,0.0,0.0,0.0,0.0,0.0,0.0,0.0,0.0,0.0,0.0,0.0,0.0,0.0,0.0,0.0,0.0,0.0,0.0,0.0,0.0,0.0,0.0,0.0,0.0,0.0,0.0,0.0,0.0,0.0,0.0,0.0,0.0,0.0,0.0,0.0,0.0,0.0,0.0,0.0,0.0,0.0,0.0,0.0,0.0,0.0,0.0,0.0,0.0,0.0,0.0,0.0,0.0,0.0,0.0,0.0,0.0,0.0,0.0,0.0,0.0,0.0,0.0,0.0,0.0,0.0,0.0,0.0,0.0,0.0,0.0,0.0,0.0,0.0,0.0,0.0,0.0,0.0,0.0,0.0,0.0,0.0,0.0,0.0,0.0,0.0,0.0,0.0,0.0,0.0,0.0,0.0,0.0,0.0,0.0,0.0,0.0,0.0,0.0,0.0,0.0,0.0,0.0,0.0,0.0,0.0,0.0,0.0,0.0,0.0,0.0,0.0,0.0,0.0,0.0,0.0,0.0,0.0,0.0,0.0,0.0,0.0,0.0,0.0,0.0,0.0,0.0,0.0,0.0,0.0,0.0,0.0,0.0,0.0,0.0,0.0,0.0,0.0,0.0,0.0,0.0,0.0,0.0,0.0,0.0,0.0,0.0,0.0,0.0,0.0,0.0,0.0,0.0,0.0,0.0,0.0,0.0,0.0,0.0,0.0,0.0,0.0,0.0,0.0,0.0,0.0,0.0,0.0,0.0,0.0,0.0,0.0,0.0,0.0,0.0,0.0,0.0,0.0,0.0,0.0,0.0,0.0,0.0,0.0,0.0,0.0,0.0,0.0,0.0,0.0,0.0,0.0,0.0,0.0,0.0,0.0,0.0,0.0,0.0,0.0,0.0,0.0,0.0,0.0,0.0,0.0,0.0,0.0,0.0,0.0,0.0,0.0,0.0,0.0,0.0,0.0,0.0,0.0,0.0,0.0,0.0,0.0,0.0,0.0,0.0,0.0,0.0,0.0,0.0,0.0,0.0,0.0,0.0,0.0,0.0,0.0,0.0,0.0,0.0,0.0,0.0,0.0,0.0,0.0,0.0,0.0,0.0,0.0,0.0,0.0,0.0,0.0,0.0,0.0,0.0,0.0,0.0,0.0,0.0,0.0,0.0,0.0,0.0,0.0,0.0,0.0,0.0,0.0,0.0,0.0,0.0,0.0,0.0,0.0,0.0,0.0,0.0,0.0,0.0,0.0,0.0,0.0,0.0,0.0,0.0,0.0,0.0,0.0,0.0,0.0,0.0,0.0,0.0,0.0,0.0,0.0,0.0,0.0,0.0,0.0,0.0,0.0,0.0,0.0,0.0,0.0,0.0,0.0,0.0,0.0,0.0,0.0,0.0,0.0,0.0,0.0,0.0,0.0,0.0,0.0,0.0,0.0,0.0,0.0,0.0,0.0,0.0,0.0,0.0,0.0,0.0,0.0,0.0,0.0,0.0,0.0,0.0,0.0,0.0,0.0,0.0,0.0,0.0,0.0,0.0,0.0,0.0,0.0,0.0,0.0,0.0,0.0,0.0,0.0,0.0,0.0,0.0,0.0,0.0,0.0,0.0,0.0,0.0,0.0,0.0,0.0,0.0,0.0,0.0,0.0,0.0,0.0,0.0,0.0,0.0,0.0,0.0,0.0,0.0,0.0,0.0,0.0,0.0,0.0,0.0,0.0,0.0,0.0,0.0,0.0,0.0,0.0,0.0,0.0,0.0,0.0,0.0,0.0,0.0,0.0,0.0,0.0,0.0,0.0,0.0,0.0,0.0,0.0,0.0,0.0,0.0,0.0,0.0,0.0,0.0,0.0,0.0,0.0,0.0,0.0,0.0,0.0,0.0,0.0,0.0,0.0,0.0,0.0,0.0,0.0,0.0,0.0,0.0,0.0,0.0,0.0,0.0,0.0,0.0,0.0,0.0,0.0,0.0,0.0,0.0,0.0,0.0,0.0,0.0,0.0,0.0,0.0,0.0,0.0,0.0,0.0,0.0,0.0,0.0,0.0,0.0,0.0,0.0,0.0,0.0,0.0,0.0,0.0,0.0,0.0,0.0,0.0,0.0,0.0,0.0,0.0,0.0,0.0,0.0,0.0,0.0,0.0,0.0,0.0,0.0,0.0,0.0,0.0,0.0,0.0,0.0,0.0,0.0,0.0,0.0,0.0,0.0,0.0,0.0,0.0,0.0,0.0,0.0,0.0,0.0,0.0,0.0,0.0,0.0,0.0,0.0,0.0,0.0,0.0,0.0,0.0,0.0,0.0,0.0,0.0,0.0,0.0,0.0,0.0,0.0,0.0,0.0,0.0,0.0,0.0,0.0,0.0,0.0,0.0,0.0,0.0,0.0,0.0,0.0,0.0,0.0,0.0,0.0,0.0,0.0,0.0,0.0,0.0,0.0,0.0,0.0,0.0,0.0,0.0,0.0,0.0,0.0,0.0,0.0,0.0,0.0,0.0,0.0,0.0,0.0,0.0,0.0,0.0,0.0,0.0,0.0,0.0,0.0,0.0,0.0,0.0,0.0,0.0,0.0,0.0,0.0,0.0,0.0,0.0,0.0,0.0,0.0,0.0,0.0,0.0,0.0,0.0,0.0,0.0,0.0,0.0,0.0,0.0,0.0,0.0,0.0,0.0,0.0,0.0,0.0,0.0,0.0,0.0,0.0,0.0,0.0,0.0,0.0,0.0,0.0,0.0,0.0,0.0,0.0,0.0,0.0,0.0,0.0,0.0,0.0,0.0,0.0,0.0,0.0,0.0,0.0,0.0,0.0,0.0,0.0,0.0,0.0,0.0,0.0,0.0,0.0,0.0,0.0,0.0,0.0,0.0,0.0,0.0,0.0,0.0,0.0,0.0,0.0,0.0,0.0,0.0,0.0,0.0,0.0,0.0,0.0,0.0,0.0,0.0,0.0,0.0,0.0,0.0,0.0,0.0,0.0,0.0,0.0,0.0,0.0,0.0,0.0,0.0,0.0,0.0,0.0,0.0,0.0,0.0,0.0,0.0,0.0,0.0,0.0,0.0,0.0,0.0,0.0,0.0,0.0,0.0,0.0,0.0,0.0,0.0,0.0,0.0,0.0,0.0,0.0,0.0,0.0,0.0,0.0,0.0,0.0,0.0,0.0,0.0,0.0,0.0,0.0,0.0,0.0,0.0,0.0,0.0,0.0,0.0,0.0,0.0,0.0,0.0,0.0,0.0,0.0,0.0,0.0,0.0,0.0,0.0,0.0,0.0,0.0,0.0,0.0,0.0,0.0,0.0,0.0,0.0,0.0,0.0,0.0,0.0,0.0,0.0,0.0,0.0,0.0,0.0,0.0,0.0,0.0,0.0,0.0,0.0,0.0,0.0,0.0,0.0,0.0,0.0,0.0,0.0,0.0,0.0,0.0,0.0,0.0,0.0,0.0,0.0,0.0,0.0,0.0,0.0,0.0,0.0,0.0,0.0,0.0,0.0,0.0,0.0,0.0,0.0,0.0,0.0,0.0,0.0,0.0,0.0,0.0,0.0,0.0,0.0,0.0,0.0,-4.2595,-4.2084,0.0,0.0,0.0,0.0,0.0,0.0,0.0,0.0,0.0,0.0,0.0,0.0,0.0,0.0,0.0,0.0,0.0,0.0,0.0,0.0,0.0,0.0,0.0,0.0,0.0,0.0,0.0,0.0,0.0,0.0,0.0,0.0,0.0,0.0,0.0,0.0,0.0,0.0,-3.1777,-3.217,-3.2857,-3.4128,-3.5079,-3.5762,0.0,0.0,0.0,0.0,0.0,0.0,0.0,0.0,0.0,0.0,0.0,0.0,0.0,0.0,0.0,0.0,0.0,0.0,0.0,0.0,0.0,0.0,0.0,0.0,0.0,0.0,0.0,0.0,0.0,0.0,0.0,0.0,0.0,0.0,0.0,0.0,0.0,0.0,0.0,0.0,0.0,0.0,0.0,0.0,0.0,0.0,0.0,0.0,0.0,0.0,0.0,0.0,0.0,0.0,0.0,0.0,0.0,0.0,0.0,0.0,0.0,0.0,0.0,0.0,0.0,0.0,0.0,0.0,0.0,0.0,-4.2289,-4.1872,0.0,0.0,0.0,0.0,0.0,0.0,0.0,0.0,0.0,0.0,0.0,0.0,0.0,0.0,0.0,0.0,0.0,0.0,0.0,0.0,0.0,0.0,0.0,0.0,-2.8907,-2.8907,-2.8939,-2.8985,0.0,0.0,0.0,0.0,0.0,0.0,0.0,-2.9411,-2.9659,-3.0238,-3.0389,-3.0822,-3.1495,-3.2031,-3.266,-3.325,-3.4194,0.0,0.0,0.0,0.0,0.0,0.0,0.0,0.0,0.0,0.0,0.0,0.0,0.0,0.0,0.0,0.0,0.0,0.0,0.0,0.0,0.0,0.0,0.0,0.0,0.0,0.0,0.0,0.0,0.0,0.0,0.0,0.0,0.0,0.0,0.0,0.0,0.0,0.0,0.0,0.0,0.0,0.0,0.0,0.0,0.0,0.0,0.0,0.0,0.0,0.0,0.0,0.0,0.0,0.0,0.0,0.0,0.0,0.0,0.0,0.0,0.0,0.0,0.0,-4.3405,-4.3475,-4.3573,-4.298,-4.2557,-4.2291,-4.2408,-4.1938,-4.108,-4.1106,0.0,0.0,0.0,0.0,0.0,0.0,0.0,0.0,0.0,0.0,0.0,0.0,0.0,0.0,0.0,0.0,0.0,0.0,0.0,0.0,0.0,-2.8556,-2.8556,-2.8556,-2.8744,-2.8821,0.0,0.0,0.0,0.0,0.0,0.0,0.0,-2.9066,-2.9097,-2.9192,-2.9223,-2.9286,-2.9411,-3.0043,-3.0585,-3.1028,-3.2892,-3.3761,-3.3786,0.0,0.0,0.0,0.0,0.0,0.0,0.0,0.0,0.0,0.0,0.0,0.0,0.0,0.0,0.0,0.0,0.0,0.0,0.0,0.0,0.0,0.0,0.0,0.0,0.0,0.0,0.0,0.0,0.0,0.0,0.0,0.0,0.0,0.0,0.0,0.0,0.0,0.0,0.0,0.0,0.0,-4.0672,-4.0706,0.0,0.0,0.0,0.0,0.0,0.0,0.0,0.0,0.0,0.0,0.0,0.0,0.0,-4.3875,-4.3934,-4.3943,-4.4336,-4.5074,-4.4447,-4.4512,-4.5204,-4.5167,-4.4384,-4.3066,-4.3066,0.0,-4.1028,-4.1076,0.0,0.0,0.0,0.0,0.0,0.0,0.0,0.0,0.0,0.0,0.0,0.0,0.0,0.0,0.0,0.0,0.0,0.0,0.0,0.0,0.0,-2.5958,-2.5691,-2.5691,-2.5773,-2.5807,-2.5807,-2.6417,0.0,0.0,0.0,-2.7769,-2.7881,-2.7769,-2.7887,-2.8271,-2.8657,-2.888,-2.9002,-2.9286,-2.9721,-3.027,-3.1158,-3.2149,-3.3156,-3.3531,0.0,0.0,0.0,0.0,0.0,0.0,0.0,0.0,0.0,0.0,0.0,0.0,0.0,0.0,0.0,0.0,0.0,0.0,0.0,0.0,0.0,0.0,0.0,0.0,0.0,0.0,0.0,0.0,0.0,0.0,0.0,0.0,0.0,0.0,0.0,0.0,0.0,0.0,0.0,-4.0709,-4.0184,-3.9384,-3.9824,-4.0127,0.0,0.0,0.0,0.0,0.0,0.0,0.0,0.0,0.0,-4.2794,-4.3567,-4.4017,-4.4047,-4.4525,-4.4976,-4.5399,-4.5064,-4.5113,-4.5438,-4.5467,-4.5108,-4.4498,-4.4558,-4.3699,-4.217,-4.1361,-4.1068,-4.1109,0.0,0.0,0.0,0.0,-4.1109,-4.1109,0.0,0.0,0.0,0.0,0.0,0.0,0.0,0.0,0.0,0.0,0.0,0.0,-2.4409,-2.3854,-2.3514,-2.3514,-2.3514,-2.3514,-2.3514,-2.4192,0.0,0.0,0.0,-2.6255,-2.6405,-2.6487,-2.6722,-2.7245,-2.7749,-2.8044,-2.8187,-2.8382,-2.8766,-2.9334,-2.9535,-3.066,-3.2434,-3.2891,-3.3166,-3.3365,0.0,0.0,0.0,0.0,0.0,0.0,0.0,0.0,0.0,0.0,0.0,0.0,0.0,0.0,0.0,0.0,0.0,0.0,0.0,0.0,0.0,0.0,0.0,0.0,0.0,0.0,0.0,0.0,0.0,0.0,0.0,0.0,0.0,0.0,0.0,0.0,0.0,-4.0492,-4.0148,-3.9206,-3.9838,-4.0246,0.0,0.0,0.0,0.0,0.0,0.0,-4.232,-4.305,-4.3443,-4.3443,-4.4227,-4.4637,-4.4637,-4.5507,-4.6082,-4.6343,-4.6353,-4.6461,-4.6693,-4.6703,-4.6503,-4.6139,-4.6247,-4.5237,-4.3407,-4.2162,-4.1426,-4.1076,-4.1087,-4.1109,-4.1109,-4.1109,-4.1109,-4.1109,0.0,0.0,0.0,0.0,0.0,0.0,0.0,0.0,0.0,0.0,0.0,-2.3551,-2.3551,-2.3514,-2.3514,-2.3514,-2.3514,-2.3514,-2.3514,-2.3562,-2.3599,-2.3588,-2.4373,-2.4814,-2.4814,-2.5558,-2.598,-2.6002,-2.6037,-2.6037,-2.6072,-2.671,-2.7178,-2.7564,-2.8252,-2.9628,-3.1394,-3.1537,-3.2005,-3.2668,-3.2803,0.0,0.0,0.0,0.0,0.0,0.0,0.0,0.0,0.0,0.0,0.0,0.0,0.0,0.0,0.0,0.0,0.0,0.0,0.0,0.0,0.0,0.0,0.0,0.0,0.0,0.0,0.0,0.0,0.0,0.0,0.0,0.0,0.0,0.0,0.0,0.0,0.0,0.0,-4.1433,-4.223,0.0,0.0,0.0,0.0,-4.3585,-4.4011,-4.435,-4.4619,-4.4976,-4.5173,-4.5173,-4.5946,-4.6366,-4.6366,-4.7234,-4.8086,-4.8919,-4.8906,-4.936,-5.0144,-5.021,-4.9388,-4.7863,-4.7873,-4.6549,-4.43,-4.3641,-4.2445,-4.1003,-4.1074,-4.1109,-4.1109,-4.1109,-4.1109,-4.1109,0.0,0.0,0.0,0.0,0.0,0.0,0.0,0.0,-2.3854,-2.3368,-2.285,-2.2478,-2.2424,-2.1832,-2.1489,-2.1642,-2.1527,-2.1489,-2.1642,-2.2188,-2.2553,-2.2553,-2.3441,-2.3854,-2.3745,-2.4011,-2.4409,-2.4933,-2.4933,-2.5276,-2.591,-2.6129,-2.6539,-2.709,-2.7345,-2.8141,-2.9352,-3.0179,-3.097,-3.1653,-3.1879,-3.2074,0.0,0.0,0.0,0.0,0.0,0.0,0.0,0.0,0.0,0.0,0.0,0.0,0.0,0.0,0.0,0.0,0.0,0.0,0.0,0.0,0.0,0.0,0.0,0.0,0.0,0.0,0.0,0.0,0.0,0.0,0.0,0.0,0.0,0.0,0.0,0.0,0.0,-4.2375,-4.2719,0.0,-4.3104,-4.316,-4.3356,-4.3707,-4.4463,-4.4884,-4.4802,-4.5449,-4.5666,-4.5316,-4.608,-4.65,-4.65,-4.7914,-4.8793,-4.911,-4.9618,-5.0031,-5.0337,-5.0359,-5.0076,-4.9535,-4.9535,-4.8142,-4.5827,-4.5186,-4.3675,-4.1734,-4.1287,-4.1109,-4.1109,-4.1109,-4.1109,-4.1109,0.0,0.0,0.0,0.0,0.0,0.0,0.0,0.0,-2.2813,-2.2376,-2.1821,-2.1375,-2.1308,-2.0634,-2.0216,-2.0372,-2.0225,-2.0216,-2.0372,-2.0962,-2.1288,-2.1288,-2.2178,-2.2739,-2.2888,-2.2888,-2.3147,-2.3697,-2.3697,-2.4192,-2.5087,-2.5158,-2.5604,-2.6355,-2.6436,-2.6942,-2.7815,-2.8625,-2.9473,-3.0343,-3.0792,-3.0984,-3.1058,0.0,0.0,0.0,0.0,0.0,0.0,0.0,0.0,0.0,0.0,0.0,0.0,0.0,0.0,0.0,0.0,0.0,0.0,0.0,0.0,0.0,0.0,0.0,0.0,0.0,0.0,0.0,0.0,0.0,0.0,0.0,0.0,0.0,0.0,-4.2805,-4.3226,-4.4023,-4.4349,-4.446,-4.4321,-4.4361,-4.4401,-4.4407,-4.5123,-4.55,-4.535,-4.6106,-4.6372,-4.6016,-4.6609,-4.694,-4.694,-4.8086,-4.8812,-4.911,-4.9633,-5.0034,-5.0302,-5.0302,-5.0325,-5.0379,-5.0379,-4.913,-4.7029,-4.6044,-4.4395,-4.2407,-4.1446,-4.1068,-4.107,-4.1085,-4.1109,-4.1109,0.0,0.0,0.0,0.0,0.0,0.0,0.0,-2.2113,-2.1621,-2.0712,-2.042,-2.0303,-2.0303,-2.002,-1.9863,-1.9863,-1.9824,-1.9824,-1.9824,-1.9824,-1.9863,-1.9902,-2.0653,-2.1431,-2.2215,-2.2215,-2.2253,-2.2253,-2.2253,-2.2664,-2.3478,-2.3661,-2.4301,-2.5229,-2.5453,-2.6035,-2.682,-2.6854,-2.7518,-2.8662,-2.9583,-2.995,-3.0042,0.0,0.0,0.0,0.0,0.0,0.0,0.0,0.0,0.0,0.0,0.0,0.0,0.0,0.0,0.0,0.0,0.0,0.0,0.0,0.0,0.0,0.0,0.0,0.0,0.0,0.0,0.0,0.0,0.0,0.0,0.0,0.0,0.0,-4.2181,-4.4016,-4.5578,-4.6413,-4.7174,-4.7379,-4.6719,-4.6666,-4.6418,-4.5827,-4.6098,-4.63,-4.6362,-4.6972,-4.7334,-4.7327,-4.7567,-4.7712,-4.7712,-4.775,-4.8181,-4.9014,-4.9052,-4.948,-5.0264,-5.0264,-5.0283,-5.0302,-5.0264,-4.935,-4.7771,-4.6137,-4.4509,-4.2956,-4.1546,-4.101,-4.1019,-4.1074,-4.1108,-4.1109,0.0,0.0,0.0,0.0,0.0,0.0,0.0,-2.1213,-2.0895,-2.0644,-2.042,-2.0303,-2.0303,-1.9362,-1.8798,-1.8926,-1.827,-1.7859,-1.8029,-1.8598,-1.9244,-1.9863,-2.0128,-2.0313,-2.0576,-2.0576,-2.0837,-2.1431,-2.1431,-2.1849,-2.2627,-2.2702,-2.3184,-2.4,-2.4228,-2.4779,-2.5616,-2.5861,-2.6161,-2.6569,-2.8096,-2.8784,-2.8939,0.0,0.0,0.0,0.0,0.0,0.0,0.0,0.0,0.0,0.0,0.0,0.0,0.0,0.0,0.0,0.0,0.0,0.0,0.0,0.0,0.0,0.0,0.0,0.0,0.0,0.0,0.0,0.0,0.0,0.0,0.0,-4.1963,-4.3383,-4.4574,-4.4729,-4.5156,-4.6354,-4.6178,-4.5908,-4.5693,-4.5773,-4.5759,-4.56,-4.581,-4.5787,-4.5395,-4.5649,-4.5716,-4.5508,-4.5594,-4.5731,-4.5984,-4.6577,-4.6978,-4.7226,-4.7857,-4.8602,-4.9423,-4.9423,-4.9748,-5.0264,-4.9671,-4.8823,-4.7649,-4.5409,-4.3856,-4.2757,-4.1436,-4.0933,-4.094,-4.1067,-4.1092,-4.1099,0.0,0.0,0.0,0.0,0.0,0.0,0.0,-2.0848,-2.0605,-2.0605,-2.0342,-2.0137,-2.0137,-1.8957,-1.823,-1.8359,-1.7455,-1.6927,-1.7058,-1.7504,-1.8158,-1.8944,-1.8984,-1.9103,-1.9399,-1.9399,-1.9627,-2.007,-2.007,-2.0518,-2.1306,-2.1448,-2.1979,-2.2776,-2.3036,-2.3452,-2.395,-2.4492,-2.4779,-2.4957,-2.6352,-2.7265,-2.7907,-2.84,-2.8703,-2.8812,-2.8939,-2.9002,-2.9097,-2.9566,0.0,0.0,0.0,0.0,0.0,0.0,0.0,0.0,0.0,0.0,0.0,0.0,0.0,0.0,0.0,0.0,0.0,0.0,0.0,0.0,0.0,0.0,0.0,0.0,-4.2435,-4.3791,-4.4771,-4.4903,-4.511,-4.5633,-4.5461,-4.5164,-4.482,-4.4861,-4.4792,-4.4522,-4.4599,-4.4547,-4.4262,-4.4445,-4.451,-4.4337,-4.4487,-4.4745,-4.5053,-4.5533,-4.6039,-4.6519,-4.7005,-4.7723,-4.8563,-4.8938,-4.9156,-4.9251,-4.9137,-4.82,-4.6615,-4.4812,-4.3349,-4.2144,0.0,0.0,0.0,0.0,-4.1098,-4.1107,0.0,0.0,0.0,0.0,0.0,0.0,0.0,-2.0925,-2.0605,-2.0566,-2.0177,-1.9902,-1.9863,-1.8767,-1.7957,-1.7876,-1.7066,-1.6535,-1.6494,-1.6494,-1.6862,-1.761,-1.7651,-1.7942,-1.8531,-1.8531,-1.8531,-1.8531,-1.8531,-1.8944,-1.9747,-2.0129,-2.073,-2.1497,-2.1914,-2.214,-2.2291,-2.3036,-2.3478,-2.3708,-2.4515,-2.5604,-2.6867,-2.7808,-2.8201,-2.8247,-2.8624,-2.878,-2.8794,-2.899,0.0,0.0,0.0,0.0,0.0,0.0,0.0,0.0,0.0,0.0,0.0,0.0,0.0,0.0,0.0,0.0,0.0,0.0,0.0,0.0,0.0,0.0,0.0,0.0,-4.2495,-4.3127,-4.3622,-4.46,-4.5131,-4.4741,-4.5003,-4.4941,-4.4295,-4.424,-4.3989,-4.3376,-4.3358,-4.3396,-4.347,-4.3752,0.0,0.0,0.0,-4.4468,-4.465,-4.4739,-4.5307,-4.6304,-4.6356,-4.6825,-4.7674,-4.8449,-4.843,-4.7845,-4.8506,-4.7466,-4.5231,-4.4265,-4.2889,-4.1313,-4.0735,-4.0597,-4.0742,-4.0984,-4.1086,-4.1091,0.0,0.0,0.0,0.0,0.0,0.0,0.0,-2.128,-2.0527,-2.0381,-2.0098,-1.9824,-1.9676,-1.8656,-1.7715,-1.7025,-1.6165,-1.5553,-1.533,-1.533,-1.5951,-1.7399,-1.744,-1.7521,-1.7651,-1.7651,-1.7651,-1.7651,-1.7594,-1.8046,-1.8922,-1.9002,-1.949,-2.0285,-2.0653,-2.1229,-2.1849,-2.2328,-2.2553,-2.2627,-2.2962,-2.4181,-2.5873,-2.607,-2.6242,-2.649,-2.7161,-2.7383,-2.7586,-2.8894,-2.96,-3.0126,-3.0945,-3.1619,0.0,0.0,0.0,0.0,0.0,0.0,0.0,0.0,0.0,0.0,0.0,0.0,0.0,0.0,0.0,0.0,0.0,0.0,0.0,-4.3028,-4.2875,-4.2675,-4.2869,-4.3471,-4.4248,-4.5207,-4.4928,-4.4755,-4.5034,-4.5073,-4.5001,-4.4876,-4.4974,-4.505,-4.5051,-4.5184,-4.5059,-4.4674,-4.4739,-4.4646,-4.4374,-4.4599,-4.4858,-4.5138,-4.5401,0.0,-4.6768,-4.694,-4.7302,-4.7769,-4.7226,-4.6366,-4.5192,-4.3654,-4.2049,-4.0539,-4.0499,-4.0643,-4.0859,-4.0917,-4.1016,-4.11,0.0,0.0,0.0,0.0,0.0,0.0,0.0,-2.1728,-2.1011,-2.0527,-2.0137,-1.9863,-1.9754,-1.8687,-1.7634,-1.678,-1.5387,-1.4475,-1.4349,-1.4265,-1.4921,-1.6486,-1.6568,-1.6903,-1.77,-1.77,-1.77,-1.77,-1.7651,-1.7902,-1.8371,-1.8491,-1.8754,-1.9164,-1.9441,-1.9864,-2.0401,-2.0999,-2.1382,-2.1583,-2.2103,-2.2962,-2.4036,-2.4743,-2.5468,-2.6222,-2.667,-2.7098,-2.7553,-2.8651,-2.9241,-2.9744,-3.0811,-3.1619,-3.2407,0.0,0.0,0.0,0.0,0.0,0.0,0.0,0.0,0.0,0.0,0.0,0.0,0.0,0.0,-4.1164,-4.1884,0.0,-4.2605,-4.2986,-4.3035,-4.2932,-4.2638,-4.322,-4.382,-4.4105,-4.4304,-4.4535,-4.4869,-4.5132,-4.5291,-4.5291,-4.5368,-4.5388,-4.5388,-4.5428,-4.5344,-4.5114,-4.4766,-4.4556,-4.4491,-4.4296,-4.4294,-4.4455,-4.4618,-4.4909,-4.5319,-4.593,-4.6231,-4.6254,-4.642,-4.5799,-4.4513,-4.2832,-4.1418,-4.031,-4.0381,-4.0519,-4.0712,-4.0849,-4.0937,-4.1018,0.0,0.0,0.0,0.0,0.0,0.0,0.0,-2.2309,-2.1602,-2.0654,-2.0216,-1.9942,-1.9863,-1.8935,-1.7957,-1.7025,-1.5304,-1.423,-1.4146,-1.4019,-1.4426,-1.5579,-1.5621,-1.6124,-1.7204,-1.7416,-1.7497,-1.7497,-1.7668,-1.7829,-1.8,-1.8241,-1.8322,-1.8322,-1.8531,-1.8772,-1.9002,-1.9678,-2.0177,-2.0566,-2.125,-2.1725,-2.214,-2.3294,-2.4722,-2.6105,-2.6445,-2.7164,-2.8076,-2.8672,-2.9109,-2.9564,-3.0612,-3.15,-3.2436,-3.3871,-3.4827,0.0,0.0,0.0,0.0,0.0,0.0,0.0,0.0,-3.8277,-3.8967,-3.9588,-4.0656,-4.1734,-4.2472,-4.2921,-4.3099,-4.2771,-4.3085,-4.3218,-4.2771,-4.3352,-4.3633,-4.3085,-4.3951,-4.4675,-4.4893,-4.5438,-4.5761,-4.5761,-4.5761,-4.5761,-4.5761,-4.5761,-4.5689,-4.5544,-4.5007,-4.4691,-4.4616,-4.4147,-4.3934,-4.4028,-4.4087,-4.4098,-4.4136,-4.5101,-4.5227,-4.4726,-4.5601,-4.5126,-4.3633,-4.2106,-4.1008,-4.0301,-4.0301,-4.0363,-4.0481,-4.073,-4.0854,-4.0917,0.0,0.0,0.0,0.0,0.0,0.0,0.0,0.0,-2.198,-2.0508,-2.0303,-2.0108,-1.9676,-1.9518,-1.8984,-1.7957,-1.6935,-1.6206,-1.5752,-1.5711,-1.5628,-1.5428,-1.5436,-1.5137,-1.4461,-1.5262,-1.5684,-1.5684,-1.646,-1.7237,-1.8,-1.8031,-1.804,-1.808,-1.8322,-1.8571,-1.874,-1.9002,-1.9262,-1.9499,-1.9745,-2.0313,-2.0981,-2.1326,-2.2843,-2.4923,-2.5762,-2.7186,-2.8785,-2.9533,-3.0384,-3.1238,-3.1383,-3.1978,-3.2827,-3.399,-3.4522,-3.5184,-3.6953,-3.7978,-3.8576,-3.8597,-3.8758,-3.8918,0.0,-3.9602,-4.0278,-4.0389,-4.0984,-4.1724,-4.2459,-4.2129,-4.2129,-4.3277,-4.2986,-4.282,-4.34,-4.3578,-4.3667,-4.3781,-4.493,-4.5908,-4.6417,-4.705,-4.7446,-4.7446,-4.7446,-4.7446,-4.7446,-4.7446,-4.7102,-4.6395,-4.6287,-4.5642,-4.4361,-4.4526,-4.4291,-4.3756,-4.4001,-4.4098,-4.4098,-4.424,-4.4407,-4.46,-4.425,-4.3624,-4.277,-4.1798,-4.0969,-4.0301,-4.0301,-4.032,-4.0346,-4.05,-4.0694,-4.0907,0.0,0.0,0.0,0.0,0.0,0.0,0.0,0.0,0.0,-2.1861,-2.1258,-2.075,-2.0069,-1.9292,-1.8598,-1.8037,-1.7098,-1.6445,-1.6239,-1.5992,-1.6,-1.6337,-1.6214,-1.6214,-1.6329,-1.6706,-1.6919,-1.6919,-1.7286,-1.7619,-1.8,-1.8,-1.8,-1.7991,-1.8282,-1.8523,-1.87,-1.8922,-1.9112,-1.9301,-1.939,-1.9618,-1.9952,-2.0157,-2.1869,-2.4305,-2.5301,-2.7223,0.0,-2.9967,-3.0788,-3.1559,-3.189,-3.2247,-3.2754,-3.383,-3.4194,-3.4733,-3.6621,-3.7857,-3.8612,-3.8612,-3.876,-3.8943,-3.8943,-3.9328,-3.9687,-3.9687,-4.0324,-4.1127,-4.1819,-4.2075,-4.2462,-4.3443,-4.3333,-4.3251,-4.3549,-4.3598,-4.3628,-4.3734,-4.4546,-4.5399,-4.6049,-4.666,-4.7151,-4.7554,-4.7575,-4.7615,-4.7696,-4.7717,-4.7554,-4.721,-4.6739,-4.5981,-4.4898,-4.4525,-4.3981,-4.3249,-4.3353,-4.3403,-4.3403,-4.3605,-4.3998,-4.454,-4.4354,-4.3658,-4.2603,-4.2252,-4.1338,-4.0176,-4.0176,-4.0176,-4.0206,-4.0427,-4.0579,-4.0687,0.0,0.0,0.0,0.0,0.0,0.0,0.0,0.0,0.0,0.0,-2.2324,-2.1383,-2.0313,-1.9283,-1.8598,-1.8359,-1.7666,-1.718,-1.7139,-1.6731,-1.6657,-1.6992,-1.6821,-1.687,-1.7253,-1.7538,-1.7619,-1.7619,-1.787,-1.8,-1.8,-1.8,-1.8,-1.7991,-1.8282,-1.8523,-1.87,-1.8922,-1.9112,-1.9301,-1.9301,-1.9341,-1.9429,-1.9784,-2.1609,-2.4068,-2.4826,-2.7091,-2.9803,-3.0191,-3.0858,-3.1632,-3.2079,-3.2257,-3.2419,-3.322,-3.3704,-3.4347,-3.6068,-3.7285,-3.8127,-3.8366,-3.859,-3.8723,-3.8723,-3.887,-3.9017,-3.9017,-3.9615,-4.0324,-4.0992,-4.1754,-4.2506,-4.3204,-4.3462,-4.3598,-4.3598,-4.3598,-4.3598,-4.3598,-4.403,-4.4601,-4.5303,-4.6049,-4.6637,-4.6976,-4.7302,-4.7468,-4.7385,-4.7593,-4.7678,-4.7636,-4.7117,-4.645,-4.5635,-4.4838,-4.4023,-4.3226,-4.301,-4.2901,-4.2901,-4.3249,-4.3687,-4.4223,-4.4447,-4.3737,-4.2432,-4.2528,-4.1609,-4.0106,-4.0106,-4.0106,-4.0118,-4.0325,-4.0425,-4.0492,0.0,0.0,0.0,0.0,0.0,0.0,0.0,0.0,0.0,0.0,0.0,0.0,0.0,-1.9715,-1.9478,-1.9262,-1.9222,-1.9143,-1.8913,-1.8732,-1.8112,-1.7041,-1.6821,-1.6329,-1.5519,-1.6288,-1.6739,-1.6739,-1.7578,-1.8,-1.8,-1.8,-1.8,-1.7991,-1.8282,-1.8523,-1.87,-1.8922,-1.9112,-1.9301,-1.9301,-1.9429,-1.9676,-2.0459,-2.2177,-2.4187,-2.4226,-2.6759,-3.0103,-3.0116,-3.0826,-3.1693,-3.1705,-3.1849,-3.2038,-3.2025,-3.2975,-3.4236,-3.5332,-3.6281,-3.713,-3.8,-3.8366,-3.8516,-3.8516,-3.8649,-3.8819,-3.8819,-3.898,-3.9379,-4.0111,-4.0959,-4.1754,-4.2522,-4.3174,-4.3598,-4.3598,-4.3598,-4.3598,-4.3598,-4.3628,-4.386,-4.4474,-4.5742,-4.631,-4.5775,-4.684,-4.7214,-4.659,-4.728,-4.7636,-4.7511,-4.7618,-4.7283,-4.6468,-4.5671,-4.4856,-4.4041,-4.3262,-4.2901,-4.2901,-4.3249,-4.3423,-4.3473,-4.4121,-4.3504,-4.2046,-4.2363,-4.1548,-4.0106,-4.0106,-4.0106,-4.0106,-4.0117,-4.0243,-4.0406,0.0,0.0,0.0,0.0,0.0,0.0,0.0,0.0,0.0,0.0,0.0,0.0,0.0,0.0,0.0,0.0,-1.9381,-1.9262,-1.9183,-1.9002,-1.8683,-1.8152,-1.7942,-1.761,-1.7131,-1.7416,-1.7578,-1.7578,-1.787,-1.8,-1.8,-1.8,-1.8,-1.804,-1.8402,-1.8652,-1.874,-1.9073,-1.9539,-2.0118,-2.0226,-2.0644,-2.125,-2.1659,-2.3365,-2.5543,0.0,-2.7505,-3.0146,-3.0494,-3.1127,-3.1705,-3.1705,-3.1761,-3.1849,-3.195,-3.2596,-3.3589,-3.5022,-3.5766,-3.6517,-3.7861,-3.824,-3.8277,-3.8277,-3.8478,-3.859,-3.859,-3.876,-3.9111,-3.9869,-4.0239,-4.0842,-4.2013,-4.249,-4.2912,-4.3402,-4.3522,-4.3598,-4.3598,-4.3598,-4.3671,-4.3877,-4.4674,-4.5276,-4.5563,-4.6269,-4.6637,-4.6519,-4.7084,-4.7407,-4.7363,-4.749,-4.7175,-4.638,-4.5667,-4.4892,-4.4077,-4.3262,-4.2901,-4.2901,-4.3014,-4.3195,-4.3423,-4.364,-4.3372,-4.2758,-4.2284,-4.1595,-4.0781,-4.0182,-3.9973,-3.9973,-3.9973,-4.0048,-4.0148,0.0,0.0,0.0,0.0,0.0,0.0,0.0,0.0,0.0,0.0,0.0,0.0,0.0,0.0,0.0,0.0,0.0,-1.9429,-1.9429,-1.9152,-1.8922,-1.8812,-1.8563,-1.8322,-1.8161,-1.804,-1.8,-1.8,-1.8,-1.8,-1.8,-1.8,-1.8031,-1.8161,-1.8531,-1.8732,-1.8851,-1.946,-2.0079,-2.0644,-2.1058,-2.1752,-2.2535,-2.295,-2.4586,0.0,-2.7145,-2.8645,-3.0422,-3.0802,-3.1271,-3.1705,-3.1705,-3.1705,-3.1713,-3.1695,-3.2012,-3.2615,-3.4037,-3.4899,-3.57,-3.7244,-3.7924,-3.8202,-3.8202,-3.8277,-3.8404,-3.8404,-3.8538,-3.8819,-3.9298,-3.9692,-4.0189,-4.1113,-4.1543,-4.2078,-4.2896,-4.3066,-4.3265,-4.3552,-4.3598,-4.3598,-4.3598,-4.3948,-4.4344,-4.4811,-4.5571,-4.5968,-4.58,-4.6566,-4.6976,-4.6931,-4.7258,-4.7194,-4.6672,-4.5712,-4.469,-4.3661,-4.3155,-4.2901,-4.2901,-4.2901,-4.3014,-4.3231,-4.3354,-4.3197,-4.2783,-4.2154,-4.155,-4.0948,-4.0189,-3.99,-3.99,-3.99,-3.9922,-3.9996,0.0,0.0,0.0,0.0,0.0,0.0,0.0,0.0,0.0,0.0,0.0,0.0,0.0,0.0,0.0,0.0,0.0,0.0,-1.9715,-1.9359,-1.9152,-1.9112,-1.8714,-1.8474,-1.8474,-1.8152,-1.7991,-1.8,-1.8,-1.8,-1.804,-1.808,-1.8233,-1.8474,-1.8732,-1.8962,-1.9192,-2.0148,-2.0741,-2.1059,-2.1804,-2.2713,-2.364,-2.4401,-2.5826,-2.7563,-2.8855,-2.9989,-3.0958,-3.0958,-3.1296,-3.1705,-3.1705,-3.1693,-3.1616,-3.1258,-3.1174,-3.1406,-3.2568,-3.3672,-3.4803,-3.6221,-3.7414,-3.8165,-3.8165,-3.8202,-3.8202,-3.8202,-3.8366,-3.8478,-3.8478,-3.9205,-3.9819,-3.9854,-4.0454,-4.1215,-4.2142,-4.2317,-4.2679,-4.3492,-4.3598,-4.3598,-4.3598,-4.3598,-4.3598,-4.3598,-4.4756,-4.5188,-4.453,-4.5724,-4.6382,-4.631,-4.6908,-4.7258,-4.728,-4.5843,-4.4357,-4.2882,-4.2882,-4.29,-4.2901,-4.29,-4.29,-4.292,-4.3249,-4.2949,-4.2231,-4.2015,-4.1445,-4.0697,-4.0155,-3.9916,-3.9878,-3.9889,-3.99,-3.9911,0.0,0.0,0.0,0.0,0.0,0.0,0.0,0.0,0.0,0.0,0.0,0.0,0.0,0.0,0.0,0.0,0.0,0.0,-2.1392,-2.1278,-2.1086,-2.0788,-2.0129,-1.959,-1.9292,-1.8625,-1.8201,-1.8,-1.8,-1.8121,-1.8313,-1.8895,-1.9323,-1.955,-2.0362,-2.0827,-2.1058,-2.1469,-2.2303,-2.3449,-2.38,-2.468,-2.5817,-2.617,-2.7343,-2.8814,-2.9162,-3.023,-3.1512,-3.1512,-3.1597,-3.1705,-3.1705,-3.144,-3.1091,-3.0989,-3.0676,-3.0688,-3.2218,-3.3294,-3.442,-3.5984,-3.7183,-3.7967,-3.7967,-3.8104,-3.8202,-3.8202,-3.824,-3.8277,-3.8277,-3.8486,-3.8804,-3.9356,-4.0193,-4.1013,-4.1819,-4.2617,-4.3204,-4.3432,-4.3539,-4.3598,-4.3598,-4.3598,-4.3598,-4.3598,-4.4333,-4.468,-4.4502,-4.5197,-4.5792,-4.6217,-4.6448,-4.6771,-4.7223,-4.5819,-4.4337,-4.2841,-4.2841,-4.2861,-4.29,-4.2842,-4.2861,-4.2901,-4.2995,-4.305,-4.3039,-4.2396,-4.1804,-4.1236,-4.0715,-4.0133,-3.9623,-3.9834,-3.99,-3.99,0.0,0.0,0.0,0.0,0.0,0.0,0.0,0.0,0.0,0.0,0.0,0.0,0.0,0.0,0.0,0.0,0.0,0.0,0.0,-2.2178,-2.1989,-2.1697,-2.1153,-2.0701,-2.0401,-1.9855,-1.9502,-1.9374,-1.9374,-1.9462,-1.958,-2.0041,-2.043,-2.0701,-2.1278,-2.1697,-2.2027,-2.2829,-2.3835,0.0,0.0,-2.6932,-2.8176,-2.8575,-2.9538,-3.0801,-3.1038,-3.1876,-3.2778,-3.2413,-3.2001,-3.1705,-3.1705,-3.1344,-3.0874,-3.0603,-3.0314,-3.0385,-3.1671,-3.295,-3.426,-3.5786,-3.6964,-3.7777,-3.7891,-3.8005,-3.8104,-3.8165,-3.8202,-3.8202,-3.8202,-3.8202,-3.8352,-3.8752,-3.9284,-3.9999,-4.1178,-4.1836,-4.2506,-4.3312,-4.3479,-4.3539,-4.3598,-4.3598,-4.3598,-4.3598,-4.3919,-4.4121,-4.4121,-4.4635,-4.5098,-4.5442,-4.5716,-4.6007,-4.6267,-4.5409,-4.4394,-4.323,-4.2887,-4.2727,-4.2767,-4.2727,-4.2765,-4.2861,-4.2861,-4.2975,-4.3069,-4.239,-4.1752,-4.1129,-4.0626,-4.0042,-3.9526,-3.9658,-3.9792,-3.99,0.0,0.0,0.0,0.0,0.0,0.0,0.0,0.0,0.0,0.0,0.0,0.0,0.0,0.0,0.0,0.0,0.0,0.0,0.0,0.0,0.0,-2.2504,-2.2242,-2.1952,-2.1659,-2.1372,-2.1209,-2.1171,-2.1275,-2.1341,-2.138,-2.1559,-2.1862,-2.2232,-2.2334,-2.2595,-2.304,-2.448,-2.5517,-2.6384,-2.779,-2.9099,-3.0288,0.0,0.0,-3.2685,-3.3366,-3.3929,-3.4181,-3.3437,-3.2575,-3.1825,-3.1749,-3.1344,-3.0826,-3.0326,-3.0194,-3.0392,-3.1256,-3.2699,-3.4272,-3.5614,-3.6755,-3.7625,-3.7815,-3.7891,-3.7967,-3.8179,-3.8202,-3.8202,-3.8202,-3.8202,-3.8202,-3.8202,-3.8277,-3.8899,-4.0435,-4.0758,-4.1461,-4.3143,-4.3342,-4.3402,-4.3568,-4.3568,-4.3598,-4.3598,-4.3598,-4.3598,-4.3598,-4.4093,-4.4418,-4.4502,-4.5028,-4.5181,-4.4981,-4.4805,-4.4339,-4.3655,-4.2927,-4.2589,-4.2609,-4.2589,-4.2667,-4.2764,-4.2764,-4.2764,-4.2749,-4.2287,-4.161,-4.0823,-4.0357,-3.9918,-3.9501,-3.9483,-3.9635,-3.9856,0.0,0.0,0.0,0.0,0.0,0.0,0.0,0.0,0.0,0.0,-3.3143,-3.2126,0.0,0.0,0.0,0.0,0.0,0.0,0.0,0.0,0.0,-2.5169,-2.4458,-2.3736,-2.2925,-2.2184,-2.1759,-2.1618,-2.2206,-2.2594,-2.2779,-2.4067,-2.4791,-2.5049,-2.5714,-2.613,-2.6386,-2.7163,-2.7943,-2.8686,-2.9428,-3.0137,-3.0841,-3.1416,0.0,0.0,-3.3783,-3.4214,-3.4264,-3.4139,-3.3479,-3.2661,-3.1913,-3.1344,-3.0898,-3.0814,-3.0735,-3.0937,-3.1818,-3.3113,-3.4477,-3.5507,-3.6559,-3.738,-3.7625,-3.7777,-3.7967,-3.8179,-3.8202,-3.8202,-3.8202,-3.8202,-3.8202,-3.8202,-3.8716,-3.9412,-4.0313,-4.1129,-4.1965,-4.2883,-4.3099,-4.3235,-4.3402,-4.3432,-4.3479,-4.3598,-4.3598,-4.3598,-4.3598,-4.37,-4.3977,-4.4474,-4.5028,-4.4967,-4.4292,-4.4173,-4.3756,-4.2962,-4.2662,-4.2546,-4.2609,-4.2546,-4.2566,-4.2629,-4.2629,-4.2629,-4.2631,-4.2545,-4.2024,-4.125,-4.0793,-4.0187,-3.9568,-3.94,-3.9421,-3.9599,0.0,0.0,0.0,0.0,0.0,0.0,0.0,-3.6197,-3.585,-3.5023,-3.4495,-3.379,-3.273,-3.1916,-3.1239,0.0,0.0,0.0,0.0,0.0,0.0,0.0,0.0,0.0,-2.5156,-2.4767,-2.4495,-2.4424,0.0,-2.4979,-2.5084,-2.584,-2.6345,-2.6595,-2.7005,-2.7332,-2.7683,-2.8665,-2.947,-3.0179,-3.1157,-3.1913,-3.2557,0.0,0.0,0.0,-3.5718,-3.5883,-3.5762,-3.5237,-3.4733,-3.4236,-3.3322,-3.2689,-3.2248,-3.2248,-3.2248,-3.2456,-3.3348,-3.4296,-3.5237,-3.6163,-3.6769,-3.7226,-3.7534,-3.7663,-3.7853,-3.8127,-3.8202,-3.8202,-3.8202,-3.8202,-3.8202,-3.8202,-3.8523,-3.9009,-3.9718,-4.0209,-4.0961,-4.2174,-4.2396,-4.2648,-4.3204,-4.3342,-4.3449,-4.3492,-4.3568,-4.3598,-4.3598,-4.3598,-4.373,-4.4006,-4.4597,-4.4712,-4.4309,-4.3764,-4.3293,-4.2886,-4.2291,-4.2002,-4.2047,-4.2287,-4.2447,-4.2546,-4.2546,-4.2546,-4.2546,-4.2546,-4.2062,-4.1274,-4.0635,-4.0037,-3.9485,-3.8969,-3.892,-3.9176,0.0,0.0,0.0,0.0,0.0,0.0,0.0,-3.701,-3.6615,-3.5755,-3.5674,-3.5385,-3.4658,-3.3393,-3.2517,0.0,0.0,0.0,0.0,0.0,0.0,0.0,0.0,0.0,-2.7152,0.0,0.0,-2.7118,-2.7272,0.0,0.0,0.0,0.0,0.0,-2.8381,-2.8709,-2.9357,-3.0544,-3.132,0.0,0.0,-3.384,-3.4404,0.0,0.0,0.0,0.0,-3.7341,-3.7173,-3.6322,-3.599,-3.587,-3.5102,-3.432,-3.3667,-3.3667,-3.3667,-3.3883,-3.4831,-3.5396,-3.591,-3.6769,-3.6978,-3.7109,-3.7495,-3.7625,-3.7725,-3.8127,-3.8202,-3.8202,-3.8202,-3.8202,-3.8202,-3.8202,-3.8202,-3.8449,-3.9211,-3.9305,-3.9859,-4.1311,-4.1656,-4.2013,-4.2741,-4.3113,-4.3312,-4.3342,-4.3462,-4.3568,-4.3598,-4.3598,-4.3598,-4.3598,-4.4064,-4.4305,-4.4305,-4.331,-4.2825,-4.2808,-4.1934,-4.1494,-4.1534,-4.2061,-4.2366,-4.2463,-4.2463,-4.2463,-4.2463,-4.2463,-4.2087,-4.1425,-4.044,-3.9877,-3.9526,-3.8625,-3.8449,-3.8752,0.0,0.0,0.0,0.0,0.0,0.0,0.0,-3.7966,-3.7602,-3.66,-3.6492,-3.643,-3.6228,-3.4981,-3.4109,0.0,0.0,0.0,0.0,0.0,0.0,0.0,0.0,0.0,0.0,0.0,0.0,-2.792,-2.851,0.0,0.0,0.0,0.0,0.0,0.0,-3.2286,-3.3487,-3.4166,0.0,0.0,0.0,0.0,0.0,0.0,0.0,0.0,0.0,-3.7457,-3.7303,-3.7187,-3.7017,-3.6861,-3.6769,-3.5601,-3.4228,-3.4228,-3.4228,-3.4434,-3.5373,-3.5655,-3.591,-3.6769,-3.6978,-3.7109,-3.7495,-3.7625,-3.7725,-3.8127,-3.8202,-3.8202,-3.8202,-3.8202,-3.8202,-3.8202,-3.8202,-3.8449,-3.9211,-3.9305,-3.9626,-4.0416,-4.1111,-4.1624,-4.1884,-4.2539,-4.2992,-4.3113,-4.3312,-4.3462,-4.3598,-4.3598,-4.3598,-4.3598,-4.3641,-4.3671,-4.3671,-4.274,-4.2279,-4.2262,-4.1747,-4.1494,-4.1534,-4.2061,-4.2308,-4.2308,-4.2308,-4.2308,-4.2308,-4.2308,-4.2272,-4.2058,-4.0521,-3.9955,-3.9911,-3.8662,-3.8277,-3.8387,0.0,0.0,0.0,0.0,0.0,0.0,-3.8689,-3.8634,-3.8322,-3.7456,-3.7338,-3.716,-3.6691,-3.6166,-3.558,-3.4957,0.0,0.0,0.0,0.0,0.0,0.0,0.0,0.0,0.0,0.0,-3.0411,-3.0411,-3.067,0.0,0.0,0.0,0.0,0.0,0.0,-3.3322,-3.434,-3.494,0.0,0.0,0.0,0.0,0.0,0.0,0.0,0.0,0.0,0.0,-3.7457,-3.7341,-3.7187,-3.6978,-3.6978,-3.652,-3.5936,-3.5936,-3.5936,-3.6016,-3.6401,-3.6494,-3.6573,-3.69,-3.6978,-3.7109,-3.7495,-3.7625,-3.7725,-3.8127,-3.8202,-3.8202,-3.8202,-3.8202,-3.8202,-3.8202,-3.8202,-3.83,-3.8583,-3.8657,-3.8921,-3.9662,-3.9999,-4.0382,-4.0894,-4.1722,-4.2476,-4.3066,-4.3174,-4.3312,-4.3462,-4.3568,-4.3598,-4.3598,-4.3598,-4.3598,-4.3598,-4.2337,-4.1727,-4.171,-4.0967,-4.0767,-4.1105,-4.16,-4.2002,-4.2308,-4.2308,-4.2308,-4.2308,-4.2308,-4.2308,-4.2147,-4.0538,-3.9933,-3.9811,-3.8367,-3.7862,-3.793,0.0,0.0,0.0,0.0,0.0,-3.9245,-3.9121,-3.9094,-3.8871,-3.8238,-3.8153,-3.7966,-3.7456,-3.7381,-3.7054,-3.6182,-3.5946,0.0,0.0,0.0,0.0,0.0,0.0,0.0,0.0,0.0,-3.2145,-3.2145,-3.2356,-3.2356,0.0,0.0,-3.3206,-3.397,0.0,0.0,0.0,0.0,0.0,0.0,0.0,0.0,0.0,0.0,0.0,0.0,0.0,0.0,0.0,0.0,0.0,-3.7109,-3.7109,-3.707,-3.6978,-3.6978,-3.6978,-3.6978,-3.6978,-3.6978,-3.6978,-3.6978,-3.6978,-3.7109,-3.7495,-3.7625,-3.7725,-3.8127,-3.8202,-3.8165,-3.8127,-3.8104,-3.8104,-3.8104,-3.8104,-3.8127,-3.8202,-3.8202,-3.8412,-3.8921,-3.9175,-3.952,-4.0034,-4.1078,-4.1981,-4.2679,-4.2929,-4.3113,-4.3312,-4.3462,-4.3568,-4.3598,-4.3598,-4.3598,-4.3598,-4.2125,-4.1409,-4.1392,-4.0445,-4.0203,-4.057,-4.1225,-4.1622,-4.1874,-4.2166,-4.2207,-4.2082,-4.2228,-4.2308,-4.2147,-4.0538,-3.9895,-3.9698,-3.8165,-3.7595,-3.7631,0.0,0.0,0.0,0.0,0.0,0.0,-3.9299,-3.9299,-3.9202,-3.9023,-3.8996,-3.8942,-3.8788,-3.8777,-3.8495,-3.7822,-3.7174,0.0,0.0,0.0,0.0,0.0,0.0,0.0,0.0,0.0,-3.2481,-3.2481,-3.3161,-3.3161,-3.2513,-3.3983,-3.5029,-3.5711,0.0,0.0,0.0,0.0,0.0,0.0,0.0,0.0,0.0,0.0,0.0,0.0,0.0,0.0,0.0,0.0,0.0,0.0,0.0,-3.7148,-3.6978,-3.6978,-3.6978,-3.6978,-3.6978,-3.6978,-3.6978,-3.6978,-3.6978,-3.7109,-3.7495,-3.7625,-3.7725,-3.8127,-3.8202,-3.8127,-3.7929,-3.7891,-3.7891,-3.7891,-3.7891,-3.7967,-3.8165,-3.8202,-3.8202,-3.8202,-3.8863,-3.9305,-3.932,-4.0622,-4.1591,-4.1787,-4.2492,-4.2945,-4.3113,-4.3295,-4.3462,-4.3598,-4.3598,-4.3598,-4.3598,-4.2125,-4.1409,-4.1392,-4.0445,-4.0003,-4.0053,-4.1047,-4.1248,-4.0873,-4.1874,-4.2002,-4.1556,-4.2065,-4.2308,-4.2147,-4.0538,-3.9895,-3.9698,-3.8165,-3.7595,-3.7595,0.0,0.0,0.0,0.0,0.0,0.0,0.0,-3.9299,-3.9272,-3.9202,-3.9218,-3.9175,-3.9148,-3.9148,-3.8996,-3.8662,-3.7937,0.0,0.0,0.0,0.0,0.0,0.0,0.0,0.0,0.0,-3.5024,-3.5446,-3.5244,-3.5229,-3.5446,-3.5934,-3.6491,-3.7168,-3.74,-3.7971,0.0,0.0,0.0,0.0,0.0,0.0,-3.9578,0.0,0.0,0.0,0.0,0.0,0.0,0.0,0.0,0.0,0.0,0.0,0.0,-3.7419,-3.7226,-3.6978,-3.6978,-3.6978,-3.6978,-3.6978,-3.6978,-3.707,-3.7341,-3.7495,-3.7663,-3.7763,-3.7877,-3.7915,-3.7739,-3.7701,-3.7701,-3.7701,-3.7815,-3.7929,-3.8005,-3.8104,-3.8202,-3.8202,-3.8412,-3.8752,-3.9233,-3.9718,-4.0451,-4.1525,-4.1803,-4.2238,-4.2914,-4.3007,-4.3176,-4.3432,-4.3568,-4.335,-4.2837,-4.1877,-4.1177,-4.0696,-3.9891,-3.9679,-4.0003,-4.0334,-4.0594,-4.0825,-4.1128,-4.1356,-4.1494,-4.1687,-4.198,-4.2147,-4.0538,-3.9895,-3.9698,-3.8165,-3.7595,-3.7595,0.0,0.0,0.0,0.0,0.0,0.0,0.0,-3.9299,-3.9299,-3.9299,-3.9299,-3.9299,-3.9299,-3.9299,-3.9245,-3.9121,-3.8662,0.0,0.0,0.0,0.0,0.0,0.0,0.0,-3.6797,-3.643,-3.643,-3.6797,-3.6676,-3.6676,-3.6797,-3.7381,-3.7719,-3.7937,-3.8238,-3.8606,0.0,0.0,0.0,0.0,0.0,0.0,-4.0135,0.0,0.0,0.0,0.0,0.0,0.0,0.0,0.0,0.0,0.0,0.0,0.0,0.0,-3.7419,-3.7226,-3.7148,-3.707,-3.6978,-3.6978,-3.6978,-3.707,-3.7264,-3.738,-3.7495,-3.7586,-3.7701,-3.7739,-3.7495,-3.7495,-3.7495,-3.7495,-3.7586,-3.7739,-3.7891,-3.8005,-3.8089,-3.8202,-3.8202,-3.8375,-3.8826,-3.9139,-3.9697,-4.0588,-4.0943,-4.1459,-4.2317,-4.2444,-4.2711,-4.3207,-4.3342,-4.3086,-4.2418,-4.1692,-4.1021,-4.0393,-3.9647,-3.9451,-3.9731,-3.9919,-4.0095,-4.0262,-4.0635,-4.0855,0.0,-4.1338,-4.1687,-4.1863,-4.0442,-3.9895,-3.9698,-3.8165,-3.7595,-3.7595,0.0,0.0,0.0,0.0,0.0,0.0,0.0,-3.9381,-3.9365,-3.9315,-3.9299,-3.9299,-3.9299,-3.9299,-3.9299,-3.9299,0.0,0.0,0.0,0.0,0.0,0.0,0.0,0.0,-3.7057,-3.6996,-3.7012,-3.7135,-3.7716,-3.7687,-3.7165,-3.8476,-3.8799,-3.8274,-3.8985,-3.9332,0.0,0.0,0.0,0.0,0.0,0.0,0.0,0.0,0.0,0.0,0.0,0.0,0.0,0.0,0.0,0.0,0.0,0.0,0.0,0.0,0.0,0.0,0.0,-3.7187,-3.7017,-3.6978,-3.6978,-3.707,-3.7226,-3.7303,0.0,-3.7495,-3.7586,-3.7495,-3.7303,-3.7264,-3.7264,-3.7264,-3.7303,-3.7419,-3.7815,-3.7891,-3.8005,-3.8165,-3.8202,-3.8202,-3.8202,-3.8826,-3.9233,-3.932,-3.9929,-4.0622,-4.1377,-4.1656,-4.211,-4.2775,-4.2959,-4.2783,-4.2222,-4.1531,-4.0892,-4.0282,-3.963,-3.9299,-3.9325,-3.9756,-3.9705,-3.9352,-4.0286,-4.0441,-4.0078,-4.1047,-4.1472,-4.1398,-4.0324,-3.9895,-3.9698,-3.8165,-3.7595,-3.7595,0.0,0.0,0.0,0.0,0.0,0.0,0.0,0.0,0.0,0.0,-3.9299,-3.9299,-3.9299,-3.9299,-3.9299,0.0,0.0,0.0,0.0,0.0,0.0,0.0,0.0,0.0,-3.9551,-3.9046,-3.9305,-4.0308,-4.0018,-4.0018,-4.0336,-4.0155,-3.999,-3.9847,-3.9466,-3.9613,0.0,0.0,0.0,0.0,0.0,0.0,0.0,0.0,0.0,0.0,-3.8441,-3.8329,0.0,0.0,0.0,0.0,0.0,0.0,0.0,0.0,-3.7953,-3.7777,-3.7586,0.0,-3.7187,-3.7017,-3.6978,-3.7017,0.0,-3.7187,-3.7264,-3.7148,-3.7264,-3.7303,-3.7109,-3.707,-3.707,-3.707,-3.7187,-3.738,-3.7663,-3.7953,-3.8127,-3.8202,-3.8202,-3.8202,-3.8202,-3.8375,-3.8679,-3.9284,-3.9448,-3.9859,-4.0622,-4.1245,-4.1656,-4.1835,-4.2412,-4.2264,-4.132,-4.1255,-4.0572,-3.9314,-3.9328,-3.9299,-3.9299,-3.9415,-3.9415,-3.9299,-3.953,-3.9782,-4.0053,-4.0689,-4.1197,-4.1398,-4.0324,-3.9895,-3.9698,-3.8165,-3.7595,-3.7595,0.0,0.0,0.0,0.0,0.0,0.0,0.0,0.0,0.0,0.0,0.0,0.0,0.0,0.0,0.0,0.0,0.0,0.0,0.0,0.0,0.0,0.0,0.0,-4.0448,-4.0845,-4.0503,-4.0684,-4.1409,-4.1079,-4.1079,-4.1409,-4.1028,-4.0862,-4.0829,-4.0431,-4.0299,0.0,0.0,0.0,0.0,-4.2542,0.0,0.0,0.0,0.0,0.0,-3.8516,-3.8366,0.0,-3.8202,-3.8202,-3.8202,0.0,0.0,0.0,0.0,-3.8066,-3.7853,-3.7663,-3.7457,-3.7264,-3.707,-3.6978,-3.6978,-3.6978,-3.707,-3.7148,-3.7017,-3.7109,-3.7017,-3.6494,-3.673,-3.6861,-3.6494,-3.6822,-3.7226,-3.7419,-3.7725,-3.7953,-3.8066,-3.8066,-3.8104,-3.8202,-3.8202,-3.8375,-3.8752,-3.8789,-3.9103,-3.9859,-4.0278,-4.0656,-4.0977,-4.1377,-4.1358,-4.0883,-4.0925,-4.0275,-3.8914,-3.9094,-3.9148,-3.9175,-3.9272,-3.9299,-3.9299,-3.9299,-3.9425,-3.9705,-4.0203,-4.0507,-4.0558,-3.9837,-3.9487,-3.9254,-3.8041,-3.7595,-3.7595,0.0,0.0,0.0,0.0,0.0,0.0,0.0,0.0,0.0,0.0,0.0,0.0,0.0,0.0,0.0,0.0,0.0,0.0,0.0,0.0,0.0,0.0,-4.1513,-4.1458,-4.1562,-4.1562,-4.1612,-4.1756,-4.1756,-4.1756,-4.1711,-4.1612,-4.1496,-4.1409,-4.1409,-4.116,0.0,0.0,0.0,0.0,-4.2729,0.0,0.0,0.0,0.0,0.0,0.0,0.0,0.0,-3.8202,-3.8202,-3.8202,-3.8202,0.0,0.0,0.0,0.0,0.0,-3.7457,-3.7211,-3.7095,-3.7017,-3.69,-3.6822,-3.6822,-3.6691,-3.6612,-3.6612,-3.6612,-3.6348,-3.5615,-3.607,-3.6362,-3.5615,-3.6229,-3.694,-3.7264,-3.7457,-3.7663,-3.7815,-3.7853,-3.7915,-3.8127,-3.8165,-3.8165,-3.8202,-3.8202,-3.8472,-3.9103,-3.9247,-3.9591,-4.0209,-4.0347,-4.0372,-4.0361,-4.0464,-3.9943,-3.8777,-3.8914,-3.8969,-3.8969,-3.9148,-3.9218,-3.9218,-3.9245,-3.9245,-3.9282,-3.9791,-3.981,-3.9462,-3.9299,-3.9,-3.8588,-3.7862,-3.7595,-3.7595,0.0,0.0,0.0,0.0,0.0,0.0,0.0,0.0,0.0,0.0,0.0,0.0,0.0,0.0,0.0,0.0,0.0,0.0,0.0,0.0,0.0,-4.3251,-4.2088,-4.1678,-4.2307,-4.2324,-4.2638,-4.3251,-4.3251,-4.3251,-4.3251,-4.2605,-4.1993,-4.1409,-4.1409,-4.1707,-4.2204,0.0,0.0,0.0,-4.3443,0.0,0.0,0.0,0.0,0.0,0.0,0.0,0.0,-3.824,-3.8202,-3.8202,-3.8202,0.0,0.0,0.0,0.0,0.0,-3.6559,-3.6229,-3.6308,-3.6861,-3.6455,-3.591,-3.591,-3.5264,-3.4719,-3.4719,-3.4719,-3.4678,-3.4555,-3.4637,-3.4678,-3.4555,-3.544,-3.6427,-3.7173,-3.7457,-3.7625,-3.7663,-3.7663,-3.7739,-3.7929,-3.7929,-3.8028,-3.8202,-3.8202,-3.824,-3.8375,-3.8957,-3.9341,-3.9484,-4.0069,-3.9871,-3.8757,-3.9424,-3.9395,-3.8616,-3.8766,-3.8832,-3.8832,-3.886,-3.8887,-3.8887,-3.8996,-3.9067,-3.9104,-3.974,-3.9613,-3.902,-3.9151,-3.8802,-3.8148,-3.7751,-3.7595,-3.7595,0.0,0.0,0.0,0.0,0.0,0.0,0.0,0.0,0.0,0.0,0.0,0.0,0.0,0.0,0.0,0.0,0.0,0.0,0.0,0.0,-4.3598,-4.3598,-4.2936,-4.2738,-4.3085,-4.3085,-4.3251,-4.3598,-4.3598,-4.3598,-4.3582,-4.3251,-4.2688,-4.1993,-4.2406,-4.2555,-4.2522,-4.292,-4.3284,0.0,0.0,0.0,0.0,0.0,0.0,0.0,0.0,0.0,0.0,0.0,-3.8202,-3.8202,-3.8202,0.0,0.0,0.0,0.0,0.0,-3.6269,-3.591,-3.5776,-3.5602,-3.5224,-3.4938,-3.4938,-3.4596,-3.4306,-3.4306,-3.4306,-3.4181,-3.3691,-3.3972,-3.4306,-3.4306,-3.5156,-3.5816,-3.5682,-3.6598,-3.7134,-3.6755,-3.7134,-3.7495,-3.7739,-3.7739,-3.7777,-3.7877,-3.7991,-3.8028,-3.8028,-3.8449,-3.873,-3.873,-3.903,-3.8927,-3.8345,-3.9102,-3.8968,-3.796,-3.8849,-3.9075,-3.8699,-3.9187,-3.9182,-3.8805,-3.886,-3.8887,-3.8914,-3.9286,-3.8924,-3.8154,-3.8282,-3.7801,-3.7026,-3.7081,-3.7169,-3.7262,0.0,0.0,0.0,0.0,0.0,0.0,0.0,0.0,0.0,0.0,0.0,0.0,0.0,0.0,0.0,0.0,0.0,0.0,0.0,-4.3019,-4.3416,-4.3582,-4.3598,-4.3598,-4.3598,-4.3598,-4.3598,-4.3598,-4.3598,-4.3598,-4.3598,-4.3598,-4.33,-4.2771,-4.335,-4.3284,-4.2787,-4.335,-4.3598,0.0,0.0,0.0,0.0,0.0,0.0,0.0,0.0,0.0,0.0,0.0,0.0,0.0,0.0,0.0,0.0,-3.7853,-3.7419,-3.6808,-3.5856,-3.5318,-3.4828,-3.3943,-3.3846,-3.4014,-3.4014,-3.3859,-3.3691,-3.3691,-3.3691,-3.3479,-3.2821,-3.3237,-3.3775,-3.3972,-3.4609,-3.491,-3.4389,-3.5467,-3.6269,-3.595,-3.652,-3.7095,-3.7495,-3.7534,-3.7534,-3.7625,-3.7739,-3.7853,-3.7891,-3.8043,-3.8165,-3.8202,-3.8202,-3.8157,-3.8089,-3.878,-3.8716,-3.7891,-3.9092,-3.9357,-3.8837,-3.9308,-3.9233,-3.8694,-3.8722,-3.875,-3.875,-3.8887,-3.8318,-3.7335,-3.7474,-3.692,-3.6079,-3.6402,-3.6623,-3.6841,0.0,0.0,0.0,0.0,0.0,0.0,0.0,0.0,0.0,0.0,0.0,0.0,0.0,0.0,0.0,0.0,0.0,0.0,0.0,-4.2539,-4.287,-4.3565,-4.3598,-4.3598,-4.3598,-4.3598,-4.3598,-4.3598,-4.3598,-4.3598,-4.3598,-4.3598,-4.3565,-4.3515,-4.3565,-4.3565,-4.3515,-4.3582,-4.3598,-4.3598,-4.3598,0.0,0.0,0.0,0.0,0.0,0.0,0.0,0.0,0.0,0.0,0.0,0.0,0.0,-3.7853,-3.7701,-3.6886,-3.5856,-3.4719,-3.3817,-3.2993,-3.212,-3.25,-3.3109,-3.3109,-3.2444,-3.1869,-3.1869,-3.1869,-3.1869,-3.1793,-3.1825,-3.2164,-3.295,-3.3152,-3.3437,-3.4181,-3.443,-3.4815,-3.5615,-3.579,-3.6189,-3.7211,-3.7303,-3.738,-3.7586,-3.7625,-3.7701,-3.7891,-3.7891,-3.8005,-3.8202,-3.8202,-3.7949,-3.7375,-3.8038,-3.8678,-3.925,-3.9425,-3.9489,-3.9408,-3.8776,-3.8468,-3.842,-3.856,-3.8616,-3.8616,-3.8766,-3.798,-3.6788,-3.717,-3.6747,-3.5929,-3.595,-3.6147,-3.6457,0.0,0.0,0.0,0.0,0.0,0.0,0.0,0.0,0.0,0.0,0.0,0.0,0.0,0.0,0.0,0.0,0.0,0.0,0.0,-4.2021,-4.2605,-4.2886,-4.335,-4.3598,-4.3598,-4.3598,-4.3598,-4.3598,-4.3598,-4.3598,-4.3598,-4.3598,-4.3598,-4.3598,-4.3598,-4.3598,-4.3598,-4.3598,-4.3598,-4.3598,-4.3598,-4.3598,0.0,0.0,0.0,0.0,0.0,0.0,0.0,0.0,-3.8366,-3.8202,-3.8202,-3.7991,-3.7572,-3.6964,-3.6348,-3.5494,-3.3901,-3.3237,-3.2778,-3.1913,-3.1957,-3.2208,-3.2208,-3.1957,-3.1705,-3.1705,-3.1705,-3.1705,-3.1705,-3.1705,-3.1793,-3.212,-3.2661,-3.295,-3.2692,-3.3606,-3.4223,-3.4027,-3.4485,-3.5237,-3.6189,-3.6322,-3.6559,-3.7187,-3.7341,-3.7457,-3.7495,-3.7777,-3.7929,-3.7991,-3.8127,-3.8086,-3.7868,-3.818,-3.8491,-3.8782,-3.9235,-3.9014,-3.8214,-3.8801,-3.8829,-3.8391,-3.8448,-3.8492,-3.8492,-3.8616,-3.7807,-3.6447,-3.5728,-3.5217,-3.4951,-3.5243,-3.5453,-3.5737,0.0,0.0,0.0,0.0,0.0,0.0,0.0,0.0,0.0,0.0,0.0,0.0,0.0,0.0,0.0,0.0,0.0,0.0,-4.0746,-4.1624,-4.2258,-4.2473,-4.3201,-4.3598,-4.3598,-4.3598,-4.3598,-4.3598,-4.3598,-4.3598,-4.3598,-4.3598,-4.3598,-4.3598,-4.3598,-4.3598,-4.3598,-4.3598,-4.3598,-4.3598,-4.3598,-4.3598,0.0,0.0,0.0,0.0,0.0,0.0,0.0,0.0,-3.8427,-3.8202,-3.8202,-3.7901,-3.7419,-3.6545,-3.5816,-3.4951,-3.3407,-3.2778,-3.2457,-3.1825,-3.1705,-3.1661,-3.1572,-3.1617,-3.1705,-3.1705,-3.1617,-3.1617,-3.1661,-3.1617,-3.1617,-3.1705,-3.2208,-3.237,-3.1793,-3.2735,-3.3352,-3.3023,-3.3522,-3.4264,-3.5156,-3.5534,-3.595,-3.6533,-3.6978,-3.7226,-3.7303,-3.7572,-3.7777,-3.7891,-3.8028,-3.804,-3.7926,-3.8009,-3.7836,-3.7456,-3.8111,-3.82,-3.7794,-3.8731,-3.8861,-3.8391,-3.8391,-3.8391,-3.8375,-3.8233,-3.7346,-3.589,-3.4697,-3.425,-3.4275,-3.4593,-3.484,-3.5121,0.0,0.0,0.0,0.0,0.0,0.0,0.0,0.0,0.0,0.0,0.0,0.0,0.0,0.0,0.0,0.0,0.0,0.0,-4.1409,-4.1409,-4.1711,-4.2456,-4.3201,-4.3598,-4.3598,-4.3598,-4.3598,-4.3598,-4.3598,-4.3598,-4.3598,-4.3598,-4.3598,-4.3598,-4.3598,-4.3598,-4.3598,-4.3598,-4.3598,-4.3598,-4.3598,-4.3598,-4.3539,0.0,0.0,0.0,0.0,0.0,0.0,0.0,-3.8523,-3.8202,-3.8202,-3.7901,-3.7419,-3.6545,-3.5346,-3.4098,-3.3237,-3.237,-3.1705,-3.1705,-3.1705,-3.1617,-3.135,-3.1484,-3.1705,-3.1705,-3.1484,-3.1395,-3.1661,-3.1484,-3.1395,-3.1661,-3.1705,-3.1705,-3.1705,-3.1705,-3.2033,-3.2864,-3.2993,-3.3322,-3.4223,-3.5115,-3.5669,-3.5709,-3.6494,-3.707,-3.7303,-3.7303,-3.7457,-3.7891,-3.7891,-3.7702,-3.7317,-3.7302,-3.6635,-3.5392,-3.6048,-3.7109,-3.8489,-3.8412,-3.8391,-3.8391,-3.8391,-3.8391,-3.8343,-3.7614,-3.6465,-3.513,-3.4376,-3.4101,-3.4101,-3.4101,-3.4349,-3.4715,0.0,0.0,0.0,0.0,0.0,0.0,0.0,0.0,0.0,0.0,0.0,0.0,0.0,0.0,0.0,0.0,0.0,0.0,-4.0713,-4.1143,-4.1508,-4.174,-4.292,-4.3598,-4.3598,-4.3598,-4.3598,-4.3598,-4.3143,-4.2912,-4.2912,-4.2912,-4.2912,-4.2912,-4.3402,-4.3598,-4.3598,-4.3598,-4.3598,-4.3598,-4.3598,-4.3598,-4.3598,0.0,0.0,0.0,0.0,0.0,0.0,0.0,0.0,0.0,-3.824,-3.7901,-3.7289,-3.5803,-3.4856,-3.3972,-3.2488,-3.1913,-3.1705,-3.1705,-3.1572,-3.1395,-3.1306,-3.135,-3.1395,-3.1241,-3.1151,-3.1107,-3.1196,-3.1151,-3.1107,-3.1196,-3.1318,-3.1439,-3.1439,-3.1572,-3.1793,-3.2033,-3.2077,-3.2413,-3.331,-3.3661,-3.4332,-3.5588,-3.595,-3.6362,-3.7056,-3.7226,-3.7341,-3.7457,-3.7347,-3.7218,-3.7082,-3.6316,-3.577,-3.5392,-3.5607,-3.6169,-3.7033,-3.7496,-3.796,-3.8391,-3.8391,-3.8391,-3.8311,-3.7112,-3.6044,-3.513,-3.4376,-3.4101,-3.4101,-3.4101,-3.4176,-3.4325,0.0,0.0,0.0,0.0,0.0,0.0,0.0,0.0,0.0,0.0,0.0,0.0,0.0,0.0,0.0,0.0,0.0,0.0,0.0,-4.1221,-4.1409,-4.1409,-4.2804,-4.3598,-4.3598,-4.3342,-4.3204,-4.3204,-4.2803,-4.2443,-4.2158,-4.2158,-4.2317,-4.2617,-4.3005,-4.3372,-4.3598,-4.3598,-4.3598,-4.3598,-4.3598,-4.3598,-4.3598,0.0,0.0,0.0,0.0,0.0,0.0,0.0,0.0,0.0,-3.824,-3.7901,-3.725,-3.5521,-3.4678,-3.393,-3.2164,-3.1705,-3.1661,-3.1572,-3.1439,-3.1261,-3.1071,-3.1083,-3.1139,-3.1029,-3.0927,-3.0871,-3.0984,-3.0927,-3.0883,-3.0984,-3.1107,-3.1184,-3.1184,-3.1407,-3.1528,-3.1528,-3.1617,-3.1913,-3.2444,-3.2778,-3.345,-3.454,-3.4951,-3.5534,-3.6455,-3.6612,-3.6847,-3.7303,-3.6935,-3.6716,-3.6605,-3.5724,-3.5192,-3.5014,-3.4997,-3.5367,-3.604,-3.6966,-3.7476,-3.7608,-3.7902,-3.7842,-3.7501,-3.6659,-3.5687,-3.4725,-3.4262,-3.4101,-3.4101,-3.4101,-3.4101,-3.4126,0.0,0.0,0.0,0.0,0.0,0.0,0.0,0.0,0.0,0.0,0.0,0.0,0.0,0.0,0.0,0.0,0.0,0.0,0.0,-4.1538,-4.1425,-4.1409,-4.2804,-4.3598,-4.3598,-4.2943,-4.2585,-4.2491,-4.2443,-4.2061,-4.1393,-4.1393,-4.1787,-4.2506,-4.2585,-4.2974,-4.3598,-4.3598,-4.3598,-4.3598,-4.3598,-4.3598,-4.3598,-4.3598,0.0,0.0,0.0,0.0,0.0,0.0,0.0,0.0,-3.8204,-3.7872,-3.725,-3.5521,-3.4678,-3.393,-3.2164,-3.1661,-3.1617,-3.135,-3.1261,-3.1071,-3.0566,-3.0634,-3.0838,-3.0883,-3.0724,-3.0634,-3.0883,-3.0736,-3.0634,-3.0883,-3.0927,-3.0972,-3.0972,-3.1139,-3.1261,-3.1306,-3.1528,-3.1661,-3.1705,-3.2413,-3.2907,-3.2993,-3.372,-3.4609,-3.5534,-3.5655,-3.6163,-3.7134,-3.6599,-3.6199,-3.5942,-3.5323,-3.4793,-3.438,-3.438,-3.4721,-3.5367,-3.6631,-3.6936,-3.6446,-3.7117,-3.6979,-3.6303,-3.6308,-3.5477,-3.4182,-3.4133,-3.4101,-3.4101,-3.4101,-3.4101,-3.4101,0.0,0.0,0.0,0.0,0.0,0.0,0.0,0.0,0.0,0.0,0.0,0.0,0.0,0.0,0.0,0.0,0.0,0.0,0.0,-4.1671,-4.1571,-4.1409,-4.2804,-4.3598,-4.3598,-4.2943,-4.2317,-4.1722,-4.1209,-4.0873,-4.0718,-4.0718,-4.1075,-4.1754,-4.2349,-4.2974,-4.3598,-4.3598,-4.3598,-4.3598,-4.3598,-4.3598,-4.3598,-4.3598,-4.3492,0.0,0.0,0.0,0.0,0.0,0.0,0.0,-3.7601,-3.7526,-3.725,-3.5521,-3.4678,-3.393,-3.2164,-3.1528,-3.135,-3.1306,-3.1026,-3.0476,-2.9371,-2.9141,-2.9428,-3.0216,-3.0318,-3.0306,-3.0363,-3.0306,-3.0306,-3.0363,-3.0544,-3.0679,-3.0679,-3.0916,-3.1107,-3.1261,-3.135,-3.1484,-3.1661,-3.1869,-3.2239,-3.295,-3.3152,-3.3691,-3.4555,-3.5278,-3.583,-3.603,-3.5759,-3.5589,-3.552,-3.4716,-3.4257,-3.4162,-3.4312,-3.4481,-3.4654,-3.5464,-3.6055,-3.6446,-3.7117,-3.6986,-3.6301,-3.6308,-3.5768,-3.492,-3.4327,-3.4101,-3.4101,-3.4101,-3.4101,-3.4101,0.0,0.0,0.0,0.0,0.0,0.0,0.0,0.0,0.0,0.0,0.0,0.0,0.0,0.0,0.0,0.0,0.0,0.0,0.0,0.0,-4.1931,-4.2435,-4.3184,-4.3598,-4.3598,-4.2617,-4.1884,-4.1492,-4.0478,-3.9985,-3.9985,-3.9985,-4.0339,-4.1042,-4.1754,-4.2443,-4.3143,-4.3462,-4.3598,-4.3598,-4.3598,-4.3598,-4.3598,-4.3598,-4.3598,-4.3489,-4.2443,0.0,0.0,0.0,0.0,0.0,0.0,0.0,-3.6514,-3.4994,-3.4256,-3.3664,-3.2134,-3.1484,-3.1261,-3.1026,-3.0668,-3.0114,-2.8956,-2.8678,-2.8713,-2.8749,-2.8749,-2.8749,-2.8749,-2.8749,-2.8749,-2.8749,-2.8877,-2.9165,-2.96,-2.9932,-3.0306,-3.0892,-3.1172,-3.135,-3.1484,-3.1617,-3.1869,-3.2326,-3.237,-3.2778,-3.3649,-3.4152,-3.4787,-3.5655,-3.4994,-3.4878,-3.5373,-3.4461,-3.404,-3.4094,-3.4312,-3.4414,-3.4414,-3.4754,-3.5464,-3.6415,-3.643,-3.6042,-3.5375,-3.5376,-3.495,-3.4184,-3.3816,-3.3841,-3.4101,-3.4101,-3.4101,-3.4101,0.0,0.0,0.0,0.0,0.0,0.0,0.0,0.0,0.0,0.0,0.0,0.0,0.0,0.0,0.0,0.0,0.0,0.0,0.0,0.0,0.0,-4.3532,-4.3598,-4.3539,-4.3432,-4.2142,-4.1459,-4.1327,-4.0041,-3.9388,-3.9388,-3.9388,-3.9773,-4.0512,-4.1075,-4.1722,-4.2443,-4.3143,-4.3432,-4.3432,-4.3568,-4.3598,-4.3598,-4.3598,-4.3598,-4.3456,-4.2288,-4.1271,-4.0246,-3.8618,0.0,0.0,0.0,0.0,-3.576,-3.4446,-3.3847,-3.3296,-3.2087,-3.15,-3.1128,-3.0668,-3.0352,-2.9943,-2.891,-2.8678,-2.8434,-2.7426,-2.7189,-2.7237,-2.7426,-2.7332,-2.7237,-2.7426,-2.7474,-2.7767,-2.8574,-2.9048,-2.96,-3.0487,-3.0937,-3.1205,-3.1306,-3.1484,-3.1661,-3.1705,-3.1705,-3.1989,-3.2735,-3.2907,-3.3694,-3.5251,-3.4345,-3.4231,-3.5181,-3.4313,-3.3917,-3.4074,-3.4312,-3.4414,-3.4414,-3.4298,-3.4919,-3.6025,-3.5458,-3.4921,-3.4405,-3.4263,-3.3836,-3.3223,-3.3113,-3.3371,-3.3806,-3.3908,-3.3958,-3.3958,0.0,0.0,0.0,0.0,0.0,0.0,0.0,0.0,0.0,0.0,0.0,0.0,0.0,0.0,0.0,0.0,0.0,0.0,0.0,0.0,0.0,-4.3532,-4.3598,-4.3342,-4.2758,-4.1917,-4.1227,-4.0634,-3.9824,-3.9388,-3.9388,-3.9388,-3.9773,-4.0512,-4.0581,-4.1008,-4.1689,-4.2412,-4.2741,-4.2772,-4.3372,-4.3598,-4.3598,-4.3598,-4.3598,-4.3582,-4.3393,-4.2116,-4.0381,-3.9424,-3.8081,0.0,0.0,0.0,-3.5783,-3.4667,-3.3715,-3.2869,-3.221,-3.1549,-3.0927,-3.0408,-3.0216,-2.9943,-2.891,-2.8678,-2.8434,-2.7426,-2.7189,-2.7474,-2.8341,-2.7814,-2.7474,-2.8341,-2.8481,-2.8527,-2.8678,-2.9474,-3.0216,-3.0578,-3.0668,-3.0847,-3.1261,-3.135,-3.1439,-3.1661,-3.1705,-3.1749,-3.1881,-3.2575,-3.322,-3.3709,-3.3776,-3.3974,-3.4365,-3.3889,-3.3744,-3.3931,-3.4244,-3.4414,-3.4385,-3.3848,-3.3977,-3.4658,-3.4579,-3.4475,-3.4345,-3.3764,-3.3468,-3.3336,-3.2736,-3.2547,-3.2683,-3.3161,-3.3329,-3.3381,0.0,0.0,0.0,0.0,0.0,0.0,0.0,0.0,0.0,0.0,0.0,0.0,0.0,0.0,0.0,0.0,0.0,0.0,0.0,0.0,0.0,-4.3697,-4.3658,-4.3295,-4.2617,-4.1884,-4.116,-4.0512,-3.9395,-3.8841,-3.8841,-3.8467,-3.8853,-3.9879,-4.032,-4.0668,-4.1008,-4.1689,-4.2221,-4.2617,-4.2912,-4.3265,-4.3598,-4.3598,-4.3598,-4.3549,-4.3118,-4.1907,-4.0307,-3.9089,-3.7622,-3.6177,-3.5347,0.0,0.0,0.0,-3.3209,-3.228,-3.1311,-3.0787,-3.0475,-3.0237,-3.0216,-2.9943,-2.891,-2.8678,-2.8247,-2.6675,-2.635,-2.6494,-2.6924,-2.6686,-2.6302,-2.6205,-2.6638,-2.721,-2.7767,-2.8713,-2.9612,-3.0295,-3.0532,-3.0668,-3.0892,-3.1172,-3.135,-3.1484,-3.1617,-3.1705,-3.1705,-3.2077,-3.2413,-3.2705,-3.2947,-3.3212,-3.3528,-3.3571,-3.3744,-3.4005,-3.4162,-3.4312,-3.4385,-3.3794,-3.3649,-3.3881,-3.3489,-3.3103,-3.2737,-3.2466,-3.2345,-3.2302,-3.2014,-3.2104,-3.2425,-3.2668,-3.2949,-3.3251,0.0,0.0,0.0,0.0,0.0,0.0,0.0,0.0,0.0,0.0,0.0,0.0,0.0,0.0,0.0,0.0,0.0,0.0,0.0,0.0,0.0,-4.3848,-4.3522,-4.2925,-4.2075,-4.1342,-4.0544,-3.973,-3.8656,-3.8138,-3.8123,-3.7644,-3.7943,-3.8916,-3.9636,-3.999,-4.0025,-4.0896,-4.1656,-4.2349,-4.2506,-4.3005,-4.3598,-4.3598,-4.3598,-4.3515,-4.2969,-4.2012,-4.0759,-3.9085,-3.7577,-3.6205,-3.5111,-3.4582,0.0,0.0,0.0,-3.185,-3.0554,-3.0107,-3.0027,-3.0085,-3.0077,-2.9874,-2.9211,-2.9095,-2.8678,-2.7152,-2.6638,-2.6398,-2.6119,-2.5635,-2.5167,-2.4686,-2.545,-2.635,-2.7094,-2.8283,-2.9371,-3.0125,-3.0397,-3.0532,-3.0566,-3.0937,-3.116,-3.1306,-3.1484,-3.1617,-3.1705,-3.1705,-3.1772,-3.1976,-3.2307,-3.2605,-3.2789,-3.3331,-3.3744,-3.3957,-3.4059,-3.4109,-3.4085,-3.3514,-3.3169,-3.2948,-3.2469,-3.1944,-3.148,-3.1337,-3.1261,-3.1263,-3.1263,-3.1537,-3.1964,-3.2104,-3.2532,-3.3029,0.0,0.0,0.0,0.0,0.0,0.0,0.0,0.0,0.0,0.0,0.0,0.0,-4.4293,-4.4468,-4.4265,-4.346,-4.3358,0.0,0.0,0.0,0.0,-4.3864,-4.3053,0.0,-4.0626,-3.9882,-3.8882,-3.7578,-3.7479,-3.7464,-3.7464,-3.7419,-3.7449,-3.7539,-3.8202,-3.8507,-3.8587,-3.996,-4.094,-4.1624,-4.2317,-4.3005,-4.3598,-4.3598,-4.3598,-4.3582,-4.3549,-4.3069,-4.2087,-4.0094,-3.8716,-3.7452,-3.5511,-3.4668,-3.4346,0.0,0.0,0.0,-3.0451,-2.9772,-2.9519,-2.9773,-2.9692,-2.9653,-3.0022,-3.0125,-3.008,-2.9988,-2.9187,-2.8247,-2.7284,-2.5577,-2.4587,-2.5499,-2.6494,-2.7142,-2.7179,-2.8888,-3.0125,-3.0216,-3.0216,-3.0306,-3.0578,-3.0623,-3.0802,-3.1261,-3.1306,-3.1439,-3.1705,-3.1705,-3.1601,-3.1342,-3.2102,-3.2407,-3.2141,-3.3122,-3.3605,-3.364,-3.3971,-3.3811,-3.3254,-3.2749,-3.2222,-3.1582,-3.1553,-3.1524,-3.1451,-3.0872,-3.0641,-3.0657,-3.0657,-3.0657,-3.0777,-3.135,-3.1936,-3.252,0.0,0.0,0.0,0.0,0.0,0.0,0.0,0.0,0.0,0.0,0.0,0.0,0.0,-4.4241,-4.4197,-4.3996,-4.3607,0.0,0.0,0.0,0.0,-4.3864,-4.2991,-4.1863,-4.0531,-3.9787,-3.8741,-3.7404,-3.7015,-3.6821,-3.6806,-3.6387,-3.6193,-3.6252,-3.7734,-3.8392,-3.8472,-3.9395,-4.0443,-4.1525,-4.1787,-4.2569,-4.3598,-4.3598,-4.3598,-4.3598,-4.3598,-4.3118,-4.2323,-4.1239,-3.9638,-3.7872,-3.6628,-3.551,-3.4414,-3.3479,-3.2742,-3.1937,-3.0473,-2.9894,-2.9599,-2.9355,-2.9161,-2.9033,-2.9206,-2.9504,-2.9566,-2.8902,-2.8736,-2.8154,-2.634,-2.5538,-2.5069,-2.4775,-2.5586,-2.6436,-2.7094,-2.8376,-2.9474,-3.0125,-3.0216,-3.0261,-3.0352,-3.0487,-3.0758,-3.1107,-3.1229,-3.1439,-3.1705,-3.1705,-3.1342,-3.0558,-3.132,-3.1837,-3.2101,-3.2966,-3.3466,-3.3605,-3.373,-3.3573,-3.3163,-3.2576,-3.2023,-3.1466,-3.109,-3.0916,-3.0901,-3.0699,-3.0598,-3.0598,-3.0598,-3.0598,-3.0642,-3.0822,-3.1306,-3.1851,0.0,0.0,0.0,0.0,0.0,0.0,0.0,0.0,0.0,-4.3449,0.0,0.0,0.0,0.0,-4.4155,-4.431,-4.3884,-4.3614,-4.3558,-4.3389,-4.348,-4.3881,-4.2567,-4.1325,-4.0182,-3.922,-3.8081,-3.6761,-3.6582,-3.6372,-3.6148,-3.5714,-3.5504,-3.5579,-3.73,-3.8063,-3.8123,-3.9035,-4.0076,-4.116,-4.116,-4.2029,-4.3265,-4.3265,-4.3402,-4.3598,-4.3598,-4.3284,-4.2686,-4.1612,-4.0005,-3.8263,-3.701,-3.5689,-3.4414,-3.3444,-3.2868,-3.2277,-3.1187,-3.0284,-2.964,-2.9433,-2.8946,-2.8591,-2.8752,-2.9019,-2.9041,-2.8388,-2.8195,-2.7728,-2.6229,-2.5804,-2.5294,-2.4097,-2.4873,-2.5781,-2.6484,-2.7814,-2.8956,-2.9612,-2.9988,-3.0216,-3.0216,-3.0352,-3.0589,-3.0826,-3.105,-3.1318,-3.1528,-3.1661,-3.1342,-3.0516,-3.0944,-3.1474,-3.2087,-3.2895,-3.3361,-3.3501,-3.357,-3.3303,-3.2682,-3.2313,-3.1734,-3.1085,-3.0651,-3.0538,-3.0598,-3.0598,-3.0598,-3.0598,-3.0598,-3.0598,-3.0598,-3.0598,-3.097,-3.1508,0.0,0.0,0.0,0.0,0.0,0.0,0.0,0.0,-4.2585,-4.2585,0.0,0.0,0.0,0.0,0.0,-4.4281,-4.4167,-4.4155,-4.4281,-4.401,-4.3868,-4.3868,0.0,0.0,-3.9502,-3.812,-3.6787,-3.5534,-3.6148,-3.6133,-3.5504,-3.5504,-3.5504,-3.5564,-3.6836,-3.7404,-3.7494,-3.882,-3.9824,-4.0512,-4.0512,-4.1327,-4.2585,-4.2585,-4.2974,-4.3539,-4.3539,-4.3539,-4.321,-4.1198,-3.9865,-3.865,-3.6578,-3.5229,-3.4346,-3.4162,-3.3444,-3.269,0.0,0.0,0.0,-2.9948,-2.9203,-2.8428,-2.885,-2.8806,-2.8677,-2.8677,-2.7886,-2.7238,-2.7194,-2.6372,-2.5241,-2.3664,-2.4492,-2.5324,-2.5382,-2.7295,-2.8724,-2.8724,-2.9612,-3.0216,-3.0216,-3.0216,-3.0306,-3.0578,-3.0826,-3.1107,-3.1306,-3.1536,-3.1509,-3.1263,-3.1036,-3.1267,-3.2037,-3.2895,-3.329,-3.329,-3.3501,-3.2939,-3.1707,-3.1917,-3.1378,-3.0282,-3.0282,-3.0417,-3.0598,-3.0598,-3.0598,-3.0598,-3.0598,-3.0598,-3.0598,-3.0598,-3.097,-3.148,0.0,0.0,0.0,0.0,0.0,0.0,-4.1426,-4.1689,-4.1787,0.0,0.0,0.0,-4.2943,-4.3568,-4.3969,-4.3998,-4.4085,-4.4068,-4.4027,-4.3429,-4.305,-4.2974,-4.1338,-4.0134,-3.9518,-3.8128,-3.7016,-3.6207,-3.5923,-3.5684,-3.5504,-3.5504,-3.5504,-3.5564,-3.6836,-3.7404,-3.7494,-3.882,-3.9824,-4.0512,-4.0512,-4.1042,-4.1787,-4.1787,-4.1917,-4.2078,-4.2078,-4.2078,-4.1981,-4.1419,-4.0408,-3.8954,-3.6641,-3.5229,-3.4346,-3.4162,-3.3908,-3.3514,-3.2627,0.0,0.0,0.0,0.0,0.0,-2.7917,-2.8159,-2.8353,-2.8226,-2.8234,-2.7984,-2.7084,-2.6674,-2.6031,-2.4705,-2.5404,-2.6498,-2.7573,-2.8294,-2.8956,-2.9703,-3.0023,-3.0216,-3.0216,-3.0216,-3.0306,-3.0578,-3.0826,-3.1107,-3.1306,-3.081,-3.0513,-3.045,-3.0738,-3.1007,-3.123,-3.2596,-3.329,-3.329,-3.3361,-3.2803,-3.1707,-3.1772,-3.1251,-3.0282,-3.0282,-3.0417,-3.0598,-3.0598,-3.0598,-3.0598,-3.0598,-3.0598,-3.0598,-3.0598,-3.0717,-3.0866,0.0,0.0,0.0,0.0,0.0,-4.0181,-4.0566,-4.0907,-4.1093,0.0,0.0,0.0,-4.2158,-4.2881,-4.3372,-4.3446,-4.3476,-4.3476,-4.3446,-4.2709,-4.2221,-4.2142,-4.0797,-3.9847,-3.9511,-3.8394,-3.751,-3.6866,-3.6761,-3.6399,-3.5809,-3.5809,-3.5728,-3.5707,-3.6733,-3.7327,-3.7639,-3.8695,-3.9487,-4.0056,-4.0056,-4.0443,-4.1093,-4.1093,-4.126,-4.1492,-4.1492,-4.1492,-4.1459,-4.116,-4.0152,-3.8603,-3.6477,-3.5419,-3.4865,-3.4385,-3.4162,-3.3942,-3.3234,-3.2304,-3.1365,-3.0681,0.0,0.0,-2.841,-2.8462,-2.8508,-2.804,-2.8094,-2.7973,-2.7229,-2.7015,-2.678,-2.6299,-2.6709,-2.7108,-2.725,-2.7909,-2.8602,-2.9206,-2.9806,-3.0216,-3.0216,-3.0216,-3.0261,-3.0442,-3.0781,-3.1057,-3.1129,-3.05,-2.9989,-2.9761,-3.0195,-3.0405,-3.0405,-3.1992,-3.281,-3.281,-3.3122,-3.27,-3.1636,-3.1636,-3.1059,-3.0099,-3.0174,-3.0296,-3.0477,-3.0568,-3.0598,-3.0598,-3.0598,-3.0598,-3.0598,-3.0598,-3.0598,-3.0598,0.0,0.0,0.0,-3.9388,-3.9388,-3.9388,-3.9388,-3.995,-4.0389,0.0,-4.0974,-4.1426,-4.1492,-4.2094,-4.2538,-4.2661,-4.2569,-4.2538,-4.2661,-4.1868,-4.1393,-4.1393,-4.0163,-3.9484,-3.9484,-3.8771,-3.8108,-3.7524,-3.8033,-3.762,-3.6297,-3.6297,-3.6181,-3.604,-3.6704,-3.7308,-3.7832,-3.8517,-3.9017,-3.9337,-3.9337,-3.9773,-4.0389,-4.0389,-4.0737,-4.126,-4.126,-4.126,-4.116,-4.0581,-3.9425,-3.7916,-3.632,-3.5776,-3.5531,-3.467,-3.4264,-3.4094,-3.3951,-3.3199,-3.2398,-3.2182,-3.1378,0.0,-2.9717,-2.9381,-2.9055,-2.8299,-2.7898,-2.7672,-2.7672,-2.7452,-2.7421,-2.7911,-2.798,-2.7453,-2.5909,-2.7083,-2.8118,-2.8173,-2.9308,-3.0158,-3.0204,-3.0216,-3.0216,-3.0261,-3.0736,-3.1003,-3.0903,-3.0374,-2.9845,-2.9316,-2.9574,-2.9704,-2.9704,-3.123,-3.2001,-3.211,-3.2739,-3.2493,-3.1485,-3.1419,-3.0783,-2.9808,-3.0005,-3.0158,-3.0312,-3.0477,-3.0568,-3.0598,-3.0598,-3.0598,-3.0598,-3.0598,-3.0598,-3.0598,0.0,0.0,-3.9388,-3.9388,-3.9388,-3.9388,-3.9388,-3.9517,-3.961,-3.961,-4.025,-4.0907,-4.1459,-4.1624,-4.1722,-4.1739,-4.1722,-4.1722,-4.1739,-4.1093,-4.0718,-4.0718,-3.9899,-3.9429,-3.9429,-3.8747,-3.8332,-3.8197,-3.7808,-3.7376,-3.6931,-3.6931,-3.6828,-3.6654,-3.7317,-3.767,-3.7832,-3.8517,-3.887,-3.8943,-3.9104,-3.9322,-3.961,-3.961,-3.9681,-3.9809,-3.9809,-3.9809,-3.9773,-3.9646,-3.8996,-3.8041,-3.6995,-3.6231,-3.5531,-3.467,-3.438,-3.4312,-3.4094,-3.343,-3.272,-3.2434,-3.1696,0.0,-3.0481,-3.0342,-3.0228,-2.9909,-2.9252,-2.8806,-2.8806,-2.8207,-2.7795,-2.79,-2.7912,-2.7927,-2.8034,-2.8336,-2.8737,-2.9169,-2.944,-2.9791,-3.0181,-3.0216,-3.0306,-3.0532,-3.0994,-3.1124,-3.0903,-3.0374,-2.9845,-2.9316,-2.9574,-2.9704,-2.9704,-3.0632,-3.1452,-3.2074,-3.1599,-3.1405,-3.1485,-3.0821,-3.0264,-2.9808,-2.9853,-3.0038,-3.0282,-3.0357,-3.0447,-3.0598,-3.0598,-3.0598,-3.0598,-3.0598,-3.0598,-3.0598,0.0,-3.9388,-3.9388,-3.9388,-3.9388,-3.9388,-3.9388,-3.9388,-3.9388,-3.9388,-3.9717,-4.0076,-4.0409,-4.0771,-4.1008,-4.1008,-4.1008,-4.1008,-4.1008,-4.0339,-3.995,-3.995,-3.9589,-3.9388,-3.9388,-3.908,-3.8901,-3.8901,-3.845,-3.7996,-3.7488,-3.7402,-3.726,-3.7061,-3.7382,-3.774,-3.8033,-3.8355,-3.8575,-3.8649,-3.887,-3.9068,-3.9265,-3.9265,-3.9301,-3.9388,-3.9388,-3.9388,-3.9388,-3.9265,-3.9041,-3.8573,-3.7316,-3.661,-3.603,-3.4758,-3.4414,-3.4346,-3.4162,-3.3791,-3.343,-3.3199,-3.2832,0.0,0.0,-3.1563,-3.1378,-3.0831,-3.0279,-2.9845,-2.9845,-2.9433,-2.8976,-2.8554,-2.8819,-2.8922,-2.8397,-2.851,-2.8734,-2.8884,-2.9236,-2.9584,-2.997,-3.0117,-3.0411,-3.0925,-3.116,-3.1049,-3.053,-3.023,-2.9725,-2.8931,-2.9029,-2.9106,-2.9106,-2.9884,-3.0519,-3.0895,-3.0895,-3.089,-3.0888,-3.0096,-2.9524,-2.9156,-2.9265,-2.9404,-2.9591,-3.0021,-3.0296,-3.0447,-3.0568,-3.0598,-3.0598,-3.0598,-3.0598,-3.0598,-3.9388,-3.9388,-3.9388,-3.9388,-3.9388,-3.9388,-3.9388,-3.9388,-3.9388,-3.9388,-3.9388,-3.9388,-3.9388,-3.9915,-4.0285,-4.0285,-4.0285,-4.0285,-4.0285,-3.9717,-3.9388,-3.9388,-3.9388,-3.9388,-3.9388,-3.9388,-3.9388,-3.9388,-3.9177,-3.8728,-3.806,-3.7864,-3.7682,-3.7476,-3.7476,-3.7738,-3.8202,-3.8202,-3.8277,-3.8441,-3.8612,-3.8833,-3.9031,-3.9031,-3.9141,-3.9265,-3.9265,-3.9265,-3.9265,-3.9141,-3.9228,-3.9077,-3.7455,-3.6936,-3.658,-3.4962,-3.4414,-3.4346,-3.4196,-3.4162,-3.4128,-3.3985,-3.3951,-3.3764,0.0,0.0,0.0,-3.1856,-3.1341,-3.1007,-3.1007,-3.0694,-3.024,-2.9464,-2.9948,-2.991,-2.8473,-2.8586,-2.871,-2.8384,-2.8895,-2.9351,-2.9669,-3.005,-3.0505,-3.1083,-3.1196,-3.0878,-3.0134,-2.9989,-2.9496,-2.8546,-2.851,-2.851,-2.851,-2.9145,-2.9549,-2.9704,-3.019,-3.0359,-3.0202,-2.9354,-2.8781,-2.846,-2.867,-2.8693,-2.8648,-2.9481,-2.9929,-3.0085,-3.0387,-3.0552,-3.0598,-3.0568,-3.0568,-3.0598,-3.9388,-3.9388,-3.9388,-3.9388,-3.9388,-3.9388,-3.9388,-3.9388,-3.9388,-3.9388,-3.9388,-3.9388,-3.9388,-3.9481,-3.9517,-3.9517,-3.9517,-3.9517,-3.9517,-3.946,-3.9388,-3.9388,-3.9388,-3.9388,-3.9388,-3.9388,-3.9388,-3.9388,-3.9177,-3.895,-3.8679,-3.8473,-3.8302,-3.8101,-3.8101,-3.8144,-3.8202,-3.8202,-3.8202,-3.824,-3.8277,-3.8501,-3.8819,-3.8819,-3.887,-3.887,-3.887,-3.887,-3.8907,-3.9068,-3.9104,-3.8903,-3.7575,-3.704,-3.6615,-3.5097,-3.4549,-3.4414,-3.438,-3.438,-3.4312,-3.4128,-3.4094,-3.4025,-3.3813,0.0,-3.3695,-3.3591,0.0,-3.2475,-3.2475,0.0,0.0,-3.0275,-3.0555,-3.0525,-2.9638,-2.9555,-2.9312,-2.8645,-2.8639,-2.8885,-2.9382,-3.0056,-3.0513,-3.0561,-3.079,-3.0711,-3.0122,-2.9641,-2.9124,-2.8522,-2.851,-2.851,-2.851,-2.859,-2.9,-2.9704,-2.9067,-2.9237,-3.0,-2.8711,-2.8209,-2.8339,-2.8475,-2.8252,-2.7894,-2.8648,-2.9044,-2.9205,-2.9898,-3.0341,-3.0568,-3.0417,-3.0447,-3.0598,-3.9388,-3.9388,-3.9388,-3.9388,-3.9388,-3.9388,-3.9388,-3.9388,-3.9388,-3.9388,-3.9388,-3.9388,-3.9388,-3.9388,-3.9388,-3.9388,-3.9388,-3.9388,-3.9388,-3.9388,-3.9388,-3.9388,-3.9388,-3.9388,-3.9388,-3.9388,-3.9337,-3.9228,-3.9017,-3.8833,-3.8612,-3.8441,-3.8277,-3.8202,-3.8202,-3.8202,-3.8202,-3.8202,-3.8202,-3.8202,-3.8202,-3.8315,-3.8449,-3.8575,-3.8686,-3.8782,-3.8649,-3.8686,-3.8797,-3.876,-3.8922,-3.8845,-3.7329,-3.688,-3.658,-3.4996,-3.4481,-3.4414,-3.4414,-3.4414,-3.438,-3.4312,-3.4264,-3.4278,-3.421,-3.4108,-3.4005,-3.4005,0.0,0.0,0.0,0.0,0.0,0.0,-3.2118,-3.2006,-3.0753,-3.0887,-3.0596,-2.923,-2.8771,-2.8755,-2.9302,-2.9772,-3.0112,-3.024,-3.038,-3.0194,-2.9653,-2.9412,-2.9051,-2.8522,-2.851,-2.851,-2.851,-2.851,-2.8657,-2.8988,-2.8657,-2.8784,-2.9261,-2.7965,-2.7481,-2.765,-2.7382,-2.7157,-2.6989,-2.7736,-2.839,-2.8871,-2.8803,-2.9387,-3.031,-3.0296,-3.0357,-3.0447,-3.8531,-3.8782,-3.8943,-3.8907,-3.887,-3.8943,-3.9177,-3.9265,-3.9301,-3.9301,-3.9301,-3.9337,-3.9388,-3.9388,-3.9388,-3.9388,-3.9388,-3.9388,-3.9388,-3.9388,-3.9388,-3.9388,-3.9388,-3.9388,-3.9388,-3.9337,-3.9265,-3.9104,-3.8833,-3.8649,-3.8478,-3.8277,-3.8202,-3.8202,-3.8202,-3.8202,-3.8202,-3.8202,-3.8037,-3.7848,-3.8089,-3.8202,-3.8202,-3.8366,-3.8501,-3.8612,-3.8464,-3.8501,-3.8598,-3.8553,-3.8701,-3.8663,-3.7166,-3.674,-3.6511,-3.4962,-3.4448,-3.4414,-3.4414,-3.4414,-3.4414,-3.4414,-3.4414,-3.4414,-3.4414,-3.4346,-3.423,-3.4196,-3.4142,0.0,0.0,0.0,-3.3707,-3.294,0.0,-3.3206,-3.1843,-3.1965,-3.1586,-3.0012,-2.925,-2.9001,-2.9391,-2.9515,-2.966,-2.9869,-2.9869,-2.9701,-2.9316,-2.916,-2.8907,-2.8522,-2.851,-2.851,-2.851,-2.851,-2.851,-2.851,-2.851,-2.857,-2.8683,-2.7451,-2.6967,-2.7086,-2.6624,-2.6277,-2.6139,-2.6879,-2.7571,-2.8097,-2.7597,-2.8254,-2.9526,-2.9884,-3.0068,-3.016,-3.6369,-3.7137,-3.7791,-3.7601,-3.7548,-3.7829,-3.8708,-3.898,-3.9104,-3.9104,-3.9104,-3.9177,-3.9388,-3.9388,-3.9388,-3.9388,-3.9388,-3.9388,-3.9388,-3.9388,-3.9388,-3.9388,-3.9388,-3.9388,-3.9388,-3.9228,-3.9104,-3.9104,-3.8701,-3.8516,-3.8478,-3.8277,-3.8202,-3.8202,-3.8202,-3.8202,-3.8202,-3.8202,-3.772,-3.7014,-3.7848,-3.8202,-3.8202,-3.8202,-3.8202,-3.8202,-3.8202,-3.8202,-3.824,-3.8441,-3.8516,-3.8333,-3.7237,-3.6755,-3.6365,-3.5078,-3.4563,-3.4414,-3.4414,-3.4414,-3.4414,-3.4414,-3.4414,-3.4414,-3.4414,-3.4563,-3.4631,-3.4414,-3.4549,-3.4597,-3.4414,-3.423,-3.3892,-3.3274,-3.3584,0.0,0.0,-3.2584,-3.2001,-3.0957,-3.0152,-2.9665,-2.969,-2.9475,-2.9328,-2.9328,-2.9328,-2.9316,-2.9304,-2.8811,-2.8522,-2.851,-2.851,-2.851,-2.851,-2.851,-2.851,-2.851,-2.851,-2.8498,-2.849,-2.7404,-2.6885,-2.6888,-2.6553,-2.6,-2.537,-2.6139,-2.6449,-2.6483,-2.6449,-2.7027,-2.8006,-2.8949,-2.9467,-2.9716,-3.6041,-3.5842,-3.5935,-3.654,-3.6643,-3.6735,-3.7046,-3.7625,-3.8032,-3.8032,-3.8546,-3.8943,-3.898,-3.898,-3.898,-3.898,-3.9104,-3.9141,-3.9017,-3.9265,-3.9265,-3.9017,-3.9265,-3.9265,-3.9017,-3.9068,-3.8958,-3.8701,-3.8553,-3.8441,-3.8277,-3.7644,-3.7323,-3.7323,-3.6752,-3.6464,-3.6464,-3.6464,-3.6306,-3.6068,-3.6346,-3.683,-3.7414,-3.7962,-3.8202,-3.8202,-3.8202,-3.8202,-3.8202,-3.8277,-3.8404,-3.8259,-3.6937,-3.6529,-3.6315,-3.4928,-3.4448,-3.4414,-3.4414,-3.4414,-3.4414,-3.4563,-3.4597,-3.4616,-3.4702,-3.4769,-3.4802,-3.4735,-3.4783,-3.4802,-3.4735,-3.4616,-3.4423,-3.4239,-3.41,-3.3953,0.0,-3.3504,-3.3213,-3.2739,-3.1378,-3.0291,-2.9742,-2.9607,-2.9337,-2.8815,-2.8775,-2.8775,-2.8775,-2.8607,-2.851,-2.851,-2.851,-2.851,-2.851,-2.851,-2.851,-2.851,-2.851,-2.851,-2.8474,-2.7378,-2.6898,-2.6837,-2.6032,-2.5511,-2.5312,-2.5581,-2.5965,-2.6346,-2.6013,-2.6346,-2.7183,-2.794,-2.873,-2.9529,-3.4938,-3.4511,-3.4428,-3.54,-3.5628,-3.5748,-3.5934,-3.6515,-3.7035,-3.7357,-3.7866,-3.8383,-3.8745,-3.8782,-3.8782,-3.8782,-3.8907,-3.8943,-3.8819,-3.9031,-3.9068,-3.8819,-3.9068,-3.9068,-3.8819,-3.8848,-3.8612,-3.8023,-3.7962,-3.772,-3.7271,-3.6713,-3.6439,-3.6399,-3.5869,-3.5615,-3.5615,-3.5615,-3.5427,-3.5156,-3.5156,-3.5682,-3.6478,-3.7078,-3.7682,-3.8202,-3.8202,-3.8202,-3.8202,-3.8202,-3.8277,-3.8133,-3.6743,-3.6387,-3.621,-3.4825,-3.4414,-3.4414,-3.4414,-3.4414,-3.4414,-3.4563,-3.4597,-3.4616,-3.4783,-3.4868,-3.4902,-3.4835,-3.4902,-3.4935,-3.4769,-3.475,-3.4716,-3.4616,-3.4448,-3.4264,0.0,-3.404,-3.3917,-3.3709,-3.2354,-3.118,-3.0632,-3.0037,-2.9484,-2.8961,-2.8657,-2.851,-2.851,-2.851,-2.851,-2.851,-2.851,-2.851,-2.851,-2.851,-2.851,-2.851,-2.851,-2.851,-2.8474,-2.7378,-2.6898,-2.6837,-2.5781,-2.5312,-2.5312,-2.5312,-2.5581,-2.5965,-2.5629,-2.5838,-2.6402,-2.7224,-2.8168,-2.9093,-3.3154,-3.3124,-3.3368,-3.4189,-3.4483,-3.4828,-3.5386,-3.5655,-3.6134,-3.6958,-3.7088,-3.751,-3.8546,-3.8671,-3.8708,-3.8671,-3.8708,-3.8708,-3.8671,-3.8708,-3.8745,-3.8708,-3.8745,-3.8782,-3.8782,-3.8538,-3.8023,-3.7204,-3.6947,-3.6399,-3.5615,-3.5574,-3.5534,-3.5548,-3.5507,-3.5494,-3.5494,-3.5494,-3.5033,-3.4356,-3.4356,-3.4814,-3.5534,-3.5534,-3.6582,-3.8075,-3.8075,-3.8089,-3.8127,-3.8127,-3.8165,-3.7984,-3.6751,-3.633,-3.6069,-3.482,-3.4443,-3.4414,-3.4414,-3.4414,-3.4414,-3.4414,-3.4414,-3.4481,-3.4664,-3.4817,-3.4868,-3.4731,-3.4949,-3.5016,-3.4549,-3.4668,-3.4802,-3.4481,-3.4563,-3.4563,-3.4162,-3.4128,-3.4059,-3.3931,-3.3058,-3.2376,-3.2146,-3.0707,-2.9819,-2.9781,-2.8988,-2.855,-2.855,-2.851,-2.851,-2.851,-2.851,-2.851,-2.851,-2.851,-2.851,-2.851,-2.851,-2.851,-2.8474,-2.7378,-2.6898,-2.6837,-2.5781,-2.5312,-2.5312,-2.5312,-2.5312,-2.5312,-2.5312,-2.5418,-2.5746,-2.679,-2.7703,-2.833,-3.3124,-3.3124,-3.3154,-3.3411,-3.3484,-3.3556,-3.3713,-3.433,-3.4868,-3.5101,-3.5628,-3.6134,-3.6411,-3.6986,-3.7116,-3.6489,-3.7165,-3.7281,-3.6489,-3.7319,-3.7691,-3.74,-3.8285,-3.8671,-3.8352,-3.782,-3.7333,-3.6961,-3.6281,-3.5829,-3.5574,-3.5006,-3.4703,-3.4662,-3.4037,-3.3755,-3.3755,-3.3755,-3.3598,-3.3441,-3.3441,-3.3937,-3.4703,-3.4703,-3.5372,-3.6267,-3.6267,-3.6674,-3.7208,-3.7208,-3.7644,-3.8072,-3.7302,-3.6707,-3.6156,-3.5392,-3.4777,-3.4414,-3.4414,-3.4414,-3.4448,-3.4597,-3.4631,-3.465,-3.4802,-3.4868,-3.4902,-3.4883,-3.4902,-3.4968,-3.4983,-3.485,-3.475,-3.4769,-3.4616,-3.4448,-3.4346,-3.4312,-3.423,-3.4074,-3.3716,-3.3199,-3.2412,-3.1806,-3.123,-3.0632,-2.9858,-2.9406,-2.9406,-2.8803,-2.851,-2.851,-2.851,-2.851,-2.851,-2.851,-2.851,-2.851,-2.851,-2.851,-2.8474,-2.7378,-2.6898,-2.6837,-2.5781,-2.5312,-2.5312,-2.5312,-2.5312,-2.5312,-2.5312,-2.5418,-2.5746,-2.679,-2.6845,-2.6526,-3.3124,-3.3124,-3.3124,-3.3124,-3.3124,-3.3124,-3.3124,-3.3539,-3.3992,-3.4356,-3.4772,-3.5196,-3.5574,-3.6029,-3.6108,-3.5655,-3.6134,-3.6253,-3.5655,-3.6292,-3.6582,-3.636,-3.7011,-3.7295,-3.7078,-3.6699,-3.6267,-3.583,-3.5332,-3.4883,-3.4511,-3.405,-3.3823,-3.3823,-3.3326,-3.3124,-3.3124,-3.3124,-3.3025,-3.2939,-3.2939,-3.3227,0.0,-3.3641,-3.3953,-3.4332,-3.447,-3.5264,-3.632,-3.632,-3.6922,-3.7544,-3.6928,-3.6533,-3.6185,-3.5581,-3.4907,-3.4414,-3.4414,-3.4414,-3.4414,-3.4549,-3.4563,-3.4616,-3.4783,-3.4817,-3.4817,-3.4817,-3.4868,-3.4902,-3.485,-3.4817,-3.4783,-3.4817,-3.4582,-3.4414,-3.4414,-3.4414,-3.4346,-3.423,-3.4054,-3.366,-3.3129,-3.2497,-3.1783,-3.0957,-3.0139,-2.9549,-2.9172,-2.8736,-2.851,-2.851,-2.851,-2.851,-2.851,-2.851,-2.851,-2.851,-2.851,-2.851,-2.8474,-2.7378,-2.6898,-2.6837,-2.5781,-2.5312,-2.5312,-2.5312,-2.5312,-2.5312,-2.5312,-2.5382,-2.5558,-2.6255,-2.6186,-2.5851,-3.3093,-3.3124,-3.3124,-3.3124,-3.3124,-3.3124,-3.3124,-3.3124,-3.3368,-3.4147,-3.423,-3.4496,-3.5183,-3.5386,-3.5386,-3.5264,-3.5386,-3.5386,-3.5264,-3.5386,-3.5427,-3.5427,-3.5534,-3.5615,-3.5615,-3.5507,-3.5087,-3.4397,-3.4272,-3.3865,-3.3124,-3.3124,-3.3124,-3.3124,-3.3124,-3.3068,-3.3038,-3.3038,-3.2853,-3.268,-3.268,-3.268,-3.268,-3.268,-3.268,-3.2667,-3.2939,-3.4066,-3.5427,-3.5427,-3.6042,-3.6643,-3.6098,-3.6014,-3.5964,-3.5381,-3.4816,-3.4345,-3.4244,-3.4332,-3.4414,-3.4414,-3.4414,-3.4448,-3.4631,-3.4664,-3.4664,-3.4664,-3.475,-3.4735,-3.4481,-3.4683,-3.485,-3.4698,-3.4515,-3.4414,-3.4414,-3.4414,-3.4414,-3.4414,-3.4122,0.0,-3.3896,-3.2797,-3.1819,-3.1119,-3.0228,-2.9406,-2.8697,-2.855,-2.851,-2.851,-2.851,-2.851,-2.851,-2.851,-2.851,-2.851,-2.851,-2.851,-2.8474,-2.7378,-2.6898,-2.6837,-2.5781,-2.5312,-2.5312,-2.5312,-2.5312,-2.5312,-2.5312,-2.5312,-2.5312,-2.55,-2.5676,-2.5793,-3.3212,-3.3124,-3.3124,-3.3124,-3.3124,-3.3124,-3.3124,-3.3124,-3.3154,-3.3326,-3.3326,-3.3356,-3.3513,-3.4176,-3.4343,-3.3598,-3.4176,-3.4301,-3.3598,-3.4217,-3.462,-3.462,-3.5237,-3.5615,-3.5615,-3.4965,-3.4551,-3.4397,-3.3696,-3.324,-3.3124,-3.3124,-3.3124,-3.3124,-3.3124,-3.2982,-3.2766,-3.2605,-3.2487,-3.2431,-3.2431,-3.2431,-3.2431,-3.2431,-3.2431,-3.2475,-3.268,-3.3556,-3.462,-3.462,-3.5169,-3.5802,-3.5706,-3.5348,-3.4851,-3.4338,-3.4177,-3.4058,-3.3557,-3.3894,-3.4414,-3.4414,-3.4414,-3.4414,-3.4448,-3.4448,-3.4448,-3.4448,-3.4481,-3.4515,-3.4631,-3.4698,-3.465,-3.4481,-3.4414,-3.4414,-3.4414,-3.4414,-3.4414,-3.4414,-3.421,-3.4005,-3.3917,-3.2797,-3.2037,-3.1892,-3.0519,-2.9626,-2.9484,-2.8843,-2.851,-2.851,-2.851,-2.851,-2.851,-2.851,-2.851,-2.851,-2.851,-2.851,-2.8474,-2.7378,-2.6898,-2.6837,-2.5781,-2.5312,-2.5312,-2.5312,-2.5312,-2.5312,-2.5312,-2.5312,-2.5312,-2.5347,-2.5382,-2.5418,-3.3558,-3.3269,-3.3124,-3.3124,-3.3124,-3.3124,-3.3124,-3.3124,-3.3124,-3.3124,-3.3124,-3.3124,-3.3124,-3.3484,-3.3581,-3.3124,-3.3496,-3.3539,-3.3111,-3.3496,-3.3738,-3.3738,-3.4079,-3.4317,-3.4317,-3.3924,-3.3738,-3.3738,-3.3326,-3.3124,-3.3124,-3.3124,-3.3038,-3.2896,-3.2766,-3.2605,-3.2332,-3.2388,-3.23,-3.2169,-3.2169,-3.2169,-3.2169,-3.2169,-3.2169,-3.2213,-3.2475,-3.2896,-3.3398,-3.3471,-3.4163,-3.4965,-3.4815,-3.4754,-3.4587,-3.4082,-3.3684,-3.3436,-3.3255,-3.3485,-3.3894,-3.4312,-3.4414,-3.4414,-3.4414,-3.4414,-3.4414,-3.4414,-3.4414,-3.4414,-3.4515,-3.4549,-3.4515,-3.4414,-3.4414,-3.4414,-3.4414,-3.4414,-3.4414,-3.4414,-3.423,-3.4059,-3.4005,-3.2555,-3.1586,-3.1489,-3.0367,-2.9523,-2.9106,-2.8697,-2.851,-2.851,-2.851,-2.851,-2.851,-2.851,-2.851,-2.851,-2.851,-2.851,-2.8474,-2.7378,-2.6898,-2.6837,-2.5781,-2.5312,-2.5312,-2.5312,-2.5312,-2.5312,-2.5312,-2.5312,-2.5312,-2.5312,-2.5312,-2.5312,-3.4073,-3.3633,-3.3257,-3.3257,-3.3199,-3.3124,-3.3124,-3.3124,-3.3124,-3.3124,-3.3124,-3.3124,-3.3124,-3.3124,-3.3124,-3.3124,-3.3124,-3.3124,-3.3124,-3.3124,-3.3124,-3.3124,-3.3124,-3.3124,-3.3124,-3.3124,-3.3124,-3.3124,-3.3124,-3.3124,-3.3124,-3.3025,-3.2896,-3.2636,-3.2431,-3.2213,-3.1994,-3.2169,-3.2125,-3.1937,-3.1937,-3.1937,-3.1937,-3.1937,-3.1937,-3.1994,-3.2213,-3.23,-3.2344,-3.2506,-3.3185,-3.3937,-3.3729,-3.3908,-3.4099,-3.3634,-3.3137,-3.2761,-3.2849,-3.2923,-3.3122,-3.3756,-3.4045,-3.4147,-3.4147,-3.4264,-3.4414,-3.4414,-3.4414,-3.4414,-3.4414,-3.4414,-3.4414,-3.4414,-3.4414,-3.4414,-3.4414,-3.4414,-3.4414,-3.4414,-3.4264,-3.4059,-3.3839,-3.2254,-3.1106,-3.067,-2.9884,-2.9184,-2.855,-2.851,-2.851,-2.851,-2.851,-2.851,-2.851,-2.851,-2.851,-2.851,-2.851,-2.851,-2.8474,-2.7378,-2.6898,-2.6837,-2.5781,-2.5312,-2.5312,-2.5312,-2.5312,-2.5312,-2.5312,-2.5312,-2.5312,-2.5312,-2.5312,-2.5312,-3.465,-3.4198,-3.3822,-3.3822,-3.3407,-3.3124,-3.3124,-3.3124,-3.3124,-3.3124,-3.3124,-3.3124,-3.3124,-3.3124,-3.3124,-3.3124,-3.3124,-3.3124,-3.3124,-3.3124,-3.3124,-3.3124,-3.3124,-3.3124,-3.3124,-3.3124,-3.3124,-3.3124,-3.3124,-3.3124,-3.3068,-3.2853,-3.2636,-3.2431,-3.2169,-3.2038,-3.1994,-3.1849,-3.1749,-3.1705,-3.1705,-3.1705,-3.1705,-3.1705,-3.1705,-3.1761,-3.1937,-3.2038,-3.2038,-3.2081,-3.23,-3.2605,-3.2562,-3.2556,-3.2537,-3.2189,-3.2176,-3.2201,-3.1938,-3.2038,-3.2218,-3.2304,-3.284,-3.3297,-3.3297,-3.3894,-3.4414,-3.4414,-3.4414,-3.4414,-3.4414,-3.4414,-3.4414,-3.4414,-3.4414,-3.4414,-3.4414,-3.4414,-3.4414,-3.4414,-3.438,-3.3991,-3.2917,-3.2001,-3.1018,-2.9884,-2.9067,-2.859,-2.851,-2.851,-2.851,-2.851,-2.851,-2.851,-2.851,-2.851,-2.851,-2.851,-2.851,-2.851,-2.8474,-2.7378,-2.6898,-2.6837,-2.5781,-2.5312,-2.5312,-2.5312,-2.5312,-2.5312,-2.5312,-2.5312,-2.5312,-2.5312,-2.5312,-2.5312,-3.5169,-3.4512,-3.3897,-3.3897,-3.3445,-3.3124,-3.3124,-3.3124,-3.3124,-3.3124,-3.3124,-3.3124,-3.3124,-3.3124,-3.3124,-3.3124,-3.3124,-3.3124,-3.3124,-3.3124,-3.3124,-3.3124,-3.3124,-3.3124,-3.3124,-3.3124,-3.3124,-3.3124,-3.2939,-3.2853,-3.2853,-3.2649,-3.2388,-3.2169,-3.1937,-3.1805,-3.1805,-3.1705,-3.1705,-3.1705,-3.1705,-3.1705,-3.1705,-3.1705,-3.1705,-3.1705,-3.1805,-3.1805,-3.1805,-3.1805,-3.2069,-3.2344,-3.2213,-3.2257,-3.2277,-3.1809,-3.1813,-3.1962,-3.1616,-3.1702,-3.1891,-3.2059,-3.2326,-3.2541,-3.2541,-3.2804,-3.303,-3.303,-3.3381,-3.3811,-3.4298,-3.4011,-3.3859,-3.4332,-3.3997,-3.3673,-3.3673,-3.3673,-3.352,-3.3066,-3.303,-3.2783,-3.2209,-3.1304,-3.0519,-2.9922,-2.9028,-2.851,-2.851,-2.851,-2.851,-2.851,-2.851,-2.851,-2.851,-2.851,-2.851,-2.851,-2.851,-2.851,-2.8474,-2.7378,-2.6537,-2.5937,-2.5492,-2.5312,-2.5312,-2.5312,-2.5312,-2.5312,-2.5312,-2.5312,-2.5312,-2.5312,-2.5312,-2.5312,-3.5159,-3.4271,-3.3575,-3.3486,-3.295,-3.2624,-3.2865,-3.2909,-3.2909,-3.2909,-3.2909,-3.2952,-3.3068,-3.3124,-3.3124,-3.3124,-3.3124,-3.3124,-3.3124,-3.3124,-3.3124,-3.3124,-3.3124,-3.3081,-3.2982,-3.2982,-3.2939,-3.2909,-3.268,-3.2593,-3.2593,-3.2388,-3.2169,-3.1893,-3.1761,-3.1705,-3.1705,-3.1705,-3.1705,-3.1705,-3.1705,-3.1705,-3.1705,-3.1705,-3.1705,-3.1705,-3.1705,-3.1705,-3.1705,-3.1705,-3.1937,-3.2169,-3.1981,-3.2025,-3.214,-3.1736,-3.1687,-3.1645,-3.1478,-3.1367,-3.1306,-3.1474,-3.1646,-3.1746,-3.1746,-3.1928,-3.211,-3.211,-3.2506,-3.3052,-3.3604,-3.3276,-3.3052,-3.3638,-3.3241,-3.2861,-3.2861,-3.2861,-3.2684,-3.2146,-3.211,-3.1892,-3.1392,-3.0733,-3.0088,-2.9588,-2.8882,-2.851,-2.851,-2.851,-2.851,-2.851,-2.851,-2.851,-2.851,-2.851,-2.851,-2.851,-2.851,-2.851,-2.8474,-2.7378,-2.6381,-2.5528,-2.5384,-2.5312,-2.5312,-2.5312,-2.5312,-2.5312,-2.5312,-2.5312,-2.5312,-2.5312,-2.5312,-2.5312,-3.4288,-3.3434,-3.2816,-3.2488,-3.1812,-3.1581,-3.23,-3.2388,-3.2388,-3.2388,-3.2388,-3.2605,-3.3038,-3.3124,-3.3124,-3.3124,-3.3124,-3.3124,-3.3124,-3.3124,-3.3124,-3.3124,-3.3124,-3.2982,-3.2711,-3.2711,-3.2593,-3.2388,-3.24,-3.24,-3.24,-3.2125,-3.1893,-3.1705,-3.1705,-3.1705,-3.1705,-3.1705,-3.1705,-3.1705,-3.1705,-3.1705,-3.1705,-3.1705,-3.1705,-3.1705,-3.1705,-3.1705,-3.1705,-3.1705,-3.1705,-3.1705,-3.1705,-3.1717,-3.1761,-3.1937,-3.1605,-3.1266,-3.1455,-3.0865,-3.0226,-3.0226,-3.056,-3.0932,-3.0932,-3.1526,-3.211,-3.211,-3.211,-3.211,-3.2123,-3.211,-3.211,-3.211,-3.211,-3.211,-3.211,-3.211,-3.211,-3.211,-3.211,-3.1636,-3.0431,-3.0317,-2.9793,-2.8618,-2.851,-2.851,-2.851,-2.851,-2.851,-2.851,-2.851,-2.851,-2.851,-2.851,-2.851,-2.851,-2.851,-2.851,-2.8474,-2.7378,-2.6585,-2.6057,-2.554,-2.5312,-2.5312,-2.5312,-2.5312,-2.5312,-2.5312,-2.5312,-2.5312,-2.5312,-2.5312,-2.5312,-3.2894,-3.2145,-3.1508,-3.1376,-3.0627,-3.0102,-3.0339,-3.0339,-3.0339,-3.0339,-3.0339,-3.0418,-3.0553,-3.1813,-3.2605,-3.2605,-3.2605,-3.2605,-3.2605,-3.2605,-3.2605,-3.2605,-3.2605,-3.2562,-3.2519,-3.2519,-3.2475,-3.24,-3.2213,-3.2081,-3.1937,-3.1849,-3.1761,-3.1705,-3.1705,-3.1705,-3.1661,-3.0958,-3.1059,-3.1572,-3.0215,-3.0079,-3.0678,-3.0678,-3.0678,-3.0779,-3.1472,-3.1705,-3.1705,-3.1705,-3.1705,-3.1705,-3.1705,-3.1705,-3.1705,-3.1761,-3.1772,-3.1697,-3.1375,-3.1179,-3.0893,-3.0195,-3.0102,-3.0142,-2.9946,-3.0228,-3.0684,-3.1193,-3.1267,-3.1452,-3.2001,-3.1636,-3.1452,-3.2001,-3.1636,-3.1267,-3.1267,-3.1267,-3.1095,-3.057,-3.0545,-3.0279,-2.9535,-2.947,-2.9197,-2.855,-2.851,-2.851,-2.851,-2.851,-2.851,-2.851,-2.851,-2.851,-2.851,-2.851,-2.851,-2.851,-2.851,-2.8318,-2.7906,-2.721,-2.6597,-2.6069,-2.554,-2.5312,-2.5312,-2.5312,-2.5312,-2.5312,-2.5312,-2.5312,-2.5312,-2.5312,-2.5312,-2.5312,-3.148,-3.0766,-3.016,-3.0025,-2.9277,-2.8819,-2.9085,-2.9131,-2.9131,-2.9131,-2.9131,-2.9131,-2.9131,-3.0249,-3.1092,-3.127,-3.127,-3.1403,-3.1825,-3.1837,-3.2013,-3.2388,-3.24,-3.2356,-3.2257,-3.2257,-3.2213,-3.2125,-3.1981,-3.1805,-3.1705,-3.1705,-3.1516,-3.1149,-3.1149,-3.0913,-3.0543,-2.9886,-2.9977,-3.0441,-2.9189,-2.9096,-2.9658,-2.9658,-2.9658,-2.9749,-3.0779,-3.1149,-3.1193,-3.156,-3.1705,-3.1705,-3.1705,-3.1705,-3.1705,-3.1705,-3.1805,-3.1821,-3.1494,-3.1381,-3.1235,-3.0563,-3.0114,-2.9794,-2.9398,-2.9417,-2.9689,-3.0126,-3.0228,-3.038,-3.0871,-3.057,-3.038,-3.0895,-3.057,-3.0228,-3.0228,-3.0228,-3.0063,-2.9573,-2.9546,-2.9378,-2.9,-2.9013,-2.8855,-2.851,-2.851,-2.851,-2.851,-2.851,-2.851,-2.851,-2.851,-2.851,-2.851,-2.851,-2.851,-2.851,-2.8179,-2.7841,-2.7498,-2.675,-2.6394,-2.637,-2.5624,-2.5312,-2.5312,-2.5312,-2.5312,-2.5312,-2.5312,-2.5312,-2.5312,-2.5312,-2.5312,-2.5312,-2.9985,-2.9268,-2.8744,-2.8396,-2.7849,-2.7673,-2.8402,-2.8495,-2.8495,-2.8495,-2.8495,-2.8495,-2.8495,-2.8495,-2.868,-2.9085,-2.9269,-2.9738,-3.0711,-3.0756,-3.1181,-3.2113,-3.2157,-3.2025,-3.1761,-3.1749,-3.1661,-3.1472,-3.156,-3.1617,-3.1617,-3.1617,-3.1104,-3.0215,-3.0125,-2.9567,-2.868,-2.8634,-2.8634,-2.868,-2.8541,-2.8541,-2.8588,-2.8588,-2.8588,-2.8727,-2.9749,-3.0125,-3.026,-3.1193,-3.1472,-3.1516,-3.156,-3.1617,-3.1617,-3.1661,-3.1705,-3.1705,-3.1705,-3.1487,-3.1241,-3.1204,-3.057,-2.9816,-2.9275,-2.9153,-2.914,-2.9104,-2.9091,-2.9091,-2.9091,-2.9091,-2.9091,-2.9091,-2.9091,-2.9091,-2.9091,-2.9091,-2.9091,-2.9091,-2.9091,-2.9,-2.8843,-2.8791,-2.8724,-2.851,-2.851,-2.851,-2.851,-2.851,-2.851,-2.851,-2.851,-2.851,-2.851,-2.851,-2.8471,-2.8391,-2.751,-2.7092,-2.7069,-2.6062,-2.6027,-2.675,-2.5745,-2.5276,-2.5229,-2.5276,-2.5276,-2.5229,-2.5264,-2.5312,-2.5312,-2.5312,-2.5312,-2.5312,-2.8334,-2.7827,-2.735,-2.6983,-2.6467,-2.6197,-2.638,-2.6428,-2.6428,-2.6428,-2.6428,-2.6428,-2.6428,-2.6428,-2.6476,-2.6562,-2.7992,-2.8947,-2.9189,-2.9235,-2.9326,-2.9567,-2.9555,-2.9555,-2.9464,-2.9464,-2.9464,-2.9418,-3.017,-3.0543,-3.0543,-3.0543,-3.0453,-3.017,-2.9418,-2.8912,-2.8634,-2.7887,-2.7981,-2.8588,-2.703,-2.6887,-2.7558,-2.7558,-2.7558,-2.7699,-2.8669,-2.905,-2.9096,-2.9326,-2.9418,-2.9567,-3.0306,-3.0543,-3.0722,-3.1472,-3.1705,-3.1705,-3.1705,-3.1665,-3.1472,-3.1062,-3.0598,-3.0133,-2.9614,-2.9585,-2.9595,-2.9177,-2.9091,-2.9091,-2.9091,-2.9091,-2.9091,-2.9091,-2.9091,-2.9091,-2.9091,-2.9091,-2.9091,-2.9091,-2.9091,-2.9,-2.8843,-2.8791,-2.8724,-2.851,-2.851,-2.851,-2.851,-2.851,-2.851,-2.851,-2.851,-2.851,-2.851,-2.851,-2.8179,-2.751,-2.6588,-2.6121,-2.613,-2.5775,-2.572,-2.5892,-2.548,-2.4933,-2.4409,-2.5052,-2.4933,-2.4456,-2.5052,-2.5312,-2.5312,-2.5312,-2.5312,-2.5312,-2.7796,-2.7314,-2.6885,-2.6465,-2.6025,-2.5693,-2.5693,-2.5693,-2.5693,-2.5693,-2.5693,-2.5693,-2.5693,-2.5693,-2.5693,-2.5693,-2.6706,-2.7531,-2.7981,-2.8028,-2.8215,-2.868,-2.868,-2.868,-2.868,-2.868,-2.868,-2.868,-2.9235,-2.951,-2.951,-2.951,-2.928,-2.8819,-2.8262,-2.7757,-2.7295,-2.6744,-2.6829,-2.721,-2.6149,-2.6004,-2.6504,-2.6504,-2.6504,-2.6648,-2.7662,-2.8028,-2.8075,-2.8541,-2.868,-2.8819,-2.9326,-2.951,-2.9704,-3.0722,-3.1339,-3.1705,-3.1705,-3.1705,-3.1585,-3.1055,-3.0748,-3.0483,-2.9939,-2.9706,-2.9533,-2.9241,-2.8986,-2.8828,-2.8828,-2.8828,-2.8828,-2.8828,-2.8828,-2.8828,-2.8828,-2.8828,-2.8828,-2.8828,-2.8828,-2.8776,-2.8657,-2.8657,-2.8618,-2.851,-2.851,-2.851,-2.851,-2.8139,-2.8099,-2.8471,-2.851,-2.851,-2.851,-2.8087,-2.7255,-2.5966,-2.5453,-2.52,-2.5179,-2.4873,-2.4856,-2.5043,-2.5055,-2.452,-2.3647,-2.442,-2.4312,-2.3683,-2.4456,-2.4755,-2.4791,-2.5158,-2.5312,-2.5312,-2.7718,-2.7266,-2.6865,-2.6377,-2.5986,-2.5693,-2.5693,-2.5693,-2.5693,-2.5693,-2.5693,-2.5693,-2.5693,-2.5693,-2.5693,-2.5693,-2.5693,-2.6052,-2.6914,-2.6962,-2.7332,-2.8215,-2.8272,-2.8272,-2.8272,-2.8272,-2.8272,-2.8272,-2.8402,-2.8484,-2.8484,-2.8484,-2.8028,-2.7179,-2.7057,-2.6504,-2.5693,-2.5693,-2.5693,-2.5693,-2.5693,-2.5693,-2.5693,-2.5693,-2.5693,-2.583,-2.6696,-2.6962,-2.7105,-2.7945,-2.8272,-2.8262,-2.8448,-2.8484,-2.868,-2.9704,-3.0588,-3.1294,-3.1617,-3.1705,-3.1597,-3.1151,-3.1043,-3.0898,-3.0326,-2.9857,-2.9508,-2.9436,-2.8991,-2.8631,-2.8631,-2.8558,-2.851,-2.851,-2.851,-2.851,-2.851,-2.851,-2.851,-2.851,-2.851,-2.8431,-2.8311,-2.8299,-2.8299,-2.8299,-2.8179,-2.8127,-2.8299,-2.747,-2.7348,-2.8047,-2.8219,-2.8299,-2.8299,-2.7296,-2.6008,-2.4498,-2.437,-2.4284,-2.4274,-2.3865,-2.3895,-2.423,-2.45,-2.3921,-2.2883,-2.3647,-2.35,-2.2883,-2.3647,-2.3927,-2.4047,-2.4826,-2.5123,-2.5123,-2.7275,-2.706,-2.6768,-2.5927,-2.5732,-2.5693,-2.5693,-2.5693,-2.5693,-2.5693,-2.5693,-2.5693,-2.5693,-2.5693,-2.5693,-2.5693,-2.5693,-2.5781,-2.5917,-2.5917,-2.6004,-2.6149,-2.6149,-2.6149,-2.6149,-2.6149,-2.6149,-2.6149,-2.701,-2.7416,-2.7416,-2.7416,-2.7332,-2.7142,-2.6322,-2.5868,-2.5693,-2.5693,-2.5693,-2.5693,-2.5693,-2.5693,-2.5693,-2.5693,-2.5693,-2.5742,-2.5868,-2.5917,-2.5965,-2.61,-2.6149,-2.6284,-2.7142,-2.7416,-2.7652,-2.8634,-2.905,-2.9567,-3.1238,-3.1705,-3.1693,-3.1609,-3.1585,-3.1452,-3.0922,-3.073,-3.0506,-3.0062,-2.9544,-2.9172,-2.9172,-2.8811,-2.851,-2.851,-2.851,-2.851,-2.851,-2.851,-2.851,-2.851,-2.851,-2.8219,-2.747,-2.7389,-2.7389,-2.7389,-2.667,-2.6588,-2.7348,-2.6535,-2.608,-2.6193,-2.701,-2.7389,-2.7389,-2.5757,-2.4787,-2.4498,-2.3691,-2.3309,-2.3333,-2.3569,-2.3536,-2.3334,-2.3636,-2.3102,-2.2059,-2.2835,-2.2686,-2.2059,-2.2883,-2.318,-2.3243,-2.4011,-2.4301,-2.4373,-2.7187,-2.7012,-2.6748,-2.584,-2.5693,-2.5693,-2.5693,-2.5693,-2.5693,-2.5693,-2.5693,-2.5693,-2.5693,-2.5693,-2.5693,-2.5693,-2.5693,-2.5693,-2.5693,-2.5693,-2.5693,-2.5693,-2.5693,-2.5693,-2.5693,-2.5693,-2.5693,-2.5693,-2.6139,-2.637,-2.637,-2.637,-2.637,-2.637,-2.5917,-2.5693,-2.5693,-2.5693,-2.5693,-2.5693,-2.5693,-2.5693,-2.5693,-2.5693,-2.5693,-2.5693,-2.5693,-2.5693,-2.5693,-2.5693,-2.5693,-2.5781,-2.6235,-2.637,-2.66,-2.7615,-2.8262,-2.9004,-3.0486,-3.0869,-3.1003,-3.156,-3.1705,-3.1645,-3.1404,-3.0711,-3.0035,-2.9789,-2.9289,-2.8843,-2.8532,-2.8339,-2.8297,-2.8479,-2.8099,-2.7966,-2.8431,-2.851,-2.8351,-2.7846,-2.7805,-2.7429,-2.6547,-2.6453,-2.6453,-2.6453,-2.6027,-2.5997,-2.6412,-2.5579,-2.5115,-2.5115,-2.5997,-2.6205,-2.5757,-2.4914,-2.4241,-2.3734,-2.3309,-2.3091,-2.3091,-2.3265,-2.315,-2.2803,-2.316,-2.2613,-2.1517,-2.2126,-2.188,-2.1242,-2.2021,-2.236,-2.2435,-2.3206,-2.35,-2.361,-2.7314,-2.708,-2.6777,-2.6016,-2.5752,-2.5693,-2.5693,-2.5693,-2.5693,-2.5693,-2.5693,-2.5693,-2.5693,-2.5693,-2.5693,-2.5693,-2.5693,-2.5693,-2.5693,-2.5693,-2.5693,-2.5693,-2.5693,-2.5693,-2.5693,-2.5693,-2.5693,-2.5693,-2.5693,-2.5693,-2.5693,-2.5693,-2.5693,-2.5693,-2.5693,-2.5693,-2.5693,-2.5693,-2.5693,-2.5693,-2.5693,-2.5693,-2.5693,-2.5693,-2.5693,-2.5693,-2.5693,-2.5693,-2.5693,-2.5693,-2.5693,-2.5693,-2.5693,-2.5693,-2.5868,-2.6648,-2.7379,-2.8262,-2.951,-2.9841,-3.0034,-3.0824,-3.1003,-3.1003,-3.1003,-3.0095,-2.9228,-2.9228,-2.8831,-2.8323,-2.7895,-2.7833,-2.7847,-2.8023,-2.748,-2.7229,-2.7777,-2.7874,-2.7632,-2.6958,-2.6887,-2.6505,-2.5579,-2.5495,-2.5495,-2.5495,-2.5284,-2.5284,-2.5495,-2.4659,-2.4155,-2.4155,-2.4819,-2.4946,-2.4498,-2.4284,-2.382,-2.3091,-2.3091,-2.3091,-2.3091,-2.3091,-2.2867,-2.2542,-2.2815,-2.2281,-2.1201,-2.1544,-2.1227,-2.0644,-2.128,-2.1499,-2.1614,-2.2424,-2.2734,-2.2846,-2.7705,-2.7295,-2.6875,-2.6416,-2.6006,-2.5693,-2.5693,-2.5693,-2.5693,-2.5693,-2.5693,-2.5693,-2.5693,-2.5693,-2.5693,-2.5693,-2.5693,-2.5693,-2.5693,-2.5693,-2.5693,-2.5693,-2.5693,-2.5693,-2.5693,-2.5693,-2.5693,-2.5693,-2.5693,-2.5693,-2.5693,-2.5693,-2.5693,-2.5693,-2.5693,-2.5693,-2.5693,-2.5693,-2.5693,-2.5693,-2.5693,-2.5693,-2.5693,-2.5693,-2.5693,-2.5693,-2.5693,-2.5693,-2.5693,-2.5693,-2.5693,-2.5693,-2.5693,-2.5693,-2.5684,-2.5781,-2.5868,-2.6332,-2.8262,-2.8819,-2.8819,-2.8912,-2.8912,-2.8912,-2.8912,-2.8833,-2.8765,-2.8765,-2.8335,-2.795,-2.7906,-2.7501,-2.7042,-2.6701,-2.6582,-2.6428,-2.6052,-2.5997,-2.5986,-2.5913,-2.5902,-2.5579,-2.4659,-2.4616,-2.4616,-2.4616,-2.3767,-2.3691,-2.4531,-2.3691,-2.3222,-2.3222,-2.3266,-2.3691,-2.4498,-2.3647,-2.3178,-2.3091,-2.3091,-2.3091,-2.3091,-2.3091,-2.2867,-2.251,-2.2523,-2.2034,-2.119,-2.1231,-2.0977,-2.0605,-2.0683,-2.0683,-2.0789,-2.1576,-2.1869,-2.1983,-2.7796,-2.7314,-2.6885,-2.6465,-2.6025,-2.5693,-2.5693,-2.5693,-2.5693,-2.5693,-2.5693,-2.5693,-2.5693,-2.5693,-2.5693,-2.5693,-2.5693,-2.5693,-2.5693,-2.5693,-2.5693,-2.5693,-2.5693,-2.5693,-2.5693,-2.5693,-2.5693,-2.5693,-2.5693,-2.5693,-2.5693,-2.5693,-2.5693,-2.5693,-2.5693,-2.5693,-2.5693,-2.5693,-2.5693,-2.5693,-2.5693,-2.5693,-2.5693,-2.5693,-2.5693,-2.5693,-2.5693,-2.5693,-2.5693,-2.5693,-2.5693,-2.5693,-2.5693,-2.5693,-2.5693,-2.5693,-2.5693,-2.5878,-2.661,-2.7295,-2.7934,-2.853,-2.868,-2.868,-2.868,-2.8215,-2.7793,-2.7793,-2.7609,-2.7351,-2.702,-2.6876,-2.6828,-2.6845,-2.6428,-2.6126,-2.6215,-2.6235,-2.5914,-2.5073,-2.4999,-2.4616,-2.3734,-2.3647,-2.3647,-2.3647,-2.3309,-2.3266,-2.3604,-2.3309,-2.3091,-2.3091,-2.3091,-2.3266,-2.3647,-2.3266,-2.3091,-2.3091,-2.3091,-2.3091,-2.3091,-2.3091,-2.3013,-2.2847,-2.2627,-2.2324,-2.1941,-2.1414,-2.1093,-2.0947,-2.0713,-2.0605,-2.0644,-2.0944,-2.1059,-2.1165,-2.792,-2.7412,-2.6924,-2.6631,-2.6113,-2.5693,-2.5693,-2.5693,-2.5693,-2.5693,-2.5693,-2.5693,-2.5693,-2.5693,-2.5693,-2.5693,-2.5693,-2.5693,-2.5693,-2.5693,-2.5693,-2.5693,-2.5693,-2.5693,-2.5693,-2.5693,-2.5693,-2.5693,-2.5693,-2.5693,-2.5693,-2.5693,-2.5693,-2.5693,-2.5693,-2.5693,-2.5693,-2.5693,-2.5693,-2.5693,-2.5693,-2.5693,-2.5693,-2.5693,-2.5693,-2.5693,-2.5693,-2.5693,-2.5693,-2.5693,-2.5693,-2.5693,-2.5693,-2.5693,-2.5693,-2.5693,-2.5693,-2.5693,-2.5693,-2.6187,-2.6867,-2.7568,-2.7757,-2.7757,-2.7757,-2.72,-2.6733,-2.6733,-2.6733,-2.6642,-2.6243,-2.6239,-2.6367,-2.6442,-2.597,-2.5634,-2.5839,-2.5737,-2.5319,-2.441,-2.4161,-2.382,-2.3178,-2.3091,-2.3091,-2.3091,-2.3091,-2.3091,-2.3091,-2.3091,-2.3091,-2.3091,-2.3091,-2.3091,-2.3091,-2.3091,-2.3091,-2.3091,-2.3091,-2.3091,-2.3091,-2.3091,-2.3091,-2.3081,-2.2789,-2.2637,-2.2461,-2.1834,-2.1512,-2.1396,-2.0947,-2.0781,-2.0762,-2.0654,-2.0605,-2.0683,-2.8291,-2.7607,-2.7021,-2.7012,-2.6259,-2.5693,-2.5693,-2.5693,-2.5693,-2.5693,-2.5693,-2.5693,-2.5693,-2.5693,-2.5693,-2.5693,-2.5693,-2.5693,-2.5693,-2.5693,-2.5693,-2.5693,-2.5693,-2.5693,-2.5693,-2.5693,-2.5693,-2.5693,-2.5693,-2.5693,-2.5693,-2.5693,-2.5693,-2.5693,-2.5693,-2.5693,-2.5693,-2.5693,-2.5693,-2.5693,-2.5693,-2.5693,-2.5693,-2.5693,-2.5693,-2.5693,-2.5693,-2.5693,-2.5693,-2.5693,-2.5693,-2.5693,-2.5693,-2.5693,-2.5693,-2.5693,-2.5693,-2.5693,-2.5693,-2.5693,-2.5693,-2.5693,-2.5693,-2.5693,-2.5693,-2.5693,-2.5693,-2.5693,-2.5693,-2.5693,-2.5693,-2.5693,-2.5596,-2.5194,-2.5116,-2.4922,-2.4482,-2.4062,-2.3799,-2.3799,-2.3408,-2.3101,-2.3101,-2.3091,-2.3091,-2.3091,-2.3091,-2.3091,-2.3091,-2.3091,-2.3091,-2.3091,-2.3091,-2.3091,-2.3091,-2.3091,-2.3091,-2.3091,-2.3091,-2.3091,-2.3091,-2.3091,-2.3091,-2.3091,-2.3091,-2.2857,-2.2519,-2.251,-2.2266,-2.1846,-2.1375,-2.12,-2.1142,-2.0732,-2.0605,-2.0605,-2.8291,-2.7851,-2.7373,-2.707,-2.6562,-2.6094,-2.5732,-2.5693,-2.5693,-2.5693,-2.5693,-2.5693,-2.5693,-2.5693,-2.5693,-2.5693,-2.5693,-2.5693,-2.5693,-2.5693,-2.5693,-2.5693,-2.5693,-2.5693,-2.5693,-2.5693,-2.5693,-2.5693,-2.5693,-2.5693,-2.5693,-2.5693,-2.5693,-2.5693,-2.5693,-2.5693,-2.5693,-2.5693,-2.5693,-2.5693,-2.5693,-2.5693,-2.5693,-2.5693,-2.5693,-2.5693,-2.5693,-2.5693,-2.5693,-2.5693,-2.5693,-2.5693,-2.5693,-2.5693,-2.5693,-2.5693,-2.5693,-2.5693,-2.5693,-2.5693,-2.5693,-2.5693,-2.5693,-2.5693,-2.5693,-2.5693,-2.5693,-2.5693,-2.5693,-2.5693,-2.5693,-2.5693,-2.5645,-2.5557,-2.5537,-2.5381,-2.4932,-2.4812,-2.457,-2.4268,-2.3857,-2.3594,-2.3594,-2.3276,-2.3091,-2.3091,-2.3091,-2.3091,-2.3091,-2.3091,-2.3091,-2.3091,-2.3091,-2.3091,-2.3091,-2.3091,-2.3091,-2.3091,-2.3091,-2.3091,-2.3091,-2.3091,-2.3091,-2.3091,-2.3091,-2.3023,-2.2886,-2.2637,-2.2441,-2.2285,-2.1855,-2.1504,-2.1181,-2.1084,-2.083,-2.0605,-2.8291,-2.7959,-2.764,-2.7314,-2.6777,-2.6299,-2.6035,-2.5801,-2.5693,-2.5693,-2.5693,-2.5693,-2.5693,-2.5693,-2.5693,-2.5693,-2.5693,-2.5693,-2.5693,-2.5693,-2.5693,-2.5693,-2.5693,-2.5693,-2.5693,-2.5693,-2.5693,-2.5693,-2.5693,-2.5693,-2.5693,-2.5693,-2.5693,-2.5693,-2.5693,-2.5693,-2.5693,-2.5693,-2.5693,-2.5693,-2.5693,-2.5693,-2.5693,-2.5693,-2.5693,-2.5693,-2.5693,-2.5693,-2.5693,-2.5693,-2.5693,-2.5693,-2.5693,-2.5693,-2.5693,-2.5693,-2.5693,-2.5693,-2.5693,-2.5693,-2.5693,-2.5693,-2.5693,-2.5693,-2.5693,-2.5693,-2.5693,-2.5693,-2.5693,-2.5693,-2.5693,-2.5693,-2.5693,-2.5693,-2.5693,-2.5644,-2.5371,-2.5176,-2.4971,-2.4707,-2.4297,-2.4043,-2.4043,-2.3652,-2.3276,-2.311,-2.3091,-2.3091,-2.3091,-2.3091,-2.3091,-2.3091,-2.3091,-2.3091,-2.3091,-2.3091,-2.3091,-2.3091,-2.3091,-2.3091,-2.3091,-2.3091,-2.3091,-2.3091,-2.3091,-2.3091,-2.3081,-2.2818,-2.2721,-2.2715,-2.2295,-2.1973,-2.1678,-2.1553,-2.1211,-2.083,-2.8291,-2.7988,-2.7767,-2.7728,-2.7021,-2.6475,-2.6396,-2.6055,-2.5732,-2.5693,-2.5693,-2.5693,-2.5693,-2.5693,-2.5693,-2.5693,-2.5693,-2.5693,-2.5693,-2.5693,-2.5693,-2.5693,-2.5693,-2.5693,-2.5693,-2.5693,-2.5693,-2.5693,-2.5693,-2.5693,-2.5693,-2.5693,-2.5693,-2.5693,-2.5693,-2.5693,-2.5693,-2.5693,-2.5693,-2.5693,-2.5693,-2.5693,-2.5693,-2.5693,-2.5693,-2.5693,-2.5693,-2.5693,-2.5693,-2.5693,-2.5693,-2.5693,-2.5693,-2.5693,-2.5693,-2.5693,-2.5693,-2.5693,-2.5693,-2.5693,-2.5693,-2.5693,-2.5693,-2.5693,-2.5693,-2.5693,-2.5693,-2.5693,-2.5693,-2.5693,-2.5693,-2.5693,-2.5693,-2.5693,-2.5693,-2.5693,-2.5693,-2.5381,-2.5127,-2.5127,-2.4736,-2.4473,-2.4473,-2.4092,-2.3662,-2.3188,-2.3149,-2.314,-2.3091,-2.3091,-2.3091,-2.3091,-2.3091,-2.3091,-2.3091,-2.3091,-2.3091,-2.3091,-2.3091,-2.3091,-2.3091,-2.3091,-2.3091,-2.3091,-2.3091,-2.3091,-2.3091,-2.3091,-2.3091,-2.3052,-2.2715,-2.2549,-2.2471,-2.209,-2.167,-2.1249,-2.8291,-2.8223,-2.8057,-2.7777,-2.7562,-2.7209,-2.6494,-2.6309,-2.6123,-2.5732,-2.5693,-2.5693,-2.5693,-2.5693,-2.5693,-2.5693,-2.5693,-2.5693,-2.5693,-2.5693,-2.5693,-2.5693,-2.5693,-2.5693,-2.5693,-2.5693,-2.5693,-2.5693,-2.5693,-2.5693,-2.5693,-2.5693,-2.5693,-2.5693,-2.5693,-2.5693,-2.5693,-2.5693,-2.5693,-2.5693,-2.5693,-2.5693,-2.5693,-2.5693,-2.5693,-2.5693,-2.5693,-2.5693,-2.5693,-2.5693,-2.5693,-2.5693,-2.5693,-2.5693,-2.5693,-2.5693,-2.5693,-2.5693,-2.5693,-2.5693,-2.5693,-2.5693,-2.5693,-2.5693,-2.5693,-2.5693,-2.5693,-2.5693,-2.5693,-2.5693,-2.5693,-2.5693,-2.5693,-2.5693,-2.5693,-2.5693,-2.5693,-2.5606,-2.5596,-2.5596,-2.5195,-2.4969,-2.4969,-2.4531,-2.4111,-2.3682,-2.3652,-2.3496,-2.311,-2.3091,-2.3091,-2.3091,-2.3091,-2.3091,-2.3091,-2.3091,-2.3091,-2.3091,-2.3091,-2.3091,-2.3091,-2.3091,-2.3091,-2.3091,-2.3091,-2.3091,-2.3091,-2.3091,-2.3091,-2.3081,-2.2994,-2.276,-2.25,-2.2412,-2.2109,-2.1699,-2.8291,-2.8291,-2.8223,-2.7998,-2.7855,-2.7571,-2.707,-2.6816,-2.6533,-2.6103,-2.6045,-2.5967,-2.5713,-2.5693,-2.5693,-2.5693,-2.5693,-2.5693,-2.5693,-2.5693,-2.5693,-2.5693,-2.5693,-2.5693,-2.5693,-2.5693,-2.5693,-2.5693,-2.5693,-2.5693,-2.5693,-2.5693,-2.5693,-2.5693,-2.5693,-2.5693,-2.5693,-2.5693,-2.5693,-2.5693,-2.5693,-2.5693,-2.5693,-2.5693,-2.5693,-2.5693,-2.5693,-2.5693,-2.5693,-2.5693,-2.5693,-2.5693,-2.5693,-2.5693,-2.5693,-2.5693,-2.5693,-2.5693,-2.5693,-2.5693,-2.5693,-2.5693,-2.5693,-2.5693,-2.5693,-2.5693,-2.5693,-2.5693,-2.5693,-2.5693,-2.5693,-2.5693,-2.5693,-2.5693,-2.5693,-2.5693,-2.5693,-2.5693,-2.5693,-2.5693,-2.5527,-2.5303,-2.5135,-2.4863,-2.4551,-2.4121,-2.4092,-2.3994,-2.3715,-2.3564,-2.3447,-2.3447,-2.3198,-2.3091,-2.3091,-2.3091,-2.3091,-2.3091,-2.3091,-2.3091,-2.3091,-2.3091,-2.3091,-2.3091,-2.3091,-2.3091,-2.3091,-2.3091,-2.3091,-2.3091,-2.3091,-2.2955,-2.2812,-2.2812,-2.2549,-2.2119,-2.8291,-2.8291,-2.8291,-2.8291,-2.7998,-2.7806,-2.7728,-2.7363,-2.6973,-2.6553,-2.6435,-2.625,-2.584,-2.5732,-2.5693,-2.5693,-2.5693,-2.5693,-2.5693,-2.5693,-2.5693,-2.5693,-2.5693,-2.5693,-2.5693,-2.5693,-2.5693,-2.5693,-2.5693,-2.5693,-2.5693,-2.5693,-2.5693,-2.5693,-2.5693,-2.5693,-2.5693,-2.5693,-2.5693,-2.5693,-2.5693,-2.5693,-2.5693,-2.5693,-2.5693,-2.5693,-2.5693,-2.5693,-2.5693,-2.5693,-2.5693,-2.5693,-2.5693,-2.5693,-2.5693,-2.5693,-2.5693,-2.5693,-2.5693,-2.5693,-2.5693,-2.5693,-2.5693,-2.5693,-2.5693,-2.5693,-2.5693,-2.5693,-2.5693,-2.5693,-2.5693,-2.5693,-2.5693,-2.5693,-2.5693,-2.5693,-2.5693,-2.5693,-2.5693,-2.5693,-2.5693,-2.5596,-2.5215,-2.5185,-2.5,-2.456,-2.4531,-2.4492,-2.4424,-2.4082,-2.3896,-2.3851,-2.3456,-2.3188,-2.3066,-2.3066,-2.3037,-2.296,-2.296,-2.3003,-2.3091,-2.3091,-2.3091,-2.3091,-2.3091,-2.3091,-2.3091,-2.3091,-2.3091,-2.3091,-2.3091,-2.3091,-2.3091,-2.3091,-2.2877,-2.2559,-2.8291,-2.8291,-2.8291,-2.8291,-2.8252,-2.8086,-2.7777,-2.7669,-2.7422,-2.6992,-2.6621,-2.6367,-2.6309,-2.5967,-2.5693,-2.5693,-2.5693,-2.5693,-2.5693,-2.5693,-2.5693,-2.5693,-2.5693,-2.5693,-2.5693,-2.5693,-2.5693,-2.5693,-2.5693,-2.5693,-2.5693,-2.5693,-2.5693,-2.5693,-2.5693,-2.5693,-2.5693,-2.5693,-2.5693,-2.5693,-2.5693,-2.5693,-2.5693,-2.5693,-2.5693,-2.5693,-2.5693,-2.5693,-2.5693,-2.5693,-2.5693,-2.5693,-2.5693,-2.5693,-2.5693,-2.5693,-2.5693,-2.5693,-2.5693,-2.5693,-2.5693,-2.5693,-2.5693,-2.5693,-2.5693,-2.5693,-2.5693,-2.5693,-2.5693,-2.5693,-2.5693,-2.5693,-2.5693,-2.5693,-2.5693,-2.5693,-2.5693,-2.5693,-2.5693,-2.5693,-2.5693,-2.5664,-2.5606,-2.5596,-2.5459,-2.5057,-2.5028,-2.4814,-2.4434,-2.4365,-2.4188,-2.3994,-2.39,-2.3597,-2.3007,-2.3007,-2.2837,-2.2485,-2.2485,-2.2696,-2.3091,-2.3091,-2.3091,-2.3091,-2.3091,-2.3091,-2.3091,-2.3091,-2.3091,-2.3091,-2.3091,-2.3091,-2.3091,-2.3091,-2.3062,-2.2955,-2.8291,-2.8291,-2.8291,-2.8291,-2.8291,-2.8232,-2.8047,-2.8018,-2.7861,-2.7432,-2.7217,-2.6924,-2.6435,-2.5996,-2.5693,-2.5693,-2.5693,-2.5693,-2.5693,-2.5693,-2.5693,-2.5693,-2.5693,-2.5693,-2.5693,-2.5693,-2.5693,-2.5693,-2.5693,-2.5693,-2.5693,-2.5693,-2.5693,-2.5693,-2.5693,-2.5693,-2.5693,-2.5693,-2.5693,-2.5693,-2.5693,-2.5693,-2.5693,-2.5693,-2.5693,-2.5693,-2.5693,-2.5693,-2.5693,-2.5693,-2.5693,-2.5693,-2.5693,-2.5693,-2.5693,-2.5693,-2.5693,-2.5693,-2.5693,-2.5693,-2.5693,-2.5693,-2.5693,-2.5693,-2.5693,-2.5693,-2.5693,-2.5693,-2.5693,-2.5693,-2.5693,-2.5693,-2.5693,-2.5693,-2.5693,-2.5693,-2.5693,-2.5693,-2.5693,-2.5693,-2.5693,-2.5693,-2.5693,-2.5693,-2.5606,-2.5459,-2.5439,-2.5256,-2.4918,-2.4686,-2.4466,-2.4174,-2.3955,-2.3699,-2.3371,-2.3371,-2.3285,-2.3151,-2.3151,-2.2995,-2.2696,-2.2696,-2.2696,-2.2696,-2.2696,-2.2696,-2.2706,-2.2882,-2.2838,-2.2706,-2.2882,-2.2838,-2.275,-2.3013,-2.3013,-2.294]},{"header":{"parameterUnit":"m.s-1","parameterCategory":1,"la1":30.6,"la2":28.766,"lo1":-90.7593,"lo2":-88.6598,"dy":0.0162,"dx":0.0183,"nx":116,"ny":114,"refTime":"2023-05-07T00:00:00:Z","depth":0,"parameterNumber":3,"parameterNumberName":"V-component_of_WINDS"},"data":[0.0,0.0,0.0,0.0,0.0,0.0,0.0,0.0,0.0,0.0,0.0,0.0,0.0,0.0,0.0,0.0,0.0,0.0,0.0,0.0,0.0,0.0,0.0,0.0,0.0,0.0,0.0,0.0,0.0,0.0,0.0,0.0,0.0,0.0,0.0,0.0,0.0,0.0,0.0,0.0,0.0,0.0,0.0,0.0,0.0,0.0,0.0,0.0,0.0,0.0,0.0,0.0,0.0,0.0,0.0,0.0,0.0,0.0,0.0,0.0,0.0,0.0,0.0,0.0,0.0,0.0,0.0,0.0,0.0,0.0,0.0,0.0,0.0,0.0,0.0,0.0,0.0,0.0,0.0,0.0,0.0,0.0,0.0,0.0,0.0,0.0,0.0,0.0,0.0,0.0,0.0,0.0,0.0,0.0,0.0,0.0,0.0,0.0,0.0,0.0,0.0,0.0,0.0,0.0,0.0,0.0,0.0,0.0,0.0,0.0,0.0,0.0,0.0,0.0,0.0,0.0,0.0,0.0,0.0,0.0,0.0,0.0,0.0,0.0,0.0,0.0,0.0,0.0,0.0,0.0,0.0,0.0,0.0,0.0,0.0,0.0,0.0,0.0,0.0,0.0,0.0,0.0,0.0,0.0,0.0,0.0,0.0,0.0,0.0,0.0,0.0,0.0,0.0,0.0,0.0,0.0,0.0,0.0,0.0,0.0,0.0,0.0,0.0,0.0,0.0,0.0,0.0,0.0,0.0,0.0,0.0,0.0,0.0,0.0,0.0,0.0,0.0,0.0,0.0,0.0,0.0,0.0,0.0,0.0,0.0,0.0,0.0,0.0,0.0,0.0,0.0,0.0,0.0,0.0,0.0,0.0,0.0,0.0,0.0,0.0,0.0,0.0,0.0,0.0,0.0,0.0,0.0,0.0,0.0,0.0,0.0,0.0,0.0,0.0,0.0,0.0,0.0,0.0,0.0,0.0,0.0,0.0,0.0,0.0,0.0,0.0,0.0,0.0,0.0,0.0,0.0,0.0,0.0,0.0,0.0,0.0,0.0,0.0,0.0,0.0,0.0,0.0,0.0,0.0,0.0,0.0,0.0,0.0,0.0,0.0,0.0,0.0,0.0,0.0,0.0,0.0,0.0,0.0,0.0,0.0,0.0,0.0,0.0,0.0,0.0,0.0,0.0,0.0,0.0,0.0,0.0,0.0,0.0,0.0,0.0,0.0,0.0,0.0,0.0,0.0,0.0,0.0,0.0,0.0,0.0,0.0,0.0,0.0,0.0,0.0,0.0,0.0,0.0,0.0,0.0,0.0,0.0,0.0,0.0,0.0,0.0,0.0,0.0,0.0,0.0,0.0,0.0,0.0,0.0,0.0,0.0,0.0,0.0,0.0,0.0,0.0,0.0,0.0,0.0,0.0,0.0,0.0,0.0,0.0,0.0,0.0,0.0,0.0,0.0,0.0,0.0,0.0,0.0,0.0,0.0,0.0,0.0,0.0,0.0,0.0,0.0,0.0,0.0,0.0,0.0,0.0,0.0,0.0,0.0,0.0,0.0,0.0,0.0,0.0,0.0,0.0,0.0,0.0,0.0,0.0,0.0,0.0,0.0,0.0,0.0,0.0,0.0,0.0,0.0,0.0,0.0,0.0,0.0,0.0,0.0,0.0,0.0,0.0,0.0,0.0,0.0,0.0,0.0,0.0,0.0,0.0,0.0,0.0,0.0,0.0,0.0,0.0,0.0,0.0,0.0,0.0,0.0,0.0,0.0,0.0,0.0,0.0,0.0,0.0,0.0,0.0,0.0,0.0,0.0,0.0,0.0,0.0,0.0,0.0,0.0,0.0,0.0,0.0,0.0,0.0,0.0,0.0,0.0,0.0,0.0,0.0,0.0,0.0,0.0,0.0,0.0,0.0,0.0,0.0,0.0,0.0,0.0,0.0,0.0,0.0,0.0,0.0,0.0,0.0,0.0,0.0,0.0,0.0,0.0,0.0,0.0,0.0,0.0,0.0,0.0,0.0,0.0,0.0,0.0,0.0,0.0,0.0,0.0,0.0,0.0,0.0,0.0,0.0,0.0,0.0,0.0,0.0,0.0,0.0,0.0,0.0,0.0,0.0,0.0,0.0,0.0,0.0,0.0,0.0,0.0,0.0,0.0,0.0,0.0,0.0,0.0,0.0,0.0,0.0,0.0,0.0,0.0,0.0,0.0,0.0,0.0,0.0,0.0,0.0,0.0,0.0,0.0,0.0,0.0,0.0,0.0,0.0,0.0,0.0,0.0,0.0,0.0,0.0,0.0,0.0,0.0,0.0,0.0,0.0,0.0,0.0,0.0,0.0,0.0,0.0,0.0,0.0,0.0,0.0,0.0,0.0,0.0,0.0,0.0,0.0,0.0,0.0,0.0,0.0,0.0,0.0,0.0,0.0,0.0,0.0,0.0,0.0,0.0,0.0,0.0,0.0,0.0,0.0,0.0,0.0,0.0,0.0,0.0,0.0,0.0,0.0,0.0,0.0,0.0,0.0,0.0,0.0,0.0,0.0,0.0,0.0,0.0,0.0,0.0,0.0,0.0,0.0,0.0,0.0,0.0,0.0,0.0,0.0,0.0,0.0,0.0,0.0,0.0,0.0,0.0,0.0,0.0,0.0,0.0,0.0,0.0,0.0,0.0,0.0,0.0,0.0,0.0,0.0,0.0,0.0,0.0,0.0,0.0,0.0,0.0,0.0,0.0,0.0,0.0,0.0,0.0,0.0,0.0,0.0,0.0,0.0,0.0,0.0,0.0,0.0,0.0,0.0,0.0,0.0,0.0,0.0,0.0,0.0,0.0,0.0,0.0,0.0,0.0,0.0,0.0,0.0,0.0,0.0,0.0,0.0,0.0,0.0,0.0,0.0,0.0,0.0,0.0,0.0,0.0,0.0,0.0,0.0,0.0,0.0,0.0,0.0,0.0,0.0,0.0,0.0,0.0,0.0,0.0,0.0,0.0,0.0,0.0,0.0,0.0,0.0,0.0,0.0,0.0,0.0,0.0,0.0,0.0,0.0,0.0,0.0,0.0,0.0,0.0,0.0,0.0,0.0,0.0,0.0,0.0,0.0,0.0,0.0,0.0,0.0,0.0,0.0,0.0,0.0,0.0,0.0,0.0,0.0,0.0,0.0,0.0,0.0,0.0,0.0,0.0,0.0,0.0,0.0,0.0,0.0,0.0,0.0,0.0,0.0,0.0,0.0,0.0,0.0,0.0,0.0,0.0,0.0,0.0,0.0,0.0,0.0,0.0,0.0,0.0,0.0,0.0,0.0,0.0,0.0,0.0,0.0,0.0,0.0,0.0,0.0,0.0,0.0,0.0,0.0,0.0,0.0,0.0,0.0,0.0,0.0,0.0,0.0,0.0,0.0,0.0,0.0,0.0,0.0,0.0,0.0,0.0,0.0,0.0,0.0,0.0,0.0,0.0,0.0,0.0,0.0,0.0,0.0,0.0,0.0,0.0,0.0,0.0,0.0,0.0,0.0,0.0,0.0,0.0,0.0,0.0,0.0,0.0,0.0,0.0,0.0,0.0,0.0,0.0,0.0,0.0,0.0,0.0,0.0,0.0,0.0,0.0,0.0,0.0,0.0,0.0,0.0,0.0,0.0,0.0,0.0,0.0,0.0,0.0,0.0,0.0,0.0,0.0,0.0,0.0,0.0,0.0,0.0,0.0,0.0,0.0,0.0,0.0,0.0,0.0,0.0,0.0,0.0,0.0,0.0,0.0,0.0,0.0,0.0,0.0,0.0,0.0,0.0,0.0,0.0,0.0,0.0,0.0,0.0,0.0,0.0,0.0,0.0,0.0,0.0,0.0,0.0,0.0,0.0,0.0,0.0,0.0,0.0,0.0,0.0,0.0,0.0,0.0,0.0,0.0,0.0,0.0,0.0,0.0,0.0,0.0,0.0,0.0,0.0,0.0,0.0,0.0,0.0,0.0,0.0,0.0,0.0,0.0,0.0,0.0,0.0,0.0,0.0,0.0,0.0,0.0,0.0,0.0,0.0,0.0,0.0,0.0,0.0,0.0,0.0,0.0,0.0,0.0,0.0,0.0,0.0,0.0,0.0,0.0,0.0,0.0,0.0,0.0,0.0,0.0,0.0,0.0,0.0,0.0,0.0,0.0,0.0,0.0,0.0,0.0,0.0,0.0,0.0,0.0,0.0,0.0,0.0,0.0,0.0,0.0,0.0,0.0,0.0,0.0,0.0,0.0,0.0,0.0,0.0,0.0,0.0,0.0,0.0,0.0,0.0,0.0,0.0,0.0,0.0,0.0,0.0,0.0,0.0,0.0,0.0,0.0,0.0,0.0,0.0,0.0,0.0,0.0,0.0,0.0,0.0,0.0,0.0,0.0,0.0,0.0,0.0,0.0,0.0,0.0,0.0,0.0,0.0,0.0,0.0,0.0,0.0,0.0,0.0,0.0,0.0,0.0,0.0,0.0,0.0,0.0,0.0,0.0,0.0,0.0,0.0,0.0,0.0,0.0,0.0,0.0,0.0,0.0,0.0,0.0,0.0,0.0,0.0,0.0,0.0,0.0,0.0,0.0,0.0,0.0,0.0,0.0,0.0,0.0,0.0,0.0,0.0,0.0,0.0,0.0,0.0,0.0,0.0,0.0,0.0,0.0,0.0,0.0,0.0,0.0,0.0,0.0,0.0,0.0,0.0,0.0,0.0,0.0,0.0,0.0,0.0,0.0,0.0,0.0,0.0,0.0,0.0,0.0,0.0,0.0,0.0,0.0,0.0,0.0,0.0,0.0,0.0,0.0,0.0,0.0,0.0,0.0,0.0,0.0,0.0,0.0,0.0,0.0,0.0,0.0,0.0,0.0,0.0,0.0,0.0,0.0,0.0,0.0,0.0,0.0,0.0,0.0,0.0,0.0,0.0,0.0,0.0,0.0,0.0,0.0,0.0,0.0,0.0,0.0,0.0,0.0,0.0,0.0,0.0,0.0,0.0,0.0,0.0,0.0,0.0,0.0,0.0,0.0,0.0,0.0,0.0,0.0,0.0,0.0,0.0,0.0,0.0,0.0,0.0,0.0,0.0,0.0,0.0,0.0,0.0,0.0,0.0,0.0,0.0,0.0,0.0,0.0,0.0,0.0,0.0,0.0,0.0,0.0,0.0,0.0,0.0,0.0,0.0,0.0,0.0,0.0,0.0,0.0,0.0,0.0,0.0,0.0,0.0,0.0,0.0,0.0,0.0,0.0,0.0,0.0,0.0,0.0,0.0,0.0,0.0,0.0,0.0,0.0,0.0,0.0,0.0,0.0,0.0,0.0,0.0,0.0,0.0,0.0,0.0,0.0,0.0,0.0,0.0,0.0,0.0,0.0,0.0,0.0,0.0,0.0,0.0,0.0,0.0,0.0,0.0,0.0,0.0,0.0,0.0,0.0,0.0,0.0,0.0,0.0,0.0,0.0,0.0,0.0,0.0,0.0,0.0,0.0,0.0,0.0,0.0,0.0,0.0,0.0,0.0,0.0,0.0,0.0,0.0,0.0,0.0,0.0,0.0,0.0,0.0,0.0,0.0,0.0,0.0,0.0,0.0,0.0,0.0,0.0,0.0,0.0,0.0,0.0,0.0,0.0,0.0,0.0,0.0,0.0,0.0,0.0,0.0,0.0,0.0,0.0,0.0,0.0,0.0,0.0,0.0,0.0,0.0,0.0,0.0,0.0,0.0,0.0,0.0,0.0,0.0,0.0,0.0,0.0,0.0,0.0,0.0,0.0,0.0,0.0,0.0,0.0,0.0,0.0,0.0,0.0,0.0,0.0,0.0,0.0,0.0,0.0,0.0,0.0,0.0,0.0,0.0,0.0,0.0,0.0,0.0,0.0,0.0,0.0,0.0,0.0,0.0,0.0,0.0,0.0,0.0,0.0,0.0,0.0,0.0,0.0,0.0,0.0,0.0,0.0,0.0,0.0,0.0,0.0,0.0,0.0,0.0,0.0,0.0,0.0,0.0,0.0,0.0,0.0,0.0,0.0,0.0,0.0,0.0,0.0,0.0,0.0,0.0,0.0,0.0,0.0,0.0,0.0,0.0,0.0,0.0,0.0,0.0,0.0,0.0,0.2279,0.147,0.0,0.0,0.0,0.0,0.0,0.0,0.0,0.0,0.0,0.0,0.0,0.0,0.0,0.0,0.0,0.0,0.0,0.0,0.0,0.0,0.0,0.0,0.0,0.0,0.0,0.0,0.0,0.0,0.0,0.0,0.0,0.0,0.0,0.0,0.0,0.0,0.0,0.0,2.5963,2.5475,2.4647,2.4399,2.3717,2.2673,0.0,0.0,0.0,0.0,0.0,0.0,0.0,0.0,0.0,0.0,0.0,0.0,0.0,0.0,0.0,0.0,0.0,0.0,0.0,0.0,0.0,0.0,0.0,0.0,0.0,0.0,0.0,0.0,0.0,0.0,0.0,0.0,0.0,0.0,0.0,0.0,0.0,0.0,0.0,0.0,0.0,0.0,0.0,0.0,0.0,0.0,0.0,0.0,0.0,0.0,0.0,0.0,0.0,0.0,0.0,0.0,0.0,0.0,0.0,0.0,0.0,0.0,0.0,0.0,0.0,0.0,0.0,0.0,0.0,0.0,0.2818,0.1874,0.0,0.0,0.0,0.0,0.0,0.0,0.0,0.0,0.0,0.0,0.0,0.0,0.0,0.0,0.0,0.0,0.0,0.0,0.0,0.0,0.0,0.0,0.0,0.0,2.9097,2.9097,2.9066,2.9048,0.0,0.0,0.0,0.0,0.0,0.0,0.0,2.8588,2.833,2.7769,2.7604,2.7149,2.6427,2.565,2.4779,2.3881,2.2579,0.0,0.0,0.0,0.0,0.0,0.0,0.0,0.0,0.0,0.0,0.0,0.0,0.0,0.0,0.0,0.0,0.0,0.0,0.0,0.0,0.0,0.0,0.0,0.0,0.0,0.0,0.0,0.0,0.0,0.0,0.0,0.0,0.0,0.0,0.0,0.0,0.0,0.0,0.0,0.0,0.0,0.0,0.0,0.0,0.0,0.0,0.0,0.0,0.0,0.0,0.0,0.0,0.0,0.0,0.0,0.0,0.0,0.0,0.0,0.0,0.0,0.0,0.0,0.7117,0.6546,0.6415,0.542,0.4849,0.4585,0.3803,0.2795,0.1659,0.148,0.0,0.0,0.0,0.0,0.0,0.0,0.0,0.0,0.0,0.0,0.0,0.0,0.0,0.0,0.0,0.0,0.0,0.0,0.0,0.0,0.0,2.9442,2.9442,2.9442,2.9314,2.9265,0.0,0.0,0.0,0.0,0.0,0.0,0.0,2.8939,2.8907,2.8812,2.878,2.8716,2.8588,2.7894,2.7298,2.6735,2.4339,2.3257,2.322,0.0,0.0,0.0,0.0,0.0,0.0,0.0,0.0,0.0,0.0,0.0,0.0,0.0,0.0,0.0,0.0,0.0,0.0,0.0,0.0,0.0,0.0,0.0,0.0,0.0,0.0,0.0,0.0,0.0,0.0,0.0,0.0,0.0,0.0,0.0,0.0,0.0,0.0,0.0,0.0,0.0,1.633,1.6034,0.0,0.0,0.0,0.0,0.0,0.0,0.0,0.0,0.0,0.0,0.0,0.0,0.0,0.9176,0.8988,0.894,0.8869,0.8762,0.8188,0.8049,0.8174,0.771,0.693,0.5957,0.5813,0.0,0.2644,0.1749,0.0,0.0,0.0,0.0,0.0,0.0,0.0,0.0,0.0,0.0,0.0,0.0,0.0,0.0,0.0,0.0,0.0,0.0,0.0,0.0,0.0,3.163,3.1797,3.1797,3.1756,3.1728,3.1728,3.1274,0.0,0.0,0.0,3.0238,3.0162,3.0238,3.0103,2.9662,2.9289,2.9069,2.9002,2.8716,2.8266,2.7677,2.6553,2.5344,2.4145,2.3588,0.0,0.0,0.0,0.0,0.0,0.0,0.0,0.0,0.0,0.0,0.0,0.0,0.0,0.0,0.0,0.0,0.0,0.0,0.0,0.0,0.0,0.0,0.0,0.0,0.0,0.0,0.0,0.0,0.0,0.0,0.0,0.0,0.0,0.0,0.0,0.0,0.0,0.0,0.0,1.6499,1.6235,1.5712,1.5337,1.4754,0.0,0.0,0.0,0.0,0.0,0.0,0.0,0.0,0.0,0.9096,0.931,0.9356,0.9212,0.9312,0.9253,0.9133,0.8913,0.8769,0.873,0.8581,0.8157,0.7446,0.6958,0.5947,0.4618,0.2938,0.1928,0.1391,0.0,0.0,0.0,0.0,0.1391,0.1391,0.0,0.0,0.0,0.0,0.0,0.0,0.0,0.0,0.0,0.0,0.0,0.0,3.2986,3.3365,3.3582,3.3582,3.3582,3.3582,3.3582,3.3145,0.0,0.0,0.0,3.1638,3.1538,3.1496,3.1219,3.0659,3.0151,2.9877,2.9768,2.9583,2.9209,2.8639,2.846,2.7185,2.517,2.4505,2.4097,2.3854,0.0,0.0,0.0,0.0,0.0,0.0,0.0,0.0,0.0,0.0,0.0,0.0,0.0,0.0,0.0,0.0,0.0,0.0,0.0,0.0,0.0,0.0,0.0,0.0,0.0,0.0,0.0,0.0,0.0,0.0,0.0,0.0,0.0,0.0,0.0,0.0,0.0,1.6411,1.6272,1.584,1.5944,1.56,0.0,0.0,0.0,0.0,0.0,0.0,0.9527,0.9298,0.9234,0.9234,0.9401,0.9539,0.9539,0.9673,0.969,0.9587,0.9536,0.94,0.9235,0.9184,0.8987,0.8708,0.7999,0.7165,0.6197,0.3921,0.2534,0.1749,0.148,0.1391,0.1391,0.1391,0.1391,0.1391,0.0,0.0,0.0,0.0,0.0,0.0,0.0,0.0,0.0,0.0,0.0,3.3556,3.3556,3.3582,3.3582,3.3582,3.3582,3.3582,3.3582,3.3572,3.3547,3.3531,3.3013,3.2707,3.2707,3.2203,3.194,3.1896,3.1868,3.1868,3.184,3.1204,3.0719,3.0346,2.9707,2.8363,2.6577,2.6346,2.5744,2.4898,2.4719,0.0,0.0,0.0,0.0,0.0,0.0,0.0,0.0,0.0,0.0,0.0,0.0,0.0,0.0,0.0,0.0,0.0,0.0,0.0,0.0,0.0,0.0,0.0,0.0,0.0,0.0,0.0,0.0,0.0,0.0,0.0,0.0,0.0,0.0,0.0,0.0,0.0,0.0,1.6793,1.7062,0.0,0.0,0.0,0.0,1.4636,1.3298,1.2195,1.1332,1.0177,0.955,0.955,0.9766,0.9855,0.9855,1.0094,1.0221,1.0342,1.0117,1.0042,1.0202,0.9874,0.96,0.9358,0.9306,0.8313,0.6571,0.425,0.3108,0.2732,0.1793,0.1391,0.1391,0.1391,0.1391,0.1391,0.0,0.0,0.0,0.0,0.0,0.0,0.0,0.0,3.3365,3.3684,3.4037,3.4284,3.4366,3.4769,3.4981,3.4887,3.4958,3.4981,3.4887,3.4496,3.4235,3.4235,3.3633,3.3365,3.3443,3.3277,3.2986,3.2641,3.2641,3.2425,3.1996,3.1768,3.1349,3.0822,3.057,2.9785,2.8593,2.7776,2.6981,2.6267,2.5931,2.5627,0.0,0.0,0.0,0.0,0.0,0.0,0.0,0.0,0.0,0.0,0.0,0.0,0.0,0.0,0.0,0.0,0.0,0.0,0.0,0.0,0.0,0.0,0.0,0.0,0.0,0.0,0.0,0.0,0.0,0.0,0.0,0.0,0.0,0.0,0.0,0.0,0.0,1.7121,1.726,0.0,1.6979,1.673,1.6103,1.4943,1.434,1.3242,1.1482,1.1069,1.049,0.9632,0.9795,0.9884,0.9884,1.0184,1.0371,1.0383,1.0434,1.0463,1.0527,1.0417,1.0245,0.9965,0.9965,0.9358,0.8132,0.6451,0.4687,0.2918,0.1848,0.1391,0.1391,0.1391,0.1391,0.1391,0.0,0.0,0.0,0.0,0.0,0.0,0.0,0.0,3.4062,3.4374,3.4752,3.5052,3.5115,3.556,3.5822,3.5734,3.5839,3.5822,3.5734,3.5322,3.5081,3.5081,3.4479,3.4112,3.4012,3.4012,3.3836,3.3453,3.3453,3.3145,3.2547,3.2492,3.2117,3.1478,3.1436,3.0925,3.009,2.932,2.8524,2.7683,2.7183,2.6934,2.6879,0.0,0.0,0.0,0.0,0.0,0.0,0.0,0.0,0.0,0.0,0.0,0.0,0.0,0.0,0.0,0.0,0.0,0.0,0.0,0.0,0.0,0.0,0.0,0.0,0.0,0.0,0.0,0.0,0.0,0.0,0.0,0.0,0.0,0.0,1.7567,1.7465,1.7786,1.7918,1.785,1.7514,1.7307,1.6767,1.5725,1.5208,1.4237,1.2683,1.1978,1.124,1.036,1.012,0.9977,0.9977,1.0221,1.0375,1.0383,1.055,1.0635,1.0692,1.0692,1.0582,1.0421,1.0421,0.9996,0.9248,0.7912,0.619,0.4223,0.2535,0.1928,0.1883,0.1524,0.1391,0.1391,0.0,0.0,0.0,0.0,0.0,0.0,0.0,3.4544,3.4854,3.5515,3.5728,3.5795,3.5795,3.5932,3.6019,3.6019,3.6041,3.6041,3.6041,3.6041,3.6019,3.5997,3.5504,3.4971,3.4455,3.4455,3.4431,3.4431,3.4431,3.4161,3.3608,3.3479,3.3066,3.2437,3.2287,3.1794,3.1057,3.1028,3.0362,2.923,2.8382,2.8051,2.7953,0.0,0.0,0.0,0.0,0.0,0.0,0.0,0.0,0.0,0.0,0.0,0.0,0.0,0.0,0.0,0.0,0.0,0.0,0.0,0.0,0.0,0.0,0.0,0.0,0.0,0.0,0.0,0.0,0.0,0.0,0.0,0.0,0.0,1.9112,1.8571,1.8473,1.8752,1.906,1.9022,1.8462,1.8382,1.8051,1.7191,1.6098,1.5323,1.5008,1.2971,1.1747,1.169,1.0763,1.0196,1.0196,1.0204,1.0241,1.0362,1.037,1.0517,1.0684,1.0684,1.0688,1.0692,1.0684,1.0377,0.9719,0.8395,0.7498,0.6708,0.4,0.2913,0.2778,0.1793,0.1436,0.1391,0.0,0.0,0.0,0.0,0.0,0.0,0.0,3.5218,3.5385,3.5577,3.5728,3.5795,3.5795,3.6224,3.6498,3.6454,3.6744,3.6923,3.6862,3.66,3.6287,3.6019,3.5849,3.5722,3.5549,3.5549,3.5374,3.4971,3.4971,3.4712,3.4186,3.4137,3.3811,3.3261,3.3119,3.2734,3.2132,3.1936,3.1665,3.1246,2.9801,2.9164,2.9066,0.0,0.0,0.0,0.0,0.0,0.0,0.0,0.0,0.0,0.0,0.0,0.0,0.0,0.0,0.0,0.0,0.0,0.0,0.0,0.0,0.0,0.0,0.0,0.0,0.0,0.0,0.0,0.0,0.0,0.0,0.0,2.3681,2.2704,2.0313,1.9681,1.9284,1.8846,1.8657,1.849,1.8345,1.8146,1.7967,1.7676,1.7014,1.6158,1.5134,1.4284,1.3109,1.1399,1.1051,1.0558,0.9774,0.99,0.9985,1.0038,1.0172,1.0331,1.0505,1.0505,1.0574,1.0684,1.0558,1.0322,1.002,0.9084,0.8475,0.7876,0.4675,0.3401,0.3312,0.2332,0.1839,0.166,0.0,0.0,0.0,0.0,0.0,0.0,0.0,3.5481,3.56,3.56,3.5773,3.5866,3.5866,3.6416,3.6764,3.6721,3.7116,3.736,3.7322,3.7114,3.6821,3.6489,3.6468,3.6406,3.6293,3.6293,3.6148,3.5837,3.5837,3.5537,3.5025,3.4915,3.4583,3.4087,3.3912,3.3649,3.3345,3.2949,3.2734,3.2598,3.1405,3.0615,3.0058,2.9538,2.9272,2.9192,2.9066,2.9002,2.8907,2.8427,0.0,0.0,0.0,0.0,0.0,0.0,0.0,0.0,0.0,0.0,0.0,0.0,0.0,0.0,0.0,0.0,0.0,0.0,0.0,0.0,0.0,0.0,0.0,0.0,2.4934,2.4212,2.2261,2.0998,2.0025,1.9311,1.8657,1.8247,1.8108,1.7954,1.7757,1.7538,1.7232,1.6655,1.5783,1.5141,1.4194,1.2818,1.2285,1.1468,1.0453,1.046,1.0259,0.9888,1.0045,1.0144,1.0322,1.0346,1.0448,1.0469,1.0444,1.0245,0.9908,0.9372,0.9017,0.8479,0.0,0.0,0.0,0.0,0.2109,0.193,0.0,0.0,0.0,0.0,0.0,0.0,0.0,3.5435,3.56,3.5622,3.5844,3.5997,3.6019,3.6536,3.6919,3.6958,3.7339,3.7578,3.7596,3.7596,3.7432,3.7129,3.711,3.6992,3.6766,3.6766,3.6766,3.6766,3.6766,3.6489,3.5994,3.5759,3.5369,3.4908,3.4648,3.4503,3.4406,3.3912,3.3608,3.3469,3.298,3.2117,3.1043,3.0149,2.9782,2.9766,2.9512,2.9415,2.9429,2.9372,0.0,0.0,0.0,0.0,0.0,0.0,0.0,0.0,0.0,0.0,0.0,0.0,0.0,0.0,0.0,0.0,0.0,0.0,0.0,0.0,0.0,0.0,0.0,0.0,2.5787,2.553,2.4555,2.2602,2.0925,2.0037,1.9045,1.8329,1.7896,1.7874,1.7661,1.7196,1.7134,1.6985,1.6741,1.5817,0.0,0.0,0.0,1.2856,1.1755,1.1414,1.0825,1.0054,0.9906,0.9953,1.0188,1.0298,1.0294,1.0224,1.031,1.0035,0.9562,0.9409,0.9116,0.864,0.7091,0.5841,0.4732,0.3001,0.2333,0.2243,0.0,0.0,0.0,0.0,0.0,0.0,0.0,3.5155,3.5644,3.5751,3.5888,3.6041,3.6144,3.6615,3.7036,3.7358,3.7738,3.8016,3.8064,3.8064,3.7808,3.7207,3.7188,3.715,3.711,3.711,3.711,3.711,3.7094,3.6898,3.6544,3.6502,3.6178,3.5671,3.5414,3.5071,3.4712,3.4382,3.4235,3.4186,3.3962,3.313,3.1951,3.1766,3.1623,3.1569,3.1872,3.199,3.1944,3.1671,3.1951,3.2235,3.1422,3.155,0.0,0.0,0.0,0.0,0.0,0.0,0.0,0.0,0.0,0.0,0.0,0.0,0.0,0.0,0.0,0.0,0.0,0.0,0.0,2.6822,2.6661,2.6279,2.5886,2.4783,2.3157,2.09,2.0003,1.9228,1.8309,1.8211,1.8182,1.8074,1.7829,1.7689,1.7633,1.7288,1.6567,1.5437,1.5187,1.4345,1.2829,1.195,1.134,1.0941,1.0065,0.0,0.9941,0.9977,1.0054,1.0208,1.0038,0.9855,0.9554,0.9279,0.8938,0.8524,0.7415,0.5938,0.4385,0.3805,0.3093,0.2424,0.0,0.0,0.0,0.0,0.0,0.0,0.0,3.4857,3.5316,3.5644,3.5866,3.6019,3.6101,3.6577,3.7075,3.7469,3.8083,3.846,3.8507,3.8538,3.8247,3.7578,3.7542,3.7414,3.7108,3.7108,3.7108,3.7108,3.711,3.7011,3.6846,3.6786,3.6609,3.6329,3.6182,3.5929,3.5604,3.5209,3.4978,3.4878,3.4528,3.3962,3.3235,3.2761,3.2598,3.2599,3.2788,3.3019,3.3276,3.3398,3.3638,3.3768,3.3331,3.3539,3.3705,0.0,0.0,0.0,0.0,0.0,0.0,0.0,0.0,0.0,0.0,0.0,0.0,0.0,0.0,2.6732,2.72,0.0,2.6687,2.6926,2.6957,2.6827,2.645,2.6098,2.4919,2.2412,2.0895,1.9828,1.9161,1.8636,1.8299,1.8299,1.8158,1.8108,1.8108,1.8009,1.7633,1.6923,1.6626,1.5833,1.451,1.3701,1.2963,1.2328,1.1799,1.1614,1.1668,1.1239,1.0992,1.0891,1.0344,0.9892,0.9462,0.9104,0.8804,0.8568,0.8032,0.6962,0.5586,0.4474,0.3807,0.3318,0.0,0.0,0.0,0.0,0.0,0.0,0.0,3.4766,3.5164,3.5594,3.5822,3.5975,3.6019,3.6471,3.6919,3.7358,3.8117,3.8572,3.8603,3.8649,3.8457,3.7963,3.7946,3.7756,3.7319,3.7242,3.7204,3.7204,3.7145,3.7068,3.7007,3.6888,3.6849,3.6849,3.6766,3.6643,3.6502,3.6054,3.5754,3.5532,3.5105,3.4767,3.4503,3.3735,3.341,3.3413,3.3395,3.377,3.4364,3.4936,3.5234,3.5389,3.537,3.5605,3.5631,3.4242,3.4001,0.0,0.0,0.0,0.0,0.0,0.0,0.0,0.0,3.1065,3.0513,3.086,2.9606,2.8483,2.8648,2.8006,2.7259,2.6791,2.6988,2.7071,2.6791,2.6892,2.6282,2.4314,2.2153,2.0655,2.0223,1.917,1.8489,1.8489,1.8489,1.8489,1.8489,1.8489,1.846,1.8401,1.7956,1.7211,1.6184,1.5525,1.47,1.3776,1.3584,1.3482,1.3494,1.2773,1.2171,1.1619,1.0685,0.9953,0.9374,0.9046,0.8763,0.8612,0.8612,0.812,0.7183,0.5453,0.461,0.421,0.0,0.0,0.0,0.0,0.0,0.0,0.0,0.0,3.578,3.5791,3.5795,3.5905,3.6144,3.6229,3.6468,3.6919,3.7377,3.7721,3.7912,3.7929,3.7964,3.8066,3.8085,3.8183,3.8423,3.8133,3.7983,3.7983,3.7632,3.7282,3.7007,3.697,3.6987,3.6968,3.6849,3.6745,3.6681,3.6502,3.6322,3.6195,3.6084,3.5722,3.5266,3.5058,3.4676,3.4304,3.4657,3.527,3.6026,3.6552,3.7521,3.8489,3.8497,3.8792,3.8949,3.7833,3.7428,3.6915,3.5144,3.4121,3.3533,3.3478,3.3322,3.3166,0.0,3.2284,3.1468,3.1484,3.0674,2.9693,2.8841,2.8283,2.7753,2.7306,2.6926,2.6822,2.7185,2.7231,2.7088,2.6567,2.4205,2.2205,2.1215,1.9972,1.9169,1.9169,1.9169,1.9169,1.9169,1.9169,1.903,1.8745,1.8701,1.8209,1.7251,1.6261,1.5467,1.48,1.3926,1.3482,1.3482,1.342,1.2786,1.1794,1.0624,0.9871,0.9482,0.9266,0.8942,0.8612,0.8612,0.8524,0.83,0.7187,0.5719,0.43,0.0,0.0,0.0,0.0,0.0,0.0,0.0,0.0,0.0,3.5761,3.5555,3.5492,3.5927,3.6284,3.66,3.688,3.7303,3.7596,3.7685,3.779,3.7808,3.7685,3.7739,3.7739,3.7667,3.7523,3.7449,3.7449,3.7281,3.7147,3.7007,3.7007,3.7007,3.6989,3.6869,3.6748,3.6702,3.6544,3.6423,3.6301,3.6276,3.6131,3.5902,3.581,3.5688,3.5529,3.5308,3.5881,0.0,3.7506,3.8275,3.9059,3.9469,3.9733,3.9646,3.8576,3.8227,3.7738,3.5909,3.469,3.3937,3.3937,3.3768,3.3556,3.3556,3.3074,3.2643,3.2643,3.1789,3.0711,2.9761,2.8918,2.8171,2.741,2.7143,2.7092,2.7278,2.7309,2.7262,2.7129,2.546,2.3822,2.2584,2.1387,2.038,1.9576,1.9524,1.948,1.9331,1.9279,1.9213,1.9074,1.8884,1.8519,1.7913,1.7315,1.6773,1.6332,1.5886,1.569,1.569,1.5121,1.3872,1.2091,1.1419,1.0582,0.9689,0.9561,0.9354,0.8999,0.8999,0.8999,0.8867,0.7584,0.6609,0.5764,0.0,0.0,0.0,0.0,0.0,0.0,0.0,0.0,0.0,0.0,3.5382,3.5412,3.5812,3.6266,3.66,3.6721,3.7038,3.7266,3.7284,3.7469,3.7523,3.7394,3.745,3.745,3.7318,3.7185,3.7147,3.7147,3.7048,3.7007,3.7007,3.7007,3.7007,3.6989,3.6869,3.6748,3.6702,3.6544,3.6423,3.6301,3.6301,3.628,3.6255,3.6062,3.6142,3.6277,3.5786,3.6444,3.7636,3.8126,3.8794,3.9501,3.9969,4.0101,3.9945,3.9154,3.8686,3.8063,3.6464,3.5305,3.4481,3.4243,3.3992,3.381,3.381,3.3641,3.3471,3.3471,3.2729,3.1789,3.089,2.9852,2.8806,2.7857,2.7489,2.7309,2.7309,2.7309,2.7309,2.7309,2.6456,2.5363,2.4088,2.2584,2.1438,2.0731,2.0078,1.9783,1.9931,1.9532,1.9324,1.9428,1.9096,1.8767,1.8438,1.8116,1.7786,1.7465,1.7323,1.7279,1.7279,1.6278,1.4883,1.3204,1.2431,1.1464,1.0334,1.0014,0.9654,0.9305,0.9305,0.9305,0.917,0.8113,0.7492,0.7003,0.0,0.0,0.0,0.0,0.0,0.0,0.0,0.0,0.0,0.0,0.0,0.0,0.0,3.6122,3.6251,3.6322,3.6343,3.6385,3.6527,3.6664,3.693,3.7394,3.745,3.7667,3.8051,3.7685,3.7487,3.7487,3.7166,3.7007,3.7007,3.7007,3.7007,3.6989,3.6869,3.6748,3.6702,3.6544,3.6423,3.6301,3.6301,3.6255,3.6144,3.5616,3.575,3.6198,3.6172,3.7171,3.8444,3.846,3.9367,4.0474,4.0489,4.0401,4.0277,4.0261,3.9385,3.819,3.7151,3.6281,3.5467,3.4592,3.4243,3.4076,3.4076,3.3894,3.367,3.367,3.3513,3.3043,3.212,3.0935,2.9852,2.8817,2.7904,2.7309,2.7309,2.7309,2.7309,2.7309,2.7262,2.6812,2.5742,2.3244,2.2089,2.3135,2.1038,2.0285,2.154,2.013,1.9428,1.968,1.942,1.9103,1.8774,1.8452,1.8123,1.7794,1.7479,1.7279,1.7279,1.6278,1.5751,1.5555,1.3542,1.2321,1.166,1.0611,0.9831,0.9305,0.9305,0.9305,0.9305,0.9262,0.8508,0.7489,0.0,0.0,0.0,0.0,0.0,0.0,0.0,0.0,0.0,0.0,0.0,0.0,0.0,0.0,0.0,0.0,3.6259,3.6322,3.6364,3.6502,3.6667,3.6911,3.6992,3.7129,3.7374,3.7242,3.7166,3.7166,3.7048,3.7007,3.7007,3.7007,3.7007,3.6987,3.6809,3.6705,3.6681,3.6444,3.6174,3.5832,3.5749,3.5487,3.5105,3.483,3.5384,3.631,0.0,3.7255,3.8585,3.9031,3.9751,4.0489,4.0489,4.047,4.0401,4.0347,3.9193,3.7799,3.7229,3.6159,3.5034,3.4541,3.4356,3.4314,3.4314,3.4118,3.3992,3.3992,3.3768,3.333,3.2358,3.1865,3.1057,2.9418,2.8795,2.8269,2.7584,2.7394,2.7309,2.7309,2.7309,2.7156,2.6822,2.5275,2.4137,2.3592,2.2131,2.1438,2.1692,2.0534,1.9879,1.9983,1.9732,1.942,1.9093,1.8567,1.8138,1.7808,1.7479,1.7279,1.7279,1.6943,1.6419,1.5751,1.508,1.3779,1.216,1.1677,1.0854,0.9932,0.9832,0.9781,0.9781,0.9781,0.9384,0.8763,0.0,0.0,0.0,0.0,0.0,0.0,0.0,0.0,0.0,0.0,0.0,0.0,0.0,0.0,0.0,0.0,0.0,3.6255,3.6255,3.6402,3.6544,3.6623,3.6728,3.6849,3.6928,3.6987,3.7007,3.7007,3.7007,3.7007,3.7007,3.7007,3.697,3.6928,3.6766,3.6664,3.6602,3.6216,3.5854,3.5487,3.522,3.498,3.4783,3.4511,3.5358,0.0,3.6768,3.767,3.8939,3.9336,3.9936,4.0489,4.0489,4.0489,4.0409,4.0025,3.9093,3.8103,3.7554,3.6376,3.5313,3.5035,3.4675,3.4397,3.4397,3.4314,3.4202,3.4202,3.4021,3.367,3.3048,3.2575,3.1896,3.0631,3.0045,2.9326,2.8258,2.8034,2.7762,2.7347,2.7309,2.7309,2.7309,2.6668,2.5926,2.5031,2.3534,2.2793,2.3085,2.1591,2.0731,2.0834,2.0181,1.973,1.9511,1.8818,1.8169,1.764,1.7381,1.7279,1.7279,1.7279,1.6943,1.6325,1.594,1.4927,1.3438,1.2487,1.1621,1.0781,1.0207,0.9994,0.9994,0.9994,0.9907,0.9602,0.0,0.0,0.0,0.0,0.0,0.0,0.0,0.0,0.0,0.0,0.0,0.0,0.0,0.0,0.0,0.0,0.0,0.0,3.6122,3.6314,3.6402,3.6423,3.6629,3.6751,3.6751,3.6911,3.6989,3.7007,3.7007,3.7007,3.6987,3.6968,3.6871,3.6751,3.6664,3.6523,3.6381,3.5793,3.5476,3.531,3.4809,3.4808,3.513,3.4606,3.5628,3.7334,3.7435,3.8385,3.9536,3.9536,3.9967,4.0489,4.0489,4.0474,4.0286,3.9474,3.9191,3.8956,3.7964,3.6989,3.6197,3.6064,3.5196,3.4439,3.4439,3.4397,3.4397,3.4397,3.4243,3.4118,3.4118,3.3189,3.2389,3.2345,3.1464,3.0428,2.9303,2.9084,2.8585,2.7441,2.7309,2.7309,2.7309,2.7309,2.7309,2.7309,2.5129,2.4344,2.5645,2.3235,2.1937,2.2089,2.0885,2.0181,2.013,1.9165,1.826,1.7326,1.7326,1.7333,1.7279,1.7333,1.7333,1.7232,1.6278,1.5738,1.5371,1.3146,1.2129,1.1766,1.0572,1.0091,1.0081,1.0038,0.9994,0.9951,0.0,0.0,0.0,0.0,0.0,0.0,0.0,0.0,0.0,0.0,0.0,0.0,0.0,0.0,0.0,0.0,0.0,0.0,3.4995,3.5065,3.518,3.538,3.5759,3.6079,3.6284,3.6652,3.6908,3.7007,3.7007,3.6948,3.6831,3.6492,3.6245,3.6101,3.5627,3.5357,3.522,3.4948,3.484,3.4764,3.4549,3.46,3.4811,3.4571,3.5715,3.7467,3.7494,3.8692,4.0243,4.0243,4.0351,4.0489,4.0489,4.0151,3.9705,3.9487,3.9087,3.858,3.8057,3.7303,3.6589,3.63,3.544,3.4714,3.4714,3.4535,3.4397,3.4397,3.4356,3.4314,3.4314,3.405,3.3658,3.295,3.1828,3.0765,2.9761,2.8678,2.7857,2.7536,2.7404,2.7309,2.7309,2.7309,2.7309,2.7309,2.5984,2.5343,2.5693,2.4285,2.3144,2.2417,2.1844,2.1191,2.0411,1.9272,1.8308,1.7581,1.7581,1.7481,1.7333,1.7527,1.7481,1.7279,1.7044,1.6472,1.5665,1.4909,1.3987,1.2952,1.1771,1.1177,1.0895,1.0255,0.9994,0.9994,0.0,0.0,0.0,0.0,0.0,0.0,0.0,0.0,0.0,0.0,0.0,0.0,0.0,0.0,0.0,0.0,0.0,0.0,0.0,3.4479,3.46,3.4807,3.5117,3.5408,3.5604,3.5912,3.6105,3.6151,3.6151,3.6126,3.6062,3.5786,3.5565,3.5408,3.5065,3.4807,3.4576,3.4005,3.3882,0.0,0.0,3.3556,3.4105,3.4281,3.5437,3.6952,3.7237,3.8242,3.9499,3.9849,4.0231,4.0489,4.0489,4.0028,3.9428,3.917,3.88,3.8371,3.7828,3.7243,3.6739,3.6496,3.5696,3.4921,3.4797,3.4673,3.4535,3.4439,3.4397,3.4397,3.4397,3.4397,3.423,3.3687,3.3036,3.2103,3.0609,2.9704,2.8806,2.7726,2.7499,2.7404,2.7309,2.7309,2.7309,2.7309,2.6716,2.638,2.638,2.5382,2.455,2.3908,2.3294,2.2315,2.1024,1.9685,1.873,1.8072,1.7929,1.7807,1.766,1.7807,1.7714,1.7481,1.7481,1.7145,1.6586,1.5954,1.5145,1.4212,1.3004,1.2051,1.1241,1.0766,1.0337,0.9994,0.0,0.0,0.0,0.0,0.0,0.0,0.0,0.0,0.0,0.0,0.0,0.0,0.0,0.0,0.0,0.0,0.0,0.0,0.0,0.0,0.0,3.4244,3.4414,3.4624,3.483,3.4962,3.5038,3.5061,3.4975,3.4912,3.4888,3.4754,3.4565,3.4398,3.4309,3.4137,3.3838,3.2933,3.2807,3.3094,3.2181,3.246,3.3492,0.0,0.0,3.6301,3.6976,3.7599,3.8213,3.8891,3.9692,4.037,4.0455,4.0028,3.9367,3.8816,3.8646,3.8466,3.7665,3.7204,3.6914,3.6718,3.5884,3.5086,3.488,3.4797,3.4714,3.4452,3.4397,3.4397,3.4397,3.4397,3.4397,3.4397,3.4314,3.3518,3.1521,3.1134,3.0192,2.7951,2.7678,2.7584,2.7357,2.7357,2.7309,2.7309,2.7309,2.7309,2.7309,2.6428,2.5839,2.5693,2.4639,2.3395,2.1878,2.0419,1.9452,1.8869,1.8387,1.8133,1.8087,1.8133,1.8001,1.7768,1.7768,1.7768,1.7652,1.6604,1.5973,1.5569,1.4291,1.297,1.1748,1.1462,1.0852,1.0168,0.0,0.0,0.0,0.0,0.0,0.0,0.0,0.0,0.0,0.0,3.2006,3.2479,0.0,0.0,0.0,0.0,0.0,0.0,0.0,0.0,0.0,3.236,3.2828,3.3354,3.3987,3.4406,3.4653,3.4764,3.4275,3.3974,3.385,3.2898,3.2381,3.2206,3.1754,3.1488,3.1376,3.1664,3.2074,3.2566,3.2899,3.347,3.4177,3.4815,0.0,0.0,3.752,3.7999,3.8138,3.825,3.8855,3.9621,4.0301,4.0028,3.9459,3.9351,3.9339,3.9155,3.8342,3.8009,3.7708,3.7011,3.6084,3.5318,3.5086,3.4921,3.4714,3.4452,3.4397,3.4397,3.4397,3.4397,3.4397,3.4397,3.3729,3.2852,3.1709,3.0643,2.9589,2.8384,2.8055,2.7809,2.7584,2.7536,2.7499,2.7309,2.7309,2.7309,2.7309,2.7109,2.662,2.5742,2.4639,2.3846,2.3241,2.1664,2.0637,2.0262,1.8994,1.8334,1.8087,1.8334,1.8288,1.804,1.804,1.804,1.7986,1.7786,1.7514,1.7086,1.5812,1.4875,1.406,1.2281,1.1397,1.0982,0.0,0.0,0.0,0.0,0.0,0.0,0.0,2.8664,2.9096,3.0177,3.072,3.1235,3.1815,3.1916,3.1928,0.0,0.0,0.0,0.0,0.0,0.0,0.0,0.0,0.0,3.2271,3.2497,3.2654,3.2707,0.0,3.2261,3.2179,3.1626,3.1258,3.107,3.0793,3.0556,3.0343,3.0606,3.1055,3.1594,3.1844,3.2333,3.2986,0.0,0.0,0.0,3.6426,3.6674,3.6791,3.7295,3.7738,3.819,3.9015,3.8784,3.8262,3.8262,3.8262,3.8085,3.7281,3.7264,3.7295,3.648,3.5897,3.548,3.5154,3.5044,3.4839,3.4481,3.4397,3.4397,3.4397,3.4397,3.4397,3.4397,3.4008,3.339,3.2451,3.184,3.0866,2.9325,2.9002,2.8631,2.7857,2.7678,2.7547,2.7441,2.7357,2.7309,2.7309,2.7309,2.7061,2.6572,2.5489,2.4848,2.4688,2.2903,2.194,2.1793,2.0172,1.9363,1.9217,1.8827,1.8512,1.8334,1.8334,1.8334,1.8334,1.8334,1.8125,1.7733,1.6936,1.5973,1.491,1.3704,1.2881,1.2211,0.0,0.0,0.0,0.0,0.0,0.0,0.0,2.7574,2.8096,2.9213,2.9342,2.9691,3.0595,3.1003,3.1333,0.0,0.0,0.0,0.0,0.0,0.0,0.0,0.0,0.0,3.069,0.0,0.0,3.0719,3.0556,0.0,0.0,0.0,0.0,0.0,2.9907,2.9729,2.9421,2.9496,2.9787,0.0,0.0,3.0806,3.1664,0.0,0.0,0.0,0.0,3.5358,3.5507,3.6322,3.6624,3.6741,3.7396,3.7454,3.7309,3.7309,3.7309,3.7139,3.6306,3.6494,3.6702,3.5897,3.571,3.5602,3.5195,3.5086,3.4949,3.4481,3.4397,3.4397,3.4397,3.4397,3.4397,3.4397,3.4397,3.4092,3.3122,3.298,3.2277,3.0429,2.9988,2.9486,2.8491,2.7998,2.7726,2.7678,2.7489,2.7357,2.7309,2.7309,2.7309,2.7309,2.6476,2.6032,2.6032,2.4193,2.3252,2.3243,2.1251,2.0294,2.0257,1.9279,1.8697,1.8574,1.8574,1.8574,1.8574,1.8574,1.8409,1.812,1.7741,1.6824,1.5619,1.4972,1.428,1.3438,0.0,0.0,0.0,0.0,0.0,0.0,0.0,2.6276,2.676,2.8084,2.8255,2.8335,2.8624,3.0075,3.1119,0.0,0.0,0.0,0.0,0.0,0.0,0.0,0.0,0.0,0.0,0.0,0.0,3.0072,2.9459,0.0,0.0,0.0,0.0,0.0,0.0,2.7758,2.7482,2.804,0.0,0.0,0.0,0.0,0.0,0.0,0.0,0.0,0.0,3.5236,3.5399,3.5521,3.5669,3.5831,3.5897,3.6866,3.8014,3.8014,3.8014,3.7826,3.7031,3.6841,3.6702,3.5897,3.571,3.5602,3.5195,3.5086,3.4949,3.4481,3.4397,3.4397,3.4397,3.4397,3.4397,3.4397,3.4397,3.4092,3.3122,3.298,3.2593,3.1577,3.0699,3.0034,2.9669,2.8828,2.8254,2.7998,2.7726,2.7489,2.7309,2.7309,2.7309,2.7309,2.7204,2.7156,2.7156,2.5302,2.4348,2.4339,2.1617,2.0294,2.0257,1.9279,1.8781,1.8781,1.8781,1.8781,1.8781,1.8781,1.8765,1.867,1.8041,1.7581,1.7095,1.5571,1.4789,1.4448,0.0,0.0,0.0,0.0,0.0,0.0,2.5306,2.539,2.5788,2.6964,2.7128,2.7371,2.7964,2.8639,2.9395,3.0254,0.0,0.0,0.0,0.0,0.0,0.0,0.0,0.0,0.0,0.0,2.9884,2.9884,2.9618,0.0,0.0,0.0,0.0,0.0,0.0,2.7591,2.695,2.7545,0.0,0.0,0.0,0.0,0.0,0.0,0.0,0.0,0.0,0.0,3.5236,3.5358,3.5521,3.571,3.571,3.6123,3.6649,3.6649,3.6649,3.657,3.6243,3.6177,3.6097,3.579,3.571,3.5602,3.5195,3.5086,3.4949,3.4481,3.4397,3.4397,3.4397,3.4397,3.4397,3.4397,3.4397,3.4259,3.3911,3.3827,3.3462,3.255,3.2103,3.1621,3.0956,2.9897,2.8921,2.8034,2.7904,2.7726,2.7489,2.7357,2.7309,2.7309,2.7309,2.7309,2.7309,2.6008,2.5321,2.531,2.306,2.1676,2.1114,2.0121,1.9363,1.8781,1.8781,1.8781,1.8781,1.8781,1.8781,1.871,1.8049,1.7727,1.7569,1.6434,1.5974,1.576,0.0,0.0,0.0,0.0,0.0,2.4583,2.4743,2.4786,2.5062,2.5913,2.6038,2.6276,2.6964,2.7035,2.7481,2.8652,2.8978,0.0,0.0,0.0,0.0,0.0,0.0,0.0,0.0,0.0,2.9649,2.9649,2.939,2.939,0.0,0.0,2.8486,2.7879,0.0,0.0,0.0,0.0,0.0,0.0,0.0,0.0,0.0,0.0,0.0,0.0,0.0,0.0,0.0,0.0,0.0,3.5602,3.5602,3.5642,3.571,3.571,3.571,3.571,3.571,3.571,3.571,3.571,3.571,3.5602,3.5195,3.5086,3.4949,3.4481,3.4397,3.4439,3.4481,3.4535,3.4535,3.4535,3.4535,3.4481,3.4397,3.4397,3.4134,3.3462,3.3164,3.2722,3.2059,3.0744,2.9532,2.8585,2.8279,2.7998,2.7726,2.7489,2.7357,2.7309,2.7309,2.7309,2.7309,2.6387,2.5875,2.5865,2.4003,2.2746,2.2085,2.0836,2.0076,1.9637,1.905,1.8958,1.9234,1.8912,1.8781,1.871,1.8049,1.7814,1.7727,1.6992,1.6689,1.6607,0.0,0.0,0.0,0.0,0.0,0.0,2.4497,2.4497,2.4615,2.4861,2.4903,2.4988,2.5189,2.5242,2.56,2.6483,2.7319,0.0,0.0,0.0,0.0,0.0,0.0,0.0,0.0,0.0,2.931,2.931,2.8448,2.8448,2.9274,2.7336,2.6697,2.7155,0.0,0.0,0.0,0.0,0.0,0.0,0.0,0.0,0.0,0.0,0.0,0.0,0.0,0.0,0.0,0.0,0.0,0.0,0.0,3.5562,3.571,3.571,3.571,3.571,3.571,3.571,3.571,3.571,3.571,3.5602,3.5195,3.5086,3.4949,3.4481,3.4397,3.4481,3.4756,3.4797,3.4797,3.4797,3.4797,3.4714,3.4439,3.4397,3.4397,3.4397,3.356,3.298,3.2993,3.1311,3.0079,2.9806,2.8932,2.829,2.7998,2.7715,2.7489,2.7309,2.7309,2.7309,2.7309,2.6387,2.5875,2.5865,2.4003,2.3096,2.3008,2.1141,2.0791,2.1561,1.9637,1.9363,2.0212,1.9225,1.8781,1.871,1.8049,1.7814,1.7727,1.6992,1.6689,1.6689,0.0,0.0,0.0,0.0,0.0,0.0,0.0,2.4497,2.454,2.4615,2.4625,2.4658,2.47,2.47,2.4903,2.5348,2.6318,0.0,0.0,0.0,0.0,0.0,0.0,0.0,0.0,0.0,2.8872,2.8258,2.8604,2.8591,2.8258,2.7636,2.7125,2.6696,2.637,2.5854,0.0,0.0,0.0,0.0,0.0,0.0,3.0714,0.0,0.0,0.0,0.0,0.0,0.0,0.0,0.0,0.0,0.0,0.0,0.0,3.5277,3.548,3.571,3.571,3.571,3.571,3.571,3.571,3.5642,3.5358,3.5195,3.5044,3.4908,3.4784,3.4743,3.4962,3.5003,3.5003,3.5003,3.488,3.4756,3.4673,3.4535,3.4397,3.4397,3.4134,3.3687,3.3066,3.2451,3.1533,3.017,2.9818,2.9233,2.8337,2.8196,2.7972,2.7536,2.7357,2.7154,2.6832,2.6231,2.573,2.543,2.4505,2.3724,2.3096,2.2473,2.2041,2.165,2.1069,2.0619,2.0294,1.994,1.9409,1.871,1.8049,1.7814,1.7727,1.6992,1.6689,1.6689,0.0,0.0,0.0,0.0,0.0,0.0,0.0,2.4497,2.4497,2.4497,2.4497,2.4497,2.4497,2.4497,2.4583,2.4743,2.5348,0.0,0.0,0.0,0.0,0.0,0.0,0.0,2.7792,2.8335,2.8335,2.7792,2.8016,2.8016,2.7792,2.7035,2.6595,2.6318,2.5913,2.5432,0.0,0.0,0.0,0.0,0.0,0.0,3.0727,0.0,0.0,0.0,0.0,0.0,0.0,0.0,0.0,0.0,0.0,0.0,0.0,0.0,3.5277,3.548,3.5562,3.5642,3.571,3.571,3.571,3.5642,3.544,3.5318,3.5195,3.5127,3.5003,3.4962,3.5195,3.5195,3.5195,3.5195,3.5127,3.4962,3.4797,3.4673,3.4522,3.4397,3.4397,3.4176,3.3602,3.3207,3.2506,3.1356,3.0923,3.026,2.9152,2.8967,2.8606,2.7925,2.7678,2.7317,2.6764,2.6305,2.5757,2.5179,2.4714,2.4176,2.3637,2.328,2.2974,2.2721,2.2006,2.1552,0.0,2.061,1.994,1.9244,1.8218,1.7814,1.7727,1.6992,1.6689,1.6689,0.0,0.0,0.0,0.0,0.0,0.0,0.0,2.4549,2.4538,2.4507,2.4497,2.4497,2.4497,2.4497,2.4497,2.4497,0.0,0.0,0.0,0.0,0.0,0.0,0.0,0.0,2.7609,2.7689,2.7701,2.7667,2.6903,2.6944,2.7626,2.577,2.5317,2.5999,2.4956,2.4518,0.0,0.0,0.0,0.0,0.0,0.0,0.0,0.0,0.0,0.0,0.0,0.0,0.0,0.0,0.0,0.0,0.0,0.0,0.0,0.0,0.0,0.0,0.0,3.5521,3.5669,3.571,3.571,3.5642,3.548,3.5399,0.0,3.5195,3.5127,3.5195,3.5399,3.544,3.544,3.544,3.5399,3.5277,3.488,3.4797,3.4673,3.4439,3.4397,3.4397,3.4397,3.3602,3.3066,3.2993,3.219,3.1311,3.0339,2.9988,2.9417,2.8581,2.8233,2.7717,2.6963,2.6522,2.5926,2.5171,2.4704,2.4497,2.4454,2.3594,2.3681,2.4411,2.2677,2.2359,2.2965,2.1141,2.0339,2.0135,1.843,1.7814,1.7727,1.6992,1.6689,1.6689,0.0,0.0,0.0,0.0,0.0,0.0,0.0,0.0,0.0,0.0,2.4497,2.4497,2.4497,2.4497,2.4497,0.0,0.0,0.0,0.0,0.0,0.0,0.0,0.0,0.0,2.5808,2.6461,2.6636,2.6364,2.6802,2.6802,2.632,2.552,2.5232,2.5385,2.4781,2.4693,0.0,0.0,0.0,0.0,0.0,0.0,0.0,0.0,0.0,0.0,3.416,3.4285,0.0,0.0,0.0,0.0,0.0,0.0,0.0,0.0,3.4701,3.4921,3.5127,0.0,3.5521,3.5669,3.571,3.5669,0.0,3.5521,3.544,3.5562,3.544,3.5399,3.5602,3.5642,3.5642,3.5642,3.5521,3.5318,3.5044,3.4701,3.4481,3.4397,3.4397,3.4397,3.4397,3.4176,3.3771,3.3036,3.2809,3.2277,3.1311,3.0519,2.9988,2.9772,2.9013,2.7974,2.6706,2.6409,2.5847,2.4986,2.4634,2.4497,2.4497,2.4272,2.4272,2.4497,2.4046,2.3551,2.3008,2.1863,2.0934,2.0135,1.843,1.7814,1.7727,1.6992,1.6689,1.6689,0.0,0.0,0.0,0.0,0.0,0.0,0.0,0.0,0.0,0.0,0.0,0.0,0.0,0.0,0.0,0.0,0.0,0.0,0.0,0.0,0.0,0.0,0.0,2.5275,2.5523,2.599,2.6106,2.5875,2.6359,2.6359,2.5875,2.5637,2.5533,2.5513,2.5264,2.5181,0.0,0.0,0.0,0.0,2.7298,0.0,0.0,0.0,0.0,0.0,3.4076,3.4243,0.0,3.4397,3.4397,3.4397,0.0,0.0,0.0,0.0,3.4577,3.4839,3.5044,3.5236,3.544,3.5642,3.571,3.571,3.571,3.5642,3.5562,3.5669,3.5602,3.5669,3.6177,3.5937,3.5831,3.6177,3.5871,3.548,3.5277,3.4949,3.4701,3.4577,3.4577,3.4535,3.4397,3.4397,3.4176,3.3687,3.3645,3.325,3.2277,3.1753,3.1267,3.0878,3.0339,2.9026,2.6804,2.6704,2.6092,2.5031,2.4786,2.47,2.4658,2.454,2.4497,2.4497,2.4497,2.4219,2.3681,2.2746,2.1708,2.0554,1.9055,1.8099,1.7477,1.6937,1.6689,1.6689,0.0,0.0,0.0,0.0,0.0,0.0,0.0,0.0,0.0,0.0,0.0,0.0,0.0,0.0,0.0,0.0,0.0,0.0,0.0,0.0,0.0,0.0,2.6003,2.5906,2.6034,2.6034,2.6065,2.6092,2.6092,2.6092,2.6127,2.6065,2.5993,2.5875,2.5875,2.572,0.0,0.0,0.0,0.0,2.8014,0.0,0.0,0.0,0.0,0.0,0.0,0.0,0.0,3.4397,3.4397,3.4397,3.4397,0.0,0.0,0.0,0.0,0.0,3.5236,3.5467,3.5588,3.5669,3.579,3.5871,3.5871,3.5977,3.6057,3.6057,3.6057,3.6269,3.6961,3.6545,3.6282,3.6961,3.6387,3.575,3.544,3.5236,3.5044,3.488,3.4839,3.4743,3.4481,3.4439,3.4439,3.4397,3.4397,3.4037,3.325,3.3079,3.2636,3.184,3.1665,3.0285,2.7481,2.7293,2.6563,2.5242,2.5031,2.4946,2.4946,2.47,2.4625,2.4625,2.4583,2.4583,2.4487,2.3497,2.2409,2.1259,1.9754,1.8498,1.7433,1.6907,1.6689,1.6689,0.0,0.0,0.0,0.0,0.0,0.0,0.0,0.0,0.0,0.0,0.0,0.0,0.0,0.0,0.0,0.0,0.0,0.0,0.0,0.0,0.0,2.7092,2.6299,2.6107,2.6501,2.6511,2.6708,2.7092,2.7092,2.7092,2.7092,2.6687,2.6304,2.5875,2.5875,2.6061,2.6372,0.0,0.0,0.0,2.741,0.0,0.0,0.0,0.0,0.0,0.0,0.0,0.0,3.4356,3.4397,3.4397,3.4397,0.0,0.0,0.0,0.0,0.0,3.6084,3.6387,3.6308,3.5831,3.6217,3.6702,3.6702,3.7242,3.7724,3.7724,3.7724,3.7762,3.7875,3.78,3.7762,3.7875,3.7102,3.6189,3.5507,3.5236,3.5086,3.5044,3.5044,3.4962,3.4756,3.4756,3.4618,3.4397,3.4397,3.4356,3.4176,3.342,3.2938,3.2766,3.2016,3.0941,2.9538,2.8643,2.7266,2.5559,2.5295,2.5158,2.5158,2.5115,2.5073,2.5073,2.4903,2.4828,2.4733,2.3584,2.2755,2.202,2.0002,1.882,1.8196,1.7105,1.6689,1.6689,0.0,0.0,0.0,0.0,0.0,0.0,0.0,0.0,0.0,0.0,0.0,0.0,0.0,0.0,0.0,0.0,0.0,0.0,0.0,0.0,2.7309,2.7309,2.6895,2.677,2.6988,2.6988,2.7092,2.7309,2.7309,2.7309,2.7299,2.7092,2.6739,2.6304,2.6563,2.6656,2.6635,2.6884,2.7112,0.0,0.0,0.0,0.0,0.0,0.0,0.0,0.0,0.0,0.0,0.0,3.4397,3.4397,3.4397,0.0,0.0,0.0,0.0,0.0,3.6348,3.6702,3.6805,3.6947,3.7281,3.7548,3.7548,3.7838,3.8101,3.8101,3.8101,3.8213,3.8672,3.8399,3.8101,3.8101,3.7372,3.6766,3.6869,3.6044,3.5548,3.5884,3.5548,3.5195,3.4962,3.4962,3.4921,3.4784,3.466,3.4618,3.4618,3.4092,3.3742,3.3742,3.3335,3.2519,3.126,3.0276,2.8638,2.6456,2.602,2.568,2.5433,2.5509,2.5445,2.52,2.5115,2.5073,2.5031,2.437,2.3388,2.2195,2.122,2.0099,1.8967,1.7936,1.748,1.7326,0.0,0.0,0.0,0.0,0.0,0.0,0.0,0.0,0.0,0.0,0.0,0.0,0.0,0.0,0.0,0.0,0.0,0.0,0.0,2.6946,2.7195,2.7299,2.7309,2.7309,2.7309,2.7309,2.7309,2.7309,2.7309,2.7309,2.7309,2.7309,2.7123,2.6791,2.7154,2.7112,2.6801,2.7154,2.7309,0.0,0.0,0.0,0.0,0.0,0.0,0.0,0.0,0.0,0.0,0.0,0.0,0.0,0.0,0.0,0.0,3.4839,3.5277,3.5857,3.6727,3.7218,3.7677,3.845,3.8509,3.8361,3.8361,3.8524,3.8672,3.8672,3.8672,3.8855,3.9463,3.9088,3.8598,3.8399,3.7852,3.7601,3.8026,3.7049,3.6348,3.6663,3.6123,3.5588,3.5195,3.5154,3.5154,3.5086,3.4962,3.4839,3.4797,3.4632,3.4439,3.4397,3.4397,3.3833,3.2603,3.1685,2.9977,2.7529,2.6742,2.6174,2.5827,2.5894,2.5723,2.5369,2.5327,2.5285,2.5285,2.5073,2.4002,2.2544,2.235,2.1209,1.959,1.8899,1.851,1.8118,0.0,0.0,0.0,0.0,0.0,0.0,0.0,0.0,0.0,0.0,0.0,0.0,0.0,0.0,0.0,0.0,0.0,0.0,0.0,2.6646,2.6853,2.7289,2.7309,2.7309,2.7309,2.7309,2.7309,2.7309,2.7309,2.7309,2.7309,2.7309,2.7289,2.7258,2.7289,2.7289,2.7258,2.7299,2.7309,2.7309,2.7309,0.0,0.0,0.0,0.0,0.0,0.0,0.0,0.0,0.0,0.0,0.0,0.0,0.0,3.4839,3.5003,3.5777,3.6727,3.7724,3.8561,3.932,4.0111,3.9778,3.9196,3.9196,3.9799,4.0335,4.0335,4.0335,4.0335,4.042,4.037,4.0076,3.9356,3.916,3.8891,3.8213,3.7988,3.7663,3.6961,3.6819,3.6427,3.5467,3.5399,3.5318,3.5127,3.5086,3.5003,3.4797,3.4797,3.4673,3.4397,3.4397,3.4095,3.3506,3.2631,3.0973,2.8582,2.7223,2.6573,2.6519,2.6093,2.5886,2.5853,2.5644,2.5559,2.5559,2.5295,2.4606,2.3606,2.2778,2.143,1.9864,1.9825,1.9423,1.8877,0.0,0.0,0.0,0.0,0.0,0.0,0.0,0.0,0.0,0.0,0.0,0.0,0.0,0.0,0.0,0.0,0.0,0.0,0.0,2.6258,2.6687,2.6864,2.7154,2.7309,2.7309,2.7309,2.7309,2.7309,2.7309,2.7309,2.7309,2.7309,2.7309,2.7309,2.7309,2.7309,2.7309,2.7309,2.7309,2.7309,2.7309,2.7309,0.0,0.0,0.0,0.0,0.0,0.0,0.0,0.0,3.4243,3.4397,3.4397,3.466,3.5113,3.5696,3.6269,3.7078,3.8487,3.9088,3.9499,4.0301,4.0266,4.0041,4.0041,4.0266,4.0489,4.0489,4.0489,4.0489,4.0489,4.0489,4.042,4.0111,3.9621,3.9356,3.957,3.8745,3.8175,3.8376,3.7965,3.7295,3.6427,3.6322,3.6084,3.5521,3.5358,3.5236,3.5195,3.4921,3.4756,3.466,3.4481,3.4293,3.4097,3.2826,3.1729,3.0779,2.8834,2.7572,2.6944,2.6543,2.619,2.5895,2.5812,2.578,2.578,2.5559,2.4906,2.3953,2.2981,2.222,2.1576,2.1019,2.0624,2.0168,0.0,0.0,0.0,0.0,0.0,0.0,0.0,0.0,0.0,0.0,0.0,0.0,0.0,0.0,0.0,0.0,0.0,0.0,2.5461,2.6009,2.647,2.6604,2.7061,2.7309,2.7309,2.7309,2.7309,2.7309,2.7309,2.7309,2.7309,2.7309,2.7309,2.7309,2.7309,2.7309,2.7309,2.7309,2.7309,2.7309,2.7309,2.7309,0.0,0.0,0.0,0.0,0.0,0.0,0.0,0.0,3.4147,3.4397,3.4397,3.4729,3.5277,3.607,3.6766,3.7563,3.8942,3.9499,3.9814,4.037,4.0489,4.0524,4.0593,4.0558,4.0489,4.0489,4.0558,4.0558,4.0524,4.0558,4.0558,4.0489,4.0041,3.9884,4.042,3.9535,3.8964,3.9269,3.8818,3.8138,3.7372,3.7039,3.6663,3.6137,3.571,3.548,3.5399,3.5113,3.4921,3.4797,3.4618,3.4402,3.4149,3.3113,3.2387,3.199,3.0179,2.8656,2.7396,2.6681,2.6212,2.5895,2.5895,2.5895,2.5884,2.5607,2.4895,2.3981,2.3129,2.2777,2.274,2.2145,2.1718,2.126,0.0,0.0,0.0,0.0,0.0,0.0,0.0,0.0,0.0,0.0,0.0,0.0,0.0,0.0,0.0,0.0,0.0,0.0,2.5875,2.5875,2.6127,2.6594,2.7061,2.7309,2.7309,2.7309,2.7309,2.7309,2.7309,2.7309,2.7309,2.7309,2.7309,2.7309,2.7309,2.7309,2.7309,2.7309,2.7309,2.7309,2.7309,2.7309,2.7404,0.0,0.0,0.0,0.0,0.0,0.0,0.0,3.4008,3.4397,3.4397,3.4729,3.5277,3.607,3.7165,3.8287,3.9088,3.9884,4.0489,4.0489,4.0489,4.0558,4.0765,4.0662,4.0489,4.0489,4.0662,4.073,4.0524,4.0662,4.073,4.0524,4.0489,4.0489,4.0489,4.0489,4.0181,3.9427,3.932,3.9015,3.8175,3.741,3.6936,3.6897,3.6177,3.5642,3.5399,3.5399,3.5236,3.4797,3.4797,3.4397,3.36,3.3587,3.2986,3.1797,3.0992,2.965,2.7836,2.6523,2.5895,2.5895,2.5895,2.5895,2.5863,2.5371,2.4596,2.364,2.3187,2.3001,2.3001,2.3001,2.2628,2.2063,0.0,0.0,0.0,0.0,0.0,0.0,0.0,0.0,0.0,0.0,0.0,0.0,0.0,0.0,0.0,0.0,0.0,0.0,2.544,2.5709,2.5937,2.6082,2.6884,2.7309,2.7309,2.7309,2.7309,2.7309,2.7951,2.8269,2.8269,2.8269,2.8269,2.8269,2.7584,2.7309,2.7309,2.7309,2.7309,2.7309,2.7309,2.7309,2.7309,0.0,0.0,0.0,0.0,0.0,0.0,0.0,0.0,0.0,3.4356,3.4729,3.5386,3.6752,3.7625,3.8399,3.9763,4.0301,4.0489,4.0489,4.0593,4.073,4.0799,4.0765,4.073,4.0898,4.0966,4.1,4.0932,4.0966,4.1,4.0932,4.0814,4.0696,4.0696,4.0593,4.042,4.0181,4.0146,3.9849,3.9,3.8723,3.813,3.7014,3.6663,3.6282,3.5629,3.548,3.5358,3.5236,3.4523,3.4029,3.3831,3.2843,3.2137,3.1797,3.0546,2.9354,2.8224,2.7242,2.6456,2.5895,2.5895,2.5895,2.5841,2.5033,2.4312,2.364,2.3187,2.3001,2.3001,2.3001,2.2889,2.2665,0.0,0.0,0.0,0.0,0.0,0.0,0.0,0.0,0.0,0.0,0.0,0.0,0.0,0.0,0.0,0.0,0.0,0.0,0.0,2.5695,2.5875,2.5875,2.6812,2.7309,2.7309,2.7678,2.7857,2.7857,2.8398,2.8899,2.9314,2.9314,2.9084,2.8678,2.8128,2.7631,2.7309,2.7309,2.7309,2.7309,2.7309,2.7309,2.7309,0.0,0.0,0.0,0.0,0.0,0.0,0.0,0.0,0.0,3.4356,3.4729,3.5426,3.7025,3.7762,3.8436,4.0076,4.0489,4.0524,4.0593,4.0696,4.0833,4.0953,4.0969,4.095,4.1083,4.1135,4.1153,4.1117,4.1135,4.1169,4.1117,4.1,4.0916,4.0916,4.0746,4.0627,4.0627,4.0558,4.0301,3.9799,3.9499,3.8906,3.7942,3.7563,3.7039,3.6217,3.6057,3.5817,3.5399,3.4593,3.394,3.3542,3.245,3.1757,3.1458,3.0624,2.9742,2.8861,2.773,2.7103,2.6887,2.6539,2.6008,2.5295,2.4727,2.4071,2.3367,2.311,2.3001,2.3001,2.3001,2.3001,2.2964,0.0,0.0,0.0,0.0,0.0,0.0,0.0,0.0,0.0,0.0,0.0,0.0,0.0,0.0,0.0,0.0,0.0,0.0,0.0,2.5704,2.5885,2.5875,2.6812,2.7309,2.7309,2.8222,2.8724,2.8863,2.8899,2.9452,3.0351,3.0351,2.9806,2.8806,2.8724,2.8175,2.7309,2.7309,2.7309,2.7309,2.7309,2.7309,2.7309,2.7309,0.0,0.0,0.0,0.0,0.0,0.0,0.0,0.0,3.4249,3.4703,3.5426,3.7025,3.7762,3.8436,4.0076,4.0524,4.0558,4.0765,4.0833,4.0953,4.1307,4.1305,4.1203,4.1169,4.1239,4.1305,4.1169,4.1254,4.1305,4.1169,4.1135,4.1102,4.1102,4.095,4.0833,4.0799,4.0627,4.0524,4.0489,3.9849,3.9391,3.932,3.862,3.7852,3.7039,3.6922,3.648,3.5548,3.4807,3.3979,3.3079,3.2368,3.1673,3.1024,3.1024,3.0583,2.9742,2.8171,2.777,2.8347,2.7528,2.6255,2.466,2.4548,2.3929,2.3056,2.3023,2.3001,2.3001,2.3001,2.3001,2.3001,0.0,0.0,0.0,0.0,0.0,0.0,0.0,0.0,0.0,0.0,0.0,0.0,0.0,0.0,0.0,0.0,0.0,0.0,0.0,2.5599,2.5725,2.5875,2.6812,2.7309,2.7309,2.8222,2.9084,2.9897,3.0633,3.108,3.1315,3.1315,3.0812,2.9852,2.9037,2.8175,2.7309,2.7309,2.7309,2.7309,2.7309,2.7309,2.7309,2.7309,2.7441,0.0,0.0,0.0,0.0,0.0,0.0,0.0,3.3634,3.4386,3.5426,3.7025,3.7762,3.8436,4.0076,4.0627,4.0765,4.0799,4.0987,4.1374,4.2142,4.2301,4.2126,4.1588,4.1538,4.1522,4.1505,4.1522,4.1522,4.1505,4.1372,4.1272,4.1272,4.112,4.1,4.0833,4.0765,4.0662,4.0524,4.0335,3.999,3.9356,3.916,3.8672,3.7875,3.7256,3.678,3.6584,3.4835,3.3772,3.356,3.2162,3.1391,3.1235,3.1099,3.0911,3.0659,2.9626,2.8873,2.8347,2.7528,2.6748,2.5893,2.4896,2.4126,2.3498,2.3154,2.3001,2.3001,2.3001,2.3001,2.3001,0.0,0.0,0.0,0.0,0.0,0.0,0.0,0.0,0.0,0.0,0.0,0.0,0.0,0.0,0.0,0.0,0.0,0.0,0.0,0.0,2.5885,2.6517,2.705,2.7309,2.7309,2.8678,2.9669,3.0215,3.1625,3.2307,3.2307,3.2307,3.1801,3.0857,2.9852,2.8899,2.7951,2.7489,2.7309,2.7309,2.7309,2.7309,2.7309,2.7309,2.7309,2.7373,2.8093,0.0,0.0,0.0,0.0,0.0,0.0,0.0,3.4499,3.6475,3.7302,3.7967,3.9949,4.0662,4.0833,4.0987,4.1256,4.1638,4.2428,4.2617,4.2569,4.2522,4.2522,4.2522,4.2522,4.2522,4.2522,4.2522,4.2411,4.2237,4.1981,4.1769,4.1522,4.1088,4.0901,4.0765,4.0662,4.0558,4.0335,3.992,3.9884,3.9499,3.8708,3.8264,3.7715,3.6922,3.5301,3.42,3.3715,3.2206,3.1397,3.131,3.1099,3.0986,3.0986,3.0545,2.9626,2.8386,2.8398,2.7719,2.6596,2.5939,2.4929,2.388,2.3623,2.3313,2.3001,2.3001,2.3001,2.3001,0.0,0.0,0.0,0.0,0.0,0.0,0.0,0.0,0.0,0.0,0.0,0.0,0.0,0.0,0.0,0.0,0.0,0.0,0.0,0.0,0.0,2.7268,2.7309,2.7404,2.7536,2.9303,3.026,3.0441,3.2208,3.3124,3.3124,3.3124,3.2568,3.1581,3.0812,2.9897,2.8899,2.7951,2.7536,2.7536,2.7357,2.7309,2.7309,2.7309,2.7309,2.7352,2.7725,2.8364,2.9106,3.0104,0.0,0.0,0.0,0.0,3.342,3.5592,3.6456,3.7223,3.9536,4.05,4.0935,4.1256,4.1489,4.1785,4.2459,4.2617,4.2756,4.3363,4.3512,4.3482,4.3363,4.3423,4.3482,4.3363,4.3333,4.3169,4.2663,4.2365,4.1981,4.139,4.1055,4.0851,4.0799,4.0662,4.0524,4.0489,4.0489,4.0216,3.9535,3.9391,3.8591,3.6985,3.5798,3.4682,3.3605,3.2278,3.1559,3.136,3.1099,3.0986,3.0986,3.0882,3.0088,2.8848,2.9359,2.8659,2.7183,2.689,2.5846,2.4416,2.4335,2.3913,2.3398,2.325,2.3176,2.3176,0.0,0.0,0.0,0.0,0.0,0.0,0.0,0.0,0.0,0.0,0.0,0.0,0.0,0.0,0.0,0.0,0.0,0.0,0.0,0.0,0.0,2.7268,2.7309,2.7678,2.8502,2.9624,3.0576,3.1392,3.2537,3.3124,3.3124,3.3124,3.2568,3.1581,3.1492,3.0902,2.9943,2.8945,2.8491,2.8445,2.7631,2.7309,2.7309,2.7309,2.7309,2.7299,2.7379,2.7416,2.7624,2.8709,2.9552,0.0,0.0,0.0,3.3223,3.4441,3.5373,3.6425,3.8217,3.9841,4.1135,4.1472,4.1588,4.1785,4.2459,4.2617,4.2756,4.3363,4.3512,4.3333,4.2818,4.3139,4.3333,4.2818,4.2725,4.2694,4.2617,4.2093,4.1588,4.1323,4.1256,4.1122,4.0833,4.0765,4.0696,4.0524,4.0489,4.0455,4.0351,3.9692,3.8639,3.7192,3.5827,3.4497,3.3186,3.23,3.1743,3.1572,3.1174,3.0986,3.096,3.0477,3.0392,3.0595,2.9403,2.88,2.8438,2.6797,2.5972,2.5695,2.529,2.5087,2.4909,2.4204,2.3938,2.3866,0.0,0.0,0.0,0.0,0.0,0.0,0.0,0.0,0.0,0.0,0.0,0.0,0.0,0.0,0.0,0.0,0.0,0.0,0.0,0.0,0.0,2.704,2.7214,2.7715,2.8678,2.9669,3.0666,3.1581,3.2259,3.2591,3.2591,3.2277,3.2242,3.2438,3.1857,3.1347,3.0902,2.9943,2.9222,2.8678,2.8269,2.7762,2.7309,2.7309,2.7309,2.7278,2.7009,2.702,2.7316,2.814,2.8869,2.9623,3.0727,0.0,0.0,0.0,3.4615,3.5851,3.858,3.9941,4.0718,4.1428,4.1588,4.1785,4.2459,4.2617,4.288,4.3852,4.4071,4.3985,4.3722,4.3869,4.41,4.4157,4.3898,4.3545,4.3169,4.2569,4.1997,4.1507,4.1357,4.1256,4.1088,4.0901,4.0765,4.0662,4.0558,4.0489,4.0489,4.0146,3.932,3.7872,3.6512,3.5151,3.3675,3.249,3.1743,3.1434,3.1235,3.1099,3.096,3.0361,3.0231,3.044,2.9499,2.8903,2.852,2.7668,2.6901,2.6216,2.5982,2.5652,2.5276,2.4898,2.4492,2.4047,0.0,0.0,0.0,0.0,0.0,0.0,0.0,0.0,0.0,0.0,0.0,0.0,0.0,0.0,0.0,0.0,0.0,0.0,0.0,0.0,0.0,2.687,2.7063,2.7677,2.885,2.9489,3.0414,3.1532,3.1866,3.2001,3.1989,3.1587,3.1838,3.2654,3.2025,3.1739,3.1695,3.0888,2.9988,2.9037,2.8806,2.8128,2.7309,2.7309,2.7309,2.7258,2.6915,2.6894,2.717,2.7944,2.8509,2.9123,3.0254,3.0798,0.0,0.0,0.0,3.545,3.8412,3.9503,4.0028,4.1031,4.1303,4.1498,4.2205,4.2333,4.2617,4.3558,4.3898,4.4042,4.4231,4.4513,4.4824,4.5113,4.4642,4.4071,4.3571,4.2833,4.2142,4.1654,4.1456,4.1357,4.1307,4.1055,4.0885,4.0799,4.0662,4.0558,4.0489,4.0489,3.9764,3.8108,3.7002,3.5582,3.388,3.2541,3.1743,3.1458,3.1347,3.1119,3.0826,3.0176,2.98,2.9666,2.9235,2.8826,2.8407,2.8216,2.7597,2.6701,2.6701,2.6346,2.5826,2.5652,2.5075,2.4384,0.0,0.0,0.0,0.0,0.0,0.0,0.0,0.0,0.0,0.0,0.0,0.0,2.6091,2.5868,2.5557,2.5155,2.5096,0.0,0.0,0.0,0.0,2.688,2.6707,0.0,2.9247,2.8976,2.9633,3.1392,3.1449,3.1436,3.1436,3.1399,3.1424,3.1499,3.1985,3.2168,3.2164,3.1714,3.0991,3.0034,2.9084,2.8128,2.7309,2.7309,2.7309,2.7299,2.7278,2.6978,2.6812,2.8074,2.8453,2.8673,2.9996,3.0672,3.1061,0.0,0.0,0.0,3.6532,3.7935,3.9262,4.0145,4.0495,4.0814,4.1512,4.1654,4.1687,4.1753,4.2269,4.288,4.3453,4.4524,4.5167,4.4614,4.3985,4.3542,4.3495,4.2427,4.1654,4.1588,4.1588,4.1522,4.1323,4.129,4.1156,4.0833,4.0799,4.0696,4.0489,4.0489,3.9551,3.7518,3.6766,3.5366,3.3283,3.2336,3.189,3.1853,3.1471,3.0982,3.0405,2.9682,2.9013,2.8499,2.8472,2.8446,2.8381,2.7798,2.7529,2.7423,2.7423,2.7423,2.7289,2.6598,2.5861,2.5123,0.0,0.0,0.0,0.0,0.0,0.0,0.0,0.0,0.0,0.0,0.0,0.0,0.0,2.6255,2.6099,2.5786,2.5367,0.0,0.0,0.0,0.0,2.688,2.6733,2.7447,2.9245,2.8907,2.9593,3.1386,3.106,3.0896,3.0884,3.0532,3.0369,3.0419,3.1662,3.2215,3.221,3.2475,3.1669,3.017,2.9806,2.8713,2.7309,2.7309,2.7309,2.7309,2.7309,2.7009,2.6769,2.7751,2.8143,2.841,2.9595,3.0329,3.0986,3.1909,3.2886,3.4098,3.6156,3.7164,3.7971,3.9311,3.9771,3.9961,4.0198,4.0609,4.107,4.1469,4.2105,4.2941,4.4054,4.4569,4.4879,4.5042,4.4541,4.3997,4.3571,4.2771,4.2093,4.1654,4.1588,4.1555,4.1489,4.139,4.1189,4.1,4.0882,4.0696,4.0489,4.0489,3.9757,3.8159,3.7409,3.5828,3.3241,3.2467,3.2036,3.189,3.173,3.1239,3.0388,2.9785,2.9088,2.8394,2.7994,2.7837,2.7824,2.7581,2.749,2.749,2.749,2.749,2.7469,2.7209,2.662,2.5965,0.0,0.0,0.0,0.0,0.0,0.0,0.0,0.0,0.0,2.7547,0.0,0.0,0.0,0.0,2.64,2.61,2.5785,2.5627,2.5722,2.6006,2.6384,2.689,2.6858,2.7482,2.8994,2.8955,2.9552,3.0846,3.0696,3.052,3.0331,2.9967,2.9792,2.9854,3.1298,3.1938,3.1989,3.2754,3.2164,3.0666,3.0666,2.9498,2.7762,2.7762,2.7584,2.7309,2.7309,2.7112,2.6998,2.8002,2.8403,2.8637,2.9837,3.0481,3.0986,3.1946,3.2511,3.3206,3.4942,3.5932,3.6767,3.8099,3.8764,3.9172,3.9393,3.985,4.0341,4.0732,4.141,4.2192,4.3118,4.3373,4.3921,4.532,4.4988,4.4429,4.3968,4.3139,4.2428,4.1997,4.1753,4.1588,4.1588,4.1489,4.1339,4.1187,4.1018,4.0814,4.0627,4.0524,3.9757,3.8193,3.6959,3.5341,3.3227,3.2538,3.2146,3.2,3.1927,3.1328,3.0277,2.987,2.9143,2.8174,2.778,2.7556,2.749,2.749,2.749,2.749,2.749,2.749,2.749,2.749,2.704,2.638,0.0,0.0,0.0,0.0,0.0,0.0,0.0,0.0,2.8724,2.8724,0.0,0.0,0.0,0.0,0.0,2.6149,2.6342,2.64,2.6149,2.664,2.6948,2.6948,0.0,0.0,2.8568,2.9053,2.9459,2.9817,3.0331,3.0319,2.9792,2.9792,2.9792,2.9842,3.0909,3.1386,3.1461,3.2646,3.2537,3.1581,3.1581,3.0441,2.8724,2.8724,2.8175,2.7404,2.7404,2.7404,2.7594,2.8914,2.923,2.939,3.0761,3.1099,3.1061,3.1235,3.1946,3.269,0.0,0.0,0.0,3.6491,3.7462,3.8419,3.9078,3.9377,3.9471,3.9471,4.0011,4.0478,4.0507,4.1001,4.2322,4.5217,4.5108,4.4646,4.4635,4.3469,4.2585,4.2585,4.1997,4.1588,4.1588,4.1588,4.1522,4.1323,4.1187,4.1,4.0799,4.0547,3.9524,3.7507,3.5389,3.3973,3.3248,3.2538,3.2218,3.2218,3.2,3.1258,3.0089,2.9894,2.9069,2.7809,2.7809,2.7689,2.749,2.749,2.749,2.749,2.749,2.749,2.749,2.749,2.704,2.6414,0.0,0.0,0.0,0.0,0.0,0.0,3.0306,2.9943,2.9806,0.0,0.0,0.0,2.8222,2.7357,2.6747,2.6699,2.6554,2.6544,2.6651,2.7468,2.8023,2.8175,2.8611,2.9293,3.0119,2.9588,2.9642,3.0382,3.0143,2.9942,2.9792,2.9792,2.9792,2.9842,3.0909,3.1386,3.1461,3.2646,3.2537,3.1581,3.1581,3.0857,2.9806,2.9806,2.9624,2.9395,2.9395,2.9395,2.9464,2.9817,3.0106,3.0434,3.1019,3.1099,3.1061,3.1235,3.1482,3.1873,3.2698,0.0,0.0,0.0,0.0,0.0,3.7728,3.8229,3.8668,3.8761,3.931,3.9966,4.0534,4.0782,4.1357,4.2682,4.302,4.3136,4.3177,4.2849,4.2428,4.1932,4.1704,4.1588,4.1588,4.1588,4.1522,4.1323,4.1187,4.1,4.0799,3.9702,3.8793,3.8195,3.5674,3.4211,3.4007,3.281,3.2218,3.2218,3.2146,3.1402,3.0089,3.0019,2.9205,2.7809,2.7809,2.7689,2.749,2.749,2.749,2.749,2.749,2.749,2.749,2.749,2.7356,2.7188,0.0,0.0,0.0,0.0,0.0,3.2033,3.148,3.1036,3.0756,0.0,0.0,0.0,2.9314,2.8315,2.7631,2.7478,2.7431,2.7431,2.7478,2.847,2.9154,2.9303,2.9777,3.03,3.08,3.0608,3.0647,3.0934,3.0846,3.061,3.0248,3.0248,3.0313,3.0429,3.1303,3.181,3.2076,3.2976,3.2914,3.222,3.222,3.1669,3.0756,3.0756,3.0531,3.0215,3.0215,3.0215,3.026,3.0666,3.1089,3.147,3.1361,3.1268,3.1186,3.1164,3.1235,3.1445,3.2164,3.3017,3.3856,3.4451,0.0,0.0,3.6446,3.6925,3.7406,3.7807,3.8228,3.8679,3.9159,3.9307,3.9609,4.0304,4.0642,4.1151,4.2061,4.2167,4.2007,4.1614,4.1595,4.1588,4.1588,4.1588,4.1555,4.1423,4.1221,4.0842,4.0294,3.9126,3.8385,3.8092,3.5905,3.4747,3.4747,3.3346,3.2596,3.2596,3.2336,3.1509,3.0219,3.0219,2.9409,2.8006,2.7954,2.7822,2.7623,2.7523,2.749,2.749,2.749,2.749,2.749,2.749,2.749,2.749,0.0,0.0,0.0,3.3124,3.3124,3.3124,3.3124,3.2351,3.1769,0.0,3.0946,3.0306,3.0215,2.9406,2.876,2.8505,2.8713,2.876,2.8505,2.9658,3.0351,3.0351,3.0818,3.1057,3.1057,3.1819,3.1976,3.1486,3.1913,3.1707,3.1001,3.1001,3.1107,3.1329,3.1906,3.2431,3.2959,3.3482,3.3471,3.3154,3.3154,3.2568,3.1769,3.1769,3.1258,3.0531,3.0531,3.0531,3.0666,3.1492,3.2068,3.2384,3.1781,3.1513,3.1436,3.1081,3.1123,3.131,3.1522,3.22,3.2897,3.3108,3.3871,0.0,3.5337,3.5642,3.5959,3.6631,3.6938,3.7058,3.7058,3.727,3.7656,3.8241,3.8336,3.9026,4.1064,4.1308,4.1297,4.1378,4.147,4.1509,4.1573,4.1588,4.1588,4.1555,4.1254,4.0588,3.9554,3.8877,3.82,3.7523,3.6116,3.54,3.54,3.4007,3.3283,3.3178,3.2668,3.1722,3.0405,3.0473,2.9726,2.8287,2.8164,2.8,2.7776,2.7623,2.7523,2.749,2.749,2.749,2.749,2.749,2.749,2.749,0.0,0.0,3.3124,3.3124,3.3124,3.3124,3.3124,3.2939,3.2797,3.2797,3.1945,3.1036,3.026,3.0034,2.9897,2.9841,2.9897,2.9897,2.9841,3.0756,3.1315,3.1315,3.2166,3.2648,3.2648,3.2369,3.2164,3.2051,3.1725,3.1571,3.1612,3.1612,3.1733,3.1933,3.251,3.2818,3.2959,3.3482,3.3641,3.3556,3.3398,3.3142,3.2797,3.2797,3.2711,3.2525,3.2525,3.2525,3.2568,3.2754,3.2649,3.2418,3.2017,3.1704,3.1436,3.1081,3.1024,3.1099,3.131,3.1932,3.2577,3.2861,3.3547,0.0,3.4681,3.4828,3.4927,3.5175,3.5723,3.6134,3.6134,3.6677,3.7137,3.7278,3.7294,3.7914,3.9668,3.9909,4.0102,4.0706,4.08,4.1004,4.1541,4.1588,4.1522,4.1357,4.1037,4.047,3.9554,3.8877,3.82,3.7523,3.6116,3.54,3.54,3.4547,3.3802,3.3213,3.3665,3.2664,3.0405,3.1023,3.0199,2.8287,2.8268,2.8072,2.7809,2.7756,2.7656,2.749,2.749,2.749,2.749,2.749,2.749,2.749,0.0,3.3124,3.3124,3.3124,3.3124,3.3124,3.3124,3.3124,3.3124,3.3124,3.2667,3.2164,3.1713,3.1214,3.0902,3.0902,3.0902,3.0902,3.0902,3.1801,3.2351,3.2351,3.2853,3.3124,3.3124,3.2792,3.2641,3.2641,3.2479,3.238,3.2373,3.2442,3.2605,3.2861,3.3146,3.339,3.3649,3.3933,3.3979,3.3894,3.3641,3.3441,3.324,3.324,3.3197,3.3124,3.3124,3.3124,3.3124,3.324,3.3051,3.2727,3.2153,3.1895,3.1667,3.1159,3.0986,3.1061,3.1235,3.1579,3.1932,3.22,3.2547,0.0,0.0,3.3699,3.3871,3.4317,3.4832,3.5255,3.5255,3.5625,3.6023,3.6383,3.6149,3.6441,3.8028,3.8529,3.8921,3.9393,3.9691,4.0163,4.0873,4.0887,4.0912,4.1039,4.0885,4.0282,3.9077,3.8692,3.8046,3.703,3.6331,3.5943,3.5943,3.5222,3.4647,3.4312,3.4312,3.3125,3.0956,3.1646,3.0841,2.8903,2.8821,2.8707,2.8514,2.8118,2.7822,2.7656,2.7523,2.749,2.749,2.749,2.749,2.749,3.3124,3.3124,3.3124,3.3124,3.3124,3.3124,3.3124,3.3124,3.3124,3.3124,3.3124,3.3124,3.3124,3.2394,3.1901,3.1901,3.1901,3.1901,3.1901,3.2667,3.3124,3.3124,3.3124,3.3124,3.3124,3.3124,3.3124,3.3124,3.3313,3.3297,3.3085,3.3279,3.3485,3.3744,3.3744,3.3979,3.4397,3.4397,3.4314,3.416,3.3937,3.3683,3.3484,3.3484,3.3356,3.324,3.324,3.324,3.324,3.3356,3.3283,3.3008,3.2202,3.1966,3.1869,3.1136,3.0986,3.1061,3.1198,3.1235,3.1272,3.1485,3.1522,3.1693,0.0,0.0,0.0,3.3422,3.3905,3.4211,3.4211,3.4466,3.4787,3.5269,3.4988,3.5097,3.6199,3.7002,3.767,3.8184,3.8607,3.9217,4.0003,4.006,4.0206,4.06,4.0563,3.997,3.8569,3.8385,3.7754,3.6538,3.6492,3.6492,3.6492,3.5911,3.5529,3.54,3.496,3.3717,3.1896,3.2388,3.1616,2.986,2.9495,2.939,2.9407,2.8656,2.8216,2.7993,2.7723,2.757,2.749,2.7523,2.7523,2.749,3.3124,3.3124,3.3124,3.3124,3.3124,3.3124,3.3124,3.3124,3.3124,3.3124,3.3124,3.3124,3.3124,3.2982,3.2939,3.2939,3.2939,3.2939,3.2939,3.3038,3.3124,3.3124,3.3124,3.3124,3.3124,3.3124,3.3124,3.3124,3.3313,3.3488,3.3623,3.3888,3.4111,3.4306,3.4306,3.4345,3.4397,3.4397,3.4397,3.4356,3.4314,3.4063,3.367,3.367,3.3641,3.3641,3.3641,3.3641,3.3598,3.3441,3.3398,3.3153,3.2092,3.1845,3.1829,3.0983,3.0836,3.0986,3.1024,3.1024,3.1099,3.1272,3.131,3.1384,3.1669,0.0,3.1767,3.1877,0.0,3.2903,3.2903,0.0,0.0,3.3477,3.3935,3.4276,3.4095,3.4989,3.6278,3.7841,3.8091,3.8419,3.9169,3.9615,3.9856,3.9918,3.9766,3.9308,3.8554,3.7938,3.7277,3.6507,3.6492,3.6492,3.6492,3.6429,3.6053,3.54,3.5975,3.5153,3.3173,3.3321,3.2594,3.1199,3.0007,2.9707,3.0043,2.9407,2.9044,2.8826,2.8249,2.7802,2.7523,2.7689,2.7656,2.749,3.3124,3.3124,3.3124,3.3124,3.3124,3.3124,3.3124,3.3124,3.3124,3.3124,3.3124,3.3124,3.3124,3.3124,3.3124,3.3124,3.3124,3.3124,3.3124,3.3124,3.3124,3.3124,3.3124,3.3124,3.3124,3.3124,3.3154,3.3283,3.3471,3.3683,3.3937,3.416,3.4314,3.4397,3.4397,3.4397,3.4397,3.4397,3.4397,3.4397,3.4397,3.4272,3.4092,3.3979,3.3852,3.3713,3.3894,3.3852,3.3725,3.3768,3.3611,3.325,3.2378,3.206,3.1869,3.1098,3.0911,3.0986,3.0986,3.0986,3.1024,3.1099,3.1123,3.1136,3.1211,3.1323,3.1434,3.1434,0.0,0.0,0.0,0.0,0.0,0.0,3.2898,3.3143,3.3782,3.4004,3.4735,3.642,3.6908,3.7389,3.8102,3.88,3.9154,3.9056,3.8972,3.8646,3.7954,3.7646,3.7184,3.6507,3.6492,3.6492,3.6492,3.6492,3.6352,3.6038,3.6352,3.5625,3.4034,3.4076,3.3337,3.2018,3.1086,3.0763,3.0911,3.0269,2.9656,2.9188,2.931,2.8753,2.7835,2.7822,2.7756,2.7656,3.394,3.3713,3.3556,3.3598,3.3641,3.3556,3.3313,3.324,3.3197,3.3197,3.3197,3.3154,3.3124,3.3124,3.3124,3.3124,3.3124,3.3124,3.3124,3.3124,3.3124,3.3124,3.3124,3.3124,3.3124,3.3154,3.324,3.3398,3.3683,3.3894,3.4118,3.4314,3.4397,3.4397,3.4397,3.4397,3.4397,3.4397,3.4551,3.4758,3.4522,3.4397,3.4397,3.4243,3.4063,3.3937,3.4105,3.4063,3.3924,3.4034,3.3865,3.3462,3.2594,3.222,3.1949,3.1136,3.0949,3.0986,3.0986,3.0986,3.0986,3.0986,3.0986,3.0986,3.0986,3.1061,3.1161,3.1198,3.1286,0.0,0.0,0.0,3.164,3.2019,0.0,3.2137,3.2974,3.3101,3.365,3.5062,3.58,3.6378,3.6867,3.7863,3.8393,3.8231,3.8231,3.8015,3.7523,3.7323,3.6999,3.6507,3.6492,3.6492,3.6492,3.6492,3.6492,3.6492,3.6492,3.5997,3.5028,3.4666,3.3978,3.3004,3.1941,3.1595,3.1709,3.1058,3.0419,2.9934,3.0448,2.9839,2.8638,2.8235,2.8039,2.7941,3.6053,3.5319,3.4705,3.491,3.4938,3.4664,3.3797,3.3513,3.3398,3.3398,3.3398,3.3313,3.3124,3.3124,3.3124,3.3124,3.3124,3.3124,3.3124,3.3124,3.3124,3.3124,3.3124,3.3124,3.3124,3.3283,3.3398,3.3398,3.3865,3.4076,3.4118,3.4314,3.4397,3.4397,3.4397,3.4397,3.4397,3.4397,3.4868,3.5588,3.4758,3.4397,3.4397,3.4397,3.4397,3.4397,3.4397,3.4397,3.4356,3.416,3.4076,3.384,3.2513,3.2233,3.2173,3.1034,3.0849,3.0986,3.0986,3.0986,3.0986,3.0986,3.0986,3.0986,3.0986,3.0849,3.0773,3.0986,3.0836,3.0811,3.0986,3.1161,3.1125,3.0557,3.1113,0.0,0.0,3.202,3.3283,3.423,3.4993,3.5432,3.5462,3.6725,3.7538,3.7538,3.7538,3.7523,3.7507,3.6876,3.6507,3.6492,3.6492,3.6492,3.6492,3.6492,3.6492,3.6492,3.6492,3.6476,3.6384,3.5076,3.4489,3.4338,3.2355,3.1823,3.2327,3.1709,3.1451,3.1422,3.1451,3.0955,3.0099,2.9139,2.8643,2.8384,3.6436,3.6632,3.6568,3.5908,3.5774,3.5708,3.5386,3.4856,3.447,3.447,3.3953,3.3556,3.3513,3.3513,3.3513,3.3513,3.3398,3.3356,3.3471,3.324,3.324,3.3471,3.324,3.324,3.3471,3.3441,3.3569,3.3865,3.4034,3.416,3.4314,3.495,3.5264,3.5264,3.5803,3.6068,3.6068,3.6068,3.6227,3.6464,3.6188,3.5722,3.5196,3.4634,3.4397,3.4397,3.4397,3.4397,3.4397,3.4314,3.4202,3.3923,3.2823,3.246,3.22,3.1174,3.0949,3.0986,3.0986,3.0986,3.0986,3.0849,3.0811,3.0761,3.0634,3.0558,3.052,3.0596,3.0571,3.052,3.0596,3.0761,3.0859,3.0626,3.1042,3.1318,0.0,3.1656,3.2214,3.2668,3.3871,3.4846,3.5367,3.5836,3.6309,3.6799,3.683,3.683,3.683,3.6615,3.6492,3.6492,3.6492,3.6492,3.6492,3.6492,3.6492,3.6492,3.6492,3.6492,3.6445,3.5121,3.4505,3.4428,3.28,3.2216,3.2398,3.216,3.1851,3.1537,3.1838,3.1537,3.0792,3.0027,2.93,2.8578,3.7548,3.7994,3.8069,3.706,3.6813,3.6696,3.6487,3.5961,3.5453,3.5142,3.4622,3.4108,3.3755,3.3713,3.3713,3.3713,3.3598,3.3556,3.367,3.3484,3.3441,3.367,3.3441,3.3441,3.367,3.3696,3.3937,3.4538,3.4634,3.4868,3.5291,3.5843,3.6122,3.6162,3.666,3.688,3.688,3.688,3.7088,3.7372,3.7372,3.6869,3.6082,3.5494,3.4909,3.4397,3.4397,3.4397,3.4397,3.4397,3.4314,3.4035,3.3011,3.2619,3.2319,3.1288,3.0986,3.0986,3.0986,3.0986,3.0986,3.0849,3.0811,3.0761,3.0571,3.0444,3.0406,3.0482,3.0406,3.0368,3.0558,3.0609,3.0647,3.0761,3.0949,3.1123,0.0,3.1397,3.1559,3.178,3.2995,3.4027,3.4547,3.5091,3.5608,3.6085,3.6352,3.6492,3.6492,3.6492,3.6492,3.6492,3.6492,3.6492,3.6492,3.6492,3.6492,3.6492,3.6492,3.6492,3.6445,3.5121,3.4505,3.4428,3.2998,3.2398,3.2398,3.2398,3.216,3.1851,3.2148,3.1979,3.1465,3.0704,2.9813,2.8967,3.9337,3.9388,3.9156,3.8389,3.8046,3.7677,3.7127,3.6841,3.6371,3.5534,3.5427,3.4979,3.3953,3.3839,3.3797,3.3839,3.3797,3.3797,3.3839,3.3797,3.3755,3.3797,3.3755,3.3713,3.3713,3.4021,3.4538,3.5305,3.5602,3.6162,3.688,3.6919,3.6958,3.6972,3.7011,3.6996,3.6996,3.6996,3.7486,3.824,3.824,3.7744,3.6958,3.6958,3.5949,3.4509,3.4509,3.4522,3.4481,3.4481,3.4439,3.4201,3.3091,3.2712,3.2476,3.1352,3.1013,3.0986,3.0986,3.0986,3.0986,3.0986,3.0986,3.0911,3.0736,3.0533,3.0444,3.066,3.0381,3.0305,3.0836,3.0672,3.052,3.0911,3.0849,3.0849,3.1235,3.1272,3.1347,3.1572,3.2345,3.2946,3.3143,3.448,3.5302,3.5335,3.6038,3.646,3.646,3.6492,3.6492,3.6492,3.6492,3.6492,3.6492,3.6492,3.6492,3.6492,3.6492,3.6492,3.6445,3.5121,3.4505,3.4428,3.2998,3.2398,3.2398,3.2398,3.2398,3.2398,3.2398,3.2315,3.2079,3.116,3.0299,2.9659,3.9388,3.9388,3.9337,3.9119,3.9031,3.8943,3.8782,3.8211,3.772,3.7477,3.6894,3.6371,3.6094,3.5561,3.5454,3.6015,3.5346,3.5224,3.6015,3.5183,3.4841,3.5182,3.4246,3.3839,3.423,3.4731,3.5196,3.5615,3.6281,3.6699,3.6919,3.7539,3.7872,3.791,3.8472,3.8745,3.8745,3.8745,3.8907,3.9068,3.9068,3.8612,3.7872,3.7872,3.7193,3.6267,3.6267,3.5883,3.5386,3.5386,3.495,3.428,3.3587,3.3051,3.2555,3.1797,3.1313,3.0986,3.0986,3.0986,3.0949,3.0811,3.0773,3.0723,3.052,3.0444,3.0406,3.0457,3.0406,3.033,3.0343,3.0495,3.0609,3.0558,3.0761,3.0949,3.1061,3.1099,3.1161,3.136,3.1716,3.22,3.2911,3.3443,3.4007,3.4547,3.527,3.5672,3.5672,3.6211,3.6492,3.6492,3.6492,3.6492,3.6492,3.6492,3.6492,3.6492,3.6492,3.6492,3.6445,3.5121,3.4505,3.4428,3.2998,3.2398,3.2398,3.2398,3.2398,3.2398,3.2398,3.2315,3.2079,3.116,3.1087,3.1334,3.9388,3.9388,3.9388,3.9388,3.9388,3.9388,3.9388,3.901,3.859,3.824,3.7782,3.7333,3.6919,3.6503,3.6425,3.6841,3.6371,3.6253,3.6841,3.6213,3.5949,3.6201,3.5507,3.5237,3.5494,3.5829,3.6267,3.678,3.7232,3.7653,3.7994,3.8486,3.8738,3.8738,3.9192,3.9388,3.9388,3.9388,3.9445,3.9517,3.9517,3.925,0.0,3.887,3.8546,3.813,3.8032,3.7242,3.6241,3.6241,3.5655,3.4857,3.4286,3.3476,3.2581,3.1967,3.1431,3.0986,3.0986,3.0986,3.0986,3.0836,3.0849,3.0761,3.0571,3.0533,3.0533,3.0533,3.0444,3.0406,3.0495,3.0533,3.0571,3.0533,3.0798,3.0986,3.0986,3.0986,3.1061,3.1161,3.141,3.1803,3.2273,3.2854,3.3492,3.423,3.4978,3.5529,3.5864,3.6289,3.6492,3.6492,3.6492,3.6492,3.6492,3.6492,3.6492,3.6492,3.6492,3.6492,3.6445,3.5121,3.4505,3.4428,3.2998,3.2398,3.2398,3.2398,3.2398,3.2398,3.2398,3.2342,3.2203,3.1638,3.1695,3.1994,3.9439,3.9388,3.9388,3.9388,3.9388,3.9388,3.9388,3.9388,3.9156,3.8427,3.8352,3.806,3.7319,3.7127,3.7127,3.7242,3.7127,3.7127,3.7242,3.7127,3.7088,3.7088,3.6958,3.688,3.688,3.7011,3.7462,3.8202,3.8315,3.8701,3.9388,3.9388,3.9388,3.9388,3.9388,3.9409,3.946,3.946,3.9589,3.9732,3.9732,3.9732,3.9732,3.9732,3.9732,3.9717,3.9517,3.842,3.7088,3.7088,3.6517,3.5774,3.5242,3.4176,3.3027,3.242,3.1764,3.1266,3.1174,3.1048,3.0986,3.0986,3.0986,3.0949,3.0773,3.0736,3.0736,3.0736,3.0609,3.0596,3.0911,3.0685,3.0495,3.0698,3.0874,3.0986,3.0986,3.0986,3.0986,3.0986,3.1336,0.0,3.1609,3.2583,3.3457,3.4109,3.4927,3.5672,3.632,3.646,3.6492,3.6492,3.6492,3.6492,3.6492,3.6492,3.6492,3.6492,3.6492,3.6492,3.6445,3.5121,3.4505,3.4428,3.2998,3.2398,3.2398,3.2398,3.2398,3.2398,3.2398,3.2398,3.2398,3.2274,3.2135,3.2066,3.9493,3.9388,3.9388,3.9388,3.9388,3.9388,3.9388,3.9388,3.9337,3.9192,3.9192,3.9141,3.898,3.8375,3.8225,3.8907,3.8375,3.8263,3.8907,3.8337,3.7947,3.7947,3.7295,3.688,3.688,3.7577,3.8037,3.8202,3.8848,3.9265,3.9388,3.9388,3.9388,3.9388,3.9388,3.9481,3.9661,3.9818,3.994,3.996,3.996,3.996,3.996,3.996,3.996,3.9925,3.9732,3.8943,3.7947,3.7947,3.7386,3.6671,3.6574,3.6049,3.5388,3.4714,3.3659,3.2604,3.2054,3.1468,3.0986,3.0986,3.0986,3.0986,3.0949,3.0949,3.0949,3.0949,3.0911,3.0874,3.0773,3.0698,3.0723,3.0911,3.0986,3.0986,3.0986,3.0986,3.0986,3.0986,3.1211,3.1434,3.1559,3.2583,3.3248,3.3388,3.4647,3.5464,3.5608,3.6179,3.6492,3.6492,3.6492,3.6492,3.6492,3.6492,3.6492,3.6492,3.6492,3.6492,3.6445,3.5121,3.4505,3.4428,3.2998,3.2398,3.2398,3.2398,3.2398,3.2398,3.2398,3.2398,3.2398,3.237,3.2342,3.2315,3.9993,3.9649,3.9388,3.9388,3.9388,3.9388,3.9388,3.9388,3.9388,3.9388,3.9388,3.9388,3.9388,3.9031,3.8973,3.9388,3.9046,3.901,3.9373,3.9046,3.8811,3.8811,3.8435,3.8196,3.8196,3.8598,3.8811,3.8811,3.9192,3.9388,3.9388,3.9388,3.946,3.9553,3.9661,3.9818,4.0016,3.9996,4.0066,4.0172,4.0172,4.0172,4.0172,4.0172,4.0172,4.0137,3.9925,3.9553,3.9104,3.9017,3.836,3.7577,3.7663,3.6945,3.5972,3.5293,3.4427,3.3436,3.2395,3.1846,3.1468,3.1099,3.0986,3.0986,3.0986,3.0986,3.0986,3.0986,3.0986,3.0986,3.0874,3.0836,3.0874,3.0986,3.0986,3.0986,3.0986,3.0986,3.0986,3.0986,3.1161,3.1347,3.1434,3.2769,3.365,3.3768,3.478,3.5576,3.5943,3.632,3.6492,3.6492,3.6492,3.6492,3.6492,3.6492,3.6492,3.6492,3.6492,3.6492,3.6445,3.5121,3.4505,3.4428,3.2998,3.2398,3.2398,3.2398,3.2398,3.2398,3.2398,3.2398,3.2398,3.2398,3.2398,3.2398,4.0606,4.0083,3.9634,3.9634,3.9478,3.9388,3.9388,3.9388,3.9388,3.9388,3.9388,3.9388,3.9388,3.9388,3.9388,3.9388,3.9388,3.9388,3.9388,3.9388,3.9388,3.9388,3.9388,3.9388,3.9388,3.9388,3.9388,3.9388,3.9388,3.9388,3.9388,3.9445,3.9553,3.9768,3.996,4.0137,4.0312,4.0172,4.0207,4.0331,4.0331,4.0331,4.0331,4.0331,4.0331,4.0312,4.0137,4.0066,4.0031,3.9874,3.9286,3.8612,3.8716,3.7907,3.6808,3.6068,3.5302,3.4448,3.3137,3.2566,3.2196,3.1616,3.1334,3.1222,3.1222,3.1123,3.0986,3.0986,3.0986,3.0986,3.0986,3.0986,3.0986,3.0986,3.0986,3.0986,3.0986,3.0986,3.0986,3.0986,3.1123,3.1347,3.1556,3.3038,3.4095,3.4514,3.5222,3.5879,3.646,3.6492,3.6492,3.6492,3.6492,3.6492,3.6492,3.6492,3.6492,3.6492,3.6492,3.6492,3.6445,3.5121,3.4505,3.4428,3.2998,3.2398,3.2398,3.2398,3.2398,3.2398,3.2398,3.2398,3.2398,3.2398,3.2398,3.2398,4.1294,4.0756,4.0307,4.0307,3.9813,3.9388,3.9388,3.9388,3.9388,3.9388,3.9388,3.9388,3.9388,3.9388,3.9388,3.9388,3.9388,3.9388,3.9388,3.9388,3.9388,3.9388,3.9388,3.9388,3.9388,3.9388,3.9388,3.9388,3.9388,3.9388,3.9409,3.9589,3.9768,3.996,4.0172,4.0277,4.0312,4.0401,4.0455,4.0489,4.0489,4.0489,4.0489,4.0489,4.0489,4.047,4.0331,4.0277,4.0277,4.0242,4.0066,3.9818,3.9854,3.9758,3.947,3.8617,3.7425,3.6158,3.5239,3.4057,3.3073,3.3017,3.2484,3.2015,3.2015,3.1468,3.0986,3.0986,3.0986,3.0986,3.0986,3.0986,3.0986,3.0986,3.0986,3.0986,3.0986,3.0986,3.0986,3.0986,3.1024,3.1421,3.2489,3.3283,3.4148,3.5222,3.5975,3.6429,3.6492,3.6492,3.6492,3.6492,3.6492,3.6492,3.6492,3.6492,3.6492,3.6492,3.6492,3.6492,3.6445,3.5121,3.4505,3.4428,3.2998,3.2398,3.2398,3.2398,3.2398,3.2398,3.2398,3.2398,3.2398,3.2398,3.2398,3.2398,4.2006,4.113,4.0397,4.0397,3.9858,3.9388,3.9388,3.9388,3.9388,3.9388,3.9388,3.9388,3.9388,3.9388,3.9388,3.9388,3.9388,3.9388,3.9388,3.9388,3.9388,3.9388,3.9388,3.9388,3.9388,3.9388,3.9388,3.9388,3.9517,3.9589,3.9589,3.9783,3.9996,4.0172,4.0331,4.0436,4.0436,4.0489,4.0489,4.0489,4.0489,4.0489,4.0489,4.0489,4.0489,4.0489,4.0436,4.0436,4.0436,4.0436,4.0226,4.0031,4.0137,4.0101,3.9859,3.9107,3.8421,3.7506,3.5893,3.4978,3.4274,3.3417,3.2967,3.2755,3.2755,3.2519,3.2318,3.2318,3.1955,3.1529,3.1086,3.1371,3.1505,3.1048,3.1357,3.1676,3.1676,3.1676,3.1809,3.2282,3.2318,3.2569,3.3136,3.3939,3.4647,3.519,3.6006,3.6492,3.6492,3.6492,3.6492,3.6492,3.6492,3.6492,3.6492,3.6492,3.6492,3.6492,3.6492,3.6492,3.6445,3.5121,3.4043,3.3198,3.2628,3.2398,3.2398,3.2398,3.2398,3.2398,3.2398,3.2398,3.2398,3.2398,3.2398,3.2398,4.3129,4.2039,4.1094,4.1167,4.0419,3.9753,3.9604,3.9568,3.9568,3.9568,3.9568,3.9532,3.9409,3.9388,3.9388,3.9388,3.9388,3.9388,3.9388,3.9388,3.9388,3.9388,3.9388,3.9424,3.9481,3.9481,3.9517,3.9568,3.9732,3.9803,3.9803,3.9996,4.0172,4.0366,4.047,4.0489,4.0489,4.0489,4.0489,4.0489,4.0489,4.0489,4.0489,4.0489,4.0489,4.0489,4.0489,4.0489,4.0489,4.0489,4.0331,4.0172,4.0296,4.0261,4.0045,3.9542,3.913,3.856,3.702,3.6163,3.5463,3.4499,3.3862,3.3526,3.3526,3.3353,3.3178,3.3178,3.2791,3.2268,3.175,3.2064,3.2268,3.1713,3.2101,3.2434,3.2434,3.2434,3.2613,3.3143,3.3178,3.3388,3.3885,3.4509,3.5073,3.5497,3.6148,3.6492,3.6492,3.6492,3.6492,3.6492,3.6492,3.6492,3.6492,3.6492,3.6492,3.6492,3.6492,3.6492,3.6445,3.5121,3.3842,3.2675,3.249,3.2398,3.2398,3.2398,3.2398,3.2398,3.2398,3.2398,3.2398,3.2398,3.2398,3.2398,4.4887,4.3769,4.2767,4.3016,4.174,4.0512,4.0066,3.9996,3.9996,3.9996,3.9996,3.9818,3.946,3.9388,3.9388,3.9388,3.9388,3.9388,3.9388,3.9388,3.9388,3.9388,3.9388,3.9481,3.9681,3.9681,3.9803,3.9996,4.0011,4.0011,4.0011,4.0207,4.0366,4.0489,4.0489,4.0489,4.0489,4.0489,4.0489,4.0489,4.0489,4.0489,4.0489,4.0489,4.0489,4.0489,4.0489,4.0489,4.0489,4.0489,4.0489,4.0489,4.0489,4.0505,4.047,4.0331,3.9822,3.9219,3.9017,3.7861,3.6667,3.6667,3.5466,3.4279,3.4279,3.3734,3.3178,3.3178,3.3178,3.3178,3.3192,3.3178,3.3178,3.3178,3.3178,3.3178,3.3178,3.3178,3.3178,3.3178,3.3178,3.363,3.4776,3.4876,3.535,3.6383,3.6492,3.6492,3.6492,3.6492,3.6492,3.6492,3.6492,3.6492,3.6492,3.6492,3.6492,3.6492,3.6492,3.6492,3.6445,3.5121,3.4104,3.3352,3.269,3.2398,3.2398,3.2398,3.2398,3.2398,3.2398,3.2398,3.2398,3.2398,3.2398,3.2398,4.5798,4.4652,4.3667,4.3786,4.2544,4.1526,4.1377,4.1377,4.1377,4.1377,4.1377,4.1295,4.1196,4.0355,3.9818,3.9818,3.9818,3.9818,3.9818,3.9818,3.9818,3.9818,3.9818,3.9854,3.9889,3.9889,3.9925,4.0011,4.0137,4.0242,4.0331,4.0401,4.047,4.0489,4.0489,4.0489,4.0524,4.099,4.0938,4.0593,4.1492,4.1591,4.1176,4.1176,4.1176,4.1125,4.0646,4.0489,4.0489,4.0489,4.0489,4.0489,4.0489,4.0489,4.0489,4.047,4.0213,3.9849,3.9356,3.8762,3.8065,3.7122,3.6516,3.6001,3.5374,3.5004,3.4606,3.4041,3.3973,3.3802,3.3283,3.363,3.3802,3.3283,3.363,3.3973,3.3973,3.3973,3.4158,3.4706,3.4754,3.4986,3.5591,3.5671,3.5894,3.646,3.6492,3.6492,3.6492,3.6492,3.6492,3.6492,3.6492,3.6492,3.6492,3.6492,3.6492,3.6492,3.6492,3.6245,3.5799,3.4905,3.412,3.3367,3.269,3.2398,3.2398,3.2398,3.2398,3.2398,3.2398,3.2398,3.2398,3.2398,3.2398,3.2398,4.6781,4.5613,4.4609,4.4723,4.3508,4.2426,4.2221,4.2189,4.2189,4.2189,4.2189,4.2189,4.2189,4.1444,4.0888,4.0752,4.0752,4.065,4.037,4.0385,4.0246,3.9996,4.0011,4.0046,4.0101,4.0101,4.0137,4.0207,4.0296,4.0436,4.0489,4.0489,4.0612,4.087,4.087,4.1024,4.1276,4.1706,4.1641,4.1327,4.2173,4.2237,4.1868,4.1868,4.1868,4.1804,4.1125,4.087,4.0836,4.0578,4.0489,4.0489,4.0489,4.0489,4.0489,4.0489,4.0436,4.0274,3.986,3.9451,3.8918,3.808,3.7438,3.6793,3.5982,3.5765,3.5539,3.5041,3.4927,3.4795,3.4361,3.4629,3.4795,3.4312,3.4629,3.4927,3.4927,3.4927,3.5121,3.5636,3.5683,3.5797,3.6053,3.6068,3.6195,3.6492,3.6492,3.6492,3.6492,3.6492,3.6492,3.6492,3.6492,3.6492,3.6492,3.6492,3.6492,3.6492,3.6723,3.6613,3.6162,3.5258,3.4475,3.3752,3.2798,3.2398,3.2398,3.2398,3.2398,3.2398,3.2398,3.2398,3.2398,3.2398,3.2398,3.2398,4.7753,4.6612,4.5557,4.5775,4.4459,4.3229,4.2707,4.2645,4.2645,4.2645,4.2645,4.2645,4.2645,4.2645,4.252,4.2221,4.2093,4.1788,4.1127,4.1093,4.082,4.0191,4.0156,4.0261,4.047,4.0455,4.0524,4.0646,4.0578,4.0558,4.0558,4.0558,4.0904,4.1492,4.1558,4.1933,4.252,4.2552,4.2552,4.252,4.2614,4.2614,4.2583,4.2583,4.2583,4.2489,4.1804,4.1558,4.1459,4.0836,4.0646,4.0612,4.0578,4.0558,4.0558,4.0524,4.0489,4.0489,4.0489,3.9941,3.9363,3.9317,3.8175,3.6901,3.6233,3.6081,3.6066,3.602,3.6005,3.6005,3.6005,3.6005,3.6005,3.6005,3.6005,3.6005,3.6005,3.6005,3.6005,3.6005,3.6005,3.6053,3.6179,3.6196,3.6274,3.6492,3.6492,3.6492,3.6492,3.6492,3.6492,3.6492,3.6492,3.6492,3.6492,3.6492,3.6523,3.6585,3.7178,3.746,3.7429,3.6036,3.5093,3.4471,3.3026,3.2425,3.2437,3.2425,3.2425,3.2437,3.241,3.2398,3.2398,3.2398,3.2398,3.2398,4.7981,4.7124,4.6316,4.5808,4.4933,4.4253,4.4121,4.4093,4.4093,4.4093,4.4093,4.4093,4.4093,4.4093,4.4064,4.3989,4.3,4.2316,4.2173,4.2141,4.2078,4.1933,4.1917,4.1917,4.1981,4.1981,4.1981,4.2013,4.1525,4.1276,4.1276,4.1276,4.1343,4.1525,4.2013,4.2363,4.2552,4.3045,4.2984,4.2583,4.368,4.3768,4.3257,4.3257,4.3257,4.3166,4.2504,4.2269,4.2237,4.2078,4.2013,4.1933,4.1426,4.1276,4.1142,4.0646,4.0489,4.0489,4.0489,4.0347,4.0101,3.9579,3.8726,3.7798,3.7063,3.6862,3.6628,3.6111,3.6005,3.6005,3.6005,3.6005,3.6005,3.6005,3.6005,3.6005,3.6005,3.6005,3.6005,3.6005,3.6005,3.6053,3.6179,3.6196,3.6274,3.6492,3.6492,3.6492,3.6492,3.6492,3.6492,3.6492,3.6492,3.6492,3.6492,3.6492,3.6723,3.7178,3.7796,3.8096,3.8019,3.6218,3.5319,3.5071,3.3206,3.2641,3.2986,3.2574,3.2641,3.2975,3.2574,3.2398,3.2398,3.2398,3.2398,3.2398,4.8024,4.731,4.6566,4.5838,4.5077,4.4615,4.4615,4.4615,4.4615,4.4615,4.4615,4.4615,4.4615,4.4615,4.4615,4.4615,4.3902,4.332,4.2984,4.2953,4.2831,4.252,4.252,4.252,4.252,4.252,4.252,4.252,4.2141,4.1949,4.1949,4.1949,4.2109,4.2426,4.28,4.3152,4.3469,4.3856,4.3781,4.3545,4.4281,4.4367,4.4001,4.4001,4.4001,4.3914,4.3213,4.2953,4.2923,4.2614,4.252,4.2426,4.2078,4.1949,4.1836,4.1142,4.0749,4.0489,4.0489,4.0489,4.0336,3.9659,3.918,3.8668,3.7977,3.7514,3.7128,3.6761,3.644,3.6241,3.6241,3.6241,3.6241,3.6241,3.6241,3.6241,3.6241,3.6241,3.6241,3.6241,3.6241,3.6258,3.6352,3.6352,3.6383,3.6492,3.6492,3.6492,3.6492,3.6754,3.6785,3.6523,3.6492,3.6492,3.6492,3.6769,3.7342,3.8226,3.8546,3.8712,3.8679,3.7313,3.6335,3.5683,3.4014,3.3365,3.3537,3.3002,3.3082,3.3511,3.2975,3.2776,3.2749,3.2492,3.2398,3.2398,4.7889,4.7225,4.6532,4.5686,4.501,4.4615,4.4615,4.4615,4.4615,4.4615,4.4615,4.4615,4.4615,4.4615,4.4615,4.4615,4.4615,4.4338,4.3706,4.3676,4.3423,4.2831,4.2816,4.2816,4.2816,4.2816,4.2816,4.2816,4.2707,4.2629,4.2629,4.2629,4.2953,4.3495,4.3617,4.4001,4.4615,4.4615,4.4615,4.4615,4.4615,4.4615,4.4615,4.4615,4.4615,4.4514,4.3885,4.3676,4.3588,4.3031,4.2816,4.28,4.2676,4.2629,4.252,4.1836,4.1243,4.0783,4.0558,4.0489,4.0351,3.9782,3.9644,3.9459,3.8816,3.8215,3.7769,3.7677,3.7107,3.6645,3.6645,3.6553,3.6492,3.6492,3.6492,3.6492,3.6492,3.6492,3.6492,3.6492,3.6492,3.6554,3.6647,3.6631,3.6631,3.6631,3.6723,3.6739,3.6631,3.7208,3.7298,3.68,3.6693,3.6631,3.6631,3.7312,3.8197,3.9206,3.9286,3.9339,3.9322,3.8565,3.7508,3.6263,3.499,3.4322,3.4086,3.3537,3.364,3.4086,3.3537,3.3313,3.3251,3.2722,3.252,3.252,4.7242,4.687,4.6363,4.5021,4.4682,4.4615,4.4615,4.4615,4.4615,4.4615,4.4615,4.4615,4.4615,4.4615,4.4615,4.4615,4.4615,4.4542,4.444,4.444,4.4367,4.4281,4.4281,4.4281,4.4281,4.4281,4.4281,4.4281,4.3647,4.3347,4.3347,4.3347,4.3423,4.3542,4.4133,4.4468,4.4615,4.4615,4.4615,4.4615,4.4615,4.4615,4.4615,4.4615,4.4615,4.4587,4.4468,4.444,4.4412,4.431,4.4281,4.4179,4.3542,4.3347,4.3196,4.2552,4.2269,4.1933,4.0802,4.0489,4.0474,4.0366,4.0336,4.0166,3.949,3.9244,3.9046,3.8477,3.7815,3.7338,3.7338,3.6876,3.6492,3.6492,3.6492,3.6492,3.6492,3.6492,3.6492,3.6492,3.6492,3.6693,3.7208,3.7268,3.7268,3.7268,3.7738,3.7796,3.7298,3.7809,3.8124,3.8023,3.7519,3.7268,3.7268,3.8367,3.9001,3.9206,3.9722,3.9969,3.991,3.8746,3.7757,3.6892,3.5626,3.4903,3.4625,3.4095,3.4194,3.4625,3.4086,3.3885,3.3818,3.3277,3.3066,3.3013,4.709,4.6786,4.6329,4.4869,4.4615,4.4615,4.4615,4.4615,4.4615,4.4615,4.4615,4.4615,4.4615,4.4615,4.4615,4.4615,4.4615,4.4615,4.4615,4.4615,4.4615,4.4615,4.4615,4.4615,4.4615,4.4615,4.4615,4.4615,4.4265,4.4105,4.4105,4.4105,4.4105,4.4105,4.444,4.4615,4.4615,4.4615,4.4615,4.4615,4.4615,4.4615,4.4615,4.4615,4.4615,4.4615,4.4615,4.4615,4.4615,4.4615,4.4615,4.4542,4.4207,4.4105,4.3943,4.3243,4.28,4.23,4.1294,4.1057,4.0956,4.0578,4.0489,4.0413,4.0105,4.0024,3.9949,3.9621,3.9044,3.845,3.8122,3.7779,3.7297,3.6615,3.6785,3.6861,3.6554,3.6492,3.6616,3.6952,3.6983,3.7238,3.7825,3.7867,3.7867,3.7867,3.8137,3.8181,3.7895,3.8463,3.8767,3.8767,3.8181,3.8039,3.8367,3.892,3.9365,3.9696,3.9969,4.0096,4.0096,3.9497,3.8816,3.8045,3.6795,3.61,3.581,3.4814,3.4761,3.5178,3.4649,3.4431,3.4382,3.3843,3.364,3.3563,4.731,4.6904,4.638,4.506,4.4716,4.4615,4.4615,4.4615,4.4615,4.4615,4.4615,4.4615,4.4615,4.4615,4.4615,4.4615,4.4615,4.4615,4.4615,4.4615,4.4615,4.4615,4.4615,4.4615,4.4615,4.4615,4.4615,4.4615,4.4615,4.4615,4.4615,4.4615,4.4615,4.4615,4.4615,4.4615,4.4615,4.4615,4.4615,4.4615,4.4615,4.4615,4.4615,4.4615,4.4615,4.4615,4.4615,4.4615,4.4615,4.4615,4.4615,4.4615,4.4615,4.4615,4.4468,4.3914,4.3393,4.28,4.1949,4.1739,4.1624,4.1091,4.0956,4.0956,4.0956,4.0951,4.0976,4.0976,4.0419,3.9798,3.9288,3.902,3.8505,3.7357,3.7564,3.765,3.7029,3.6906,3.7088,3.7533,3.7608,3.7854,3.8463,3.8518,3.8518,3.8518,3.8657,3.8657,3.8518,3.9082,3.9418,3.9418,3.8957,3.8876,3.9206,3.9339,3.9644,4.0096,4.0096,4.0096,4.0096,4.0096,3.9706,3.8946,3.797,3.7265,3.6721,3.5679,3.5415,3.5577,3.5155,3.4998,3.4927,3.4366,3.4185,3.4111,4.7986,4.7276,4.6549,4.5754,4.5043,4.4615,4.4615,4.4615,4.4615,4.4615,4.4615,4.4615,4.4615,4.4615,4.4615,4.4615,4.4615,4.4615,4.4615,4.4615,4.4615,4.4615,4.4615,4.4615,4.4615,4.4615,4.4615,4.4615,4.4615,4.4615,4.4615,4.4615,4.4615,4.4615,4.4615,4.4615,4.4615,4.4615,4.4615,4.4615,4.4615,4.4615,4.4615,4.4615,4.4615,4.4615,4.4615,4.4615,4.4615,4.4615,4.4615,4.4615,4.4615,4.4615,4.4598,4.4542,4.4468,4.415,4.28,4.2426,4.2426,4.2363,4.2363,4.2363,4.2363,4.2346,4.2346,4.2346,4.1811,4.134,4.1276,4.0772,4.0092,3.9308,3.9224,3.8998,3.8262,3.8181,3.8165,3.8238,3.8222,3.8463,3.9082,3.9109,3.9109,3.9109,3.9653,3.9722,3.9162,3.9722,4.002,4.002,3.9995,3.9722,3.9206,3.9747,4.0045,4.0096,4.0096,4.0096,4.0096,4.0096,3.9706,3.8988,3.8913,3.8067,3.6795,3.6681,3.6242,3.56,3.5554,3.5554,3.547,3.4951,3.4745,3.4673,4.8024,4.731,4.6566,4.5838,4.5077,4.4615,4.4615,4.4615,4.4615,4.4615,4.4615,4.4615,4.4615,4.4615,4.4615,4.4615,4.4615,4.4615,4.4615,4.4615,4.4615,4.4615,4.4615,4.4615,4.4615,4.4615,4.4615,4.4615,4.4615,4.4615,4.4615,4.4615,4.4615,4.4615,4.4615,4.4615,4.4615,4.4615,4.4615,4.4615,4.4615,4.4615,4.4615,4.4615,4.4615,4.4615,4.4615,4.4615,4.4615,4.4615,4.4615,4.4615,4.4615,4.4615,4.4615,4.4615,4.4615,4.4485,4.396,4.3469,4.3015,4.2598,4.252,4.252,4.252,4.2831,4.3106,4.3106,4.2922,4.2624,4.2209,4.1884,4.1311,4.0271,4.0406,4.023,3.9141,3.8987,3.8967,3.8887,3.8865,3.9109,3.9696,3.9747,3.9747,3.9747,3.9969,3.9995,3.9773,3.9969,4.0096,4.0096,4.0096,3.9995,3.9747,3.9995,4.0096,4.0096,4.0096,4.0096,4.0096,4.0096,3.996,3.9673,3.9191,3.8667,3.8099,3.7185,3.6626,3.6282,3.5785,3.56,3.5577,3.5379,3.531,3.5224,4.8359,4.7479,4.6633,4.6126,4.5229,4.4615,4.4615,4.4615,4.4615,4.4615,4.4615,4.4615,4.4615,4.4615,4.4615,4.4615,4.4615,4.4615,4.4615,4.4615,4.4615,4.4615,4.4615,4.4615,4.4615,4.4615,4.4615,4.4615,4.4615,4.4615,4.4615,4.4615,4.4615,4.4615,4.4615,4.4615,4.4615,4.4615,4.4615,4.4615,4.4615,4.4615,4.4615,4.4615,4.4615,4.4615,4.4615,4.4615,4.4615,4.4615,4.4615,4.4615,4.4615,4.4615,4.4615,4.4615,4.4615,4.4615,4.4615,4.4236,4.3735,4.3273,4.3152,4.3152,4.3152,4.3529,4.3839,4.3839,4.3839,4.3689,4.3246,4.3134,4.2712,4.1605,4.1763,4.1627,4.0461,4.0109,3.9935,3.9834,3.9621,3.9644,4.0045,4.0096,4.0096,4.0096,4.0096,4.0096,4.0096,4.0096,4.0096,4.0096,4.0096,4.0096,4.0096,4.0096,4.0096,4.0096,4.0096,4.0096,4.0096,4.0096,4.0096,4.0079,3.9571,3.9208,3.8903,3.7912,3.7354,3.706,3.6282,3.5994,3.596,3.5684,3.56,3.5554,4.9001,4.7817,4.6802,4.6786,4.5596,4.4615,4.4615,4.4615,4.4615,4.4615,4.4615,4.4615,4.4615,4.4615,4.4615,4.4615,4.4615,4.4615,4.4615,4.4615,4.4615,4.4615,4.4615,4.4615,4.4615,4.4615,4.4615,4.4615,4.4615,4.4615,4.4615,4.4615,4.4615,4.4615,4.4615,4.4615,4.4615,4.4615,4.4615,4.4615,4.4615,4.4615,4.4615,4.4615,4.4615,4.4615,4.4615,4.4615,4.4615,4.4615,4.4615,4.4615,4.4615,4.4615,4.4615,4.4615,4.4615,4.4615,4.4615,4.4615,4.4615,4.4615,4.4615,4.4615,4.4615,4.4615,4.4615,4.4615,4.4615,4.4615,4.4615,4.4615,4.4333,4.3527,4.3392,4.3166,4.2405,4.1677,4.1221,4.1221,4.0544,4.0113,4.0113,4.0096,4.0096,4.0096,4.0096,4.0096,4.0096,4.0096,4.0096,4.0096,4.0096,4.0096,4.0096,4.0096,4.0096,4.0096,4.0096,4.0096,4.0096,4.0096,4.0096,4.0096,4.0096,3.969,3.9005,3.8988,3.8565,3.7838,3.7117,3.6812,3.6711,3.591,3.56,3.56,4.9001,4.824,4.7411,4.6887,4.6007,4.5196,4.4682,4.4615,4.4615,4.4615,4.4615,4.4615,4.4615,4.4615,4.4615,4.4615,4.4615,4.4615,4.4615,4.4615,4.4615,4.4615,4.4615,4.4615,4.4615,4.4615,4.4615,4.4615,4.4615,4.4615,4.4615,4.4615,4.4615,4.4615,4.4615,4.4615,4.4615,4.4615,4.4615,4.4615,4.4615,4.4615,4.4615,4.4615,4.4615,4.4615,4.4615,4.4615,4.4615,4.4615,4.4615,4.4615,4.4615,4.4615,4.4615,4.4615,4.4615,4.4615,4.4615,4.4615,4.4615,4.4615,4.4615,4.4615,4.4615,4.4615,4.4615,4.4615,4.4615,4.4615,4.4615,4.4615,4.453,4.4265,4.4231,4.3961,4.3183,4.2868,4.2557,4.2033,4.1322,4.0865,4.0865,4.0417,4.0096,4.0096,4.0096,4.0096,4.0096,4.0096,4.0096,4.0096,4.0096,4.0096,4.0096,4.0096,4.0096,4.0096,4.0096,4.0096,4.0096,4.0096,4.0096,4.0096,4.0096,3.9977,3.974,3.9208,3.887,3.8599,3.7855,3.7246,3.6778,3.6518,3.6079,3.56,4.9001,4.8426,4.7753,4.731,4.638,4.5551,4.5094,4.4801,4.4615,4.4615,4.4615,4.4615,4.4615,4.4615,4.4615,4.4615,4.4615,4.4615,4.4615,4.4615,4.4615,4.4615,4.4615,4.4615,4.4615,4.4615,4.4615,4.4615,4.4615,4.4615,4.4615,4.4615,4.4615,4.4615,4.4615,4.4615,4.4615,4.4615,4.4615,4.4615,4.4615,4.4615,4.4615,4.4615,4.4615,4.4615,4.4615,4.4615,4.4615,4.4615,4.4615,4.4615,4.4615,4.4615,4.4615,4.4615,4.4615,4.4615,4.4615,4.4615,4.4615,4.4615,4.4615,4.4615,4.4615,4.4615,4.4615,4.4615,4.4615,4.4615,4.4615,4.4615,4.4615,4.4615,4.4615,4.4418,4.3944,4.3606,4.325,4.2794,4.2083,4.1644,4.1644,4.0967,4.0417,4.013,4.0096,4.0096,4.0096,4.0096,4.0096,4.0096,4.0096,4.0096,4.0096,4.0096,4.0096,4.0096,4.0096,4.0096,4.0096,4.0096,4.0096,4.0096,4.0096,4.0096,4.0079,3.9622,3.9453,3.9343,3.8616,3.8058,3.7642,3.733,3.6738,3.6079,4.9001,4.8477,4.7973,4.7906,4.6802,4.5855,4.572,4.5128,4.4682,4.4615,4.4615,4.4615,4.4615,4.4615,4.4615,4.4615,4.4615,4.4615,4.4615,4.4615,4.4615,4.4615,4.4615,4.4615,4.4615,4.4615,4.4615,4.4615,4.4615,4.4615,4.4615,4.4615,4.4615,4.4615,4.4615,4.4615,4.4615,4.4615,4.4615,4.4615,4.4615,4.4615,4.4615,4.4615,4.4615,4.4615,4.4615,4.4615,4.4615,4.4615,4.4615,4.4615,4.4615,4.4615,4.4615,4.4615,4.4615,4.4615,4.4615,4.4615,4.4615,4.4615,4.4615,4.4615,4.4615,4.4615,4.4615,4.4615,4.4615,4.4615,4.4615,4.4615,4.4615,4.4615,4.4615,4.4615,4.4615,4.3961,4.3521,4.3521,4.2844,4.2388,4.2388,4.1728,4.0984,4.0265,4.0197,4.018,4.0096,4.0096,4.0096,4.0096,4.0096,4.0096,4.0096,4.0096,4.0096,4.0096,4.0096,4.0096,4.0096,4.0096,4.0096,4.0096,4.0096,4.0096,4.0096,4.0096,4.0096,4.0028,3.9343,3.9056,3.892,3.8261,3.7533,3.6897,4.9001,4.8883,4.8595,4.799,4.7618,4.701,4.5889,4.5568,4.5246,4.4682,4.4615,4.4615,4.4615,4.4615,4.4615,4.4615,4.4615,4.4615,4.4615,4.4615,4.4615,4.4615,4.4615,4.4615,4.4615,4.4615,4.4615,4.4615,4.4615,4.4615,4.4615,4.4615,4.4615,4.4615,4.4615,4.4615,4.4615,4.4615,4.4615,4.4615,4.4615,4.4615,4.4615,4.4615,4.4615,4.4615,4.4615,4.4615,4.4615,4.4615,4.4615,4.4615,4.4615,4.4615,4.4615,4.4615,4.4615,4.4615,4.4615,4.4615,4.4615,4.4615,4.4615,4.4615,4.4615,4.4615,4.4615,4.4615,4.4615,4.4615,4.4615,4.4615,4.4615,4.4615,4.4615,4.4615,4.4615,4.4462,4.4333,4.4333,4.3639,4.3139,4.3139,4.2489,4.1762,4.1018,4.0967,4.0696,4.013,4.0096,4.0096,4.0096,4.0096,4.0096,4.0096,4.0096,4.0096,4.0096,4.0096,4.0096,4.0096,4.0096,4.0096,4.0096,4.0096,4.0096,4.0096,4.0096,4.0096,4.0079,3.9926,3.952,3.8971,3.8819,3.8294,3.7584,4.9001,4.9001,4.8883,4.8494,4.8125,4.7635,4.6887,4.6447,4.5957,4.5213,4.5111,4.4976,4.4649,4.4615,4.4615,4.4615,4.4615,4.4615,4.4615,4.4615,4.4615,4.4615,4.4615,4.4615,4.4615,4.4615,4.4615,4.4615,4.4615,4.4615,4.4615,4.4615,4.4615,4.4615,4.4615,4.4615,4.4615,4.4615,4.4615,4.4615,4.4615,4.4615,4.4615,4.4615,4.4615,4.4615,4.4615,4.4615,4.4615,4.4615,4.4615,4.4615,4.4615,4.4615,4.4615,4.4615,4.4615,4.4615,4.4615,4.4615,4.4615,4.4615,4.4615,4.4615,4.4615,4.4615,4.4615,4.4615,4.4615,4.4615,4.4615,4.4615,4.4615,4.4615,4.4615,4.4615,4.4615,4.4615,4.4615,4.4615,4.4215,4.3826,4.3426,4.3064,4.2523,4.1779,4.1728,4.1559,4.1179,4.0815,4.0612,4.0612,4.0282,4.0096,4.0096,4.0096,4.0096,4.0096,4.0096,4.0096,4.0096,4.0096,4.0096,4.0096,4.0096,4.0096,4.0096,4.0096,4.0096,4.0096,4.0096,3.9859,3.9512,3.9512,3.9056,3.8311,4.9001,4.9001,4.9001,4.9001,4.8494,4.8041,4.7906,4.7394,4.6718,4.5991,4.5788,4.5466,4.4869,4.4682,4.4615,4.4615,4.4615,4.4615,4.4615,4.4615,4.4615,4.4615,4.4615,4.4615,4.4615,4.4615,4.4615,4.4615,4.4615,4.4615,4.4615,4.4615,4.4615,4.4615,4.4615,4.4615,4.4615,4.4615,4.4615,4.4615,4.4615,4.4615,4.4615,4.4615,4.4615,4.4615,4.4615,4.4615,4.4615,4.4615,4.4615,4.4615,4.4615,4.4615,4.4615,4.4615,4.4615,4.4615,4.4615,4.4615,4.4615,4.4615,4.4615,4.4615,4.4615,4.4615,4.4615,4.4615,4.4615,4.4615,4.4615,4.4615,4.4615,4.4615,4.4615,4.4615,4.4615,4.4615,4.4615,4.4615,4.4615,4.4333,4.3673,4.3623,4.3301,4.254,4.2489,4.2422,4.2303,4.1711,4.139,4.1416,4.0832,4.0468,4.0358,4.0358,4.0307,4.0171,4.0171,4.0146,4.0096,4.0096,4.0096,4.0096,4.0096,4.0096,4.0096,4.0096,4.0096,4.0096,4.0096,4.0096,4.0096,4.0096,3.9723,3.9073,4.9001,4.9001,4.9001,4.9001,4.8934,4.8646,4.799,4.7804,4.7496,4.6752,4.6109,4.5669,4.5568,4.4976,4.4615,4.4615,4.4615,4.4615,4.4615,4.4615,4.4615,4.4615,4.4615,4.4615,4.4615,4.4615,4.4615,4.4615,4.4615,4.4615,4.4615,4.4615,4.4615,4.4615,4.4615,4.4615,4.4615,4.4615,4.4615,4.4615,4.4615,4.4615,4.4615,4.4615,4.4615,4.4615,4.4615,4.4615,4.4615,4.4615,4.4615,4.4615,4.4615,4.4615,4.4615,4.4615,4.4615,4.4615,4.4615,4.4615,4.4615,4.4615,4.4615,4.4615,4.4615,4.4615,4.4615,4.4615,4.4615,4.4615,4.4615,4.4615,4.4615,4.4615,4.4615,4.4615,4.4615,4.4615,4.4615,4.4615,4.4615,4.4564,4.4462,4.4445,4.4096,4.3291,4.324,4.298,4.232,4.2202,4.2213,4.2302,4.2243,4.192,4.14,4.14,4.1092,4.0461,4.0461,4.032,4.0096,4.0096,4.0096,4.0096,4.0096,4.0096,4.0096,4.0096,4.0096,4.0096,4.0096,4.0096,4.0096,4.0096,4.0045,3.9859,4.9001,4.9001,4.9001,4.9001,4.9001,4.89,4.8578,4.8528,4.8257,4.7513,4.7141,4.6633,4.5788,4.5026,4.4615,4.4615,4.4615,4.4615,4.4615,4.4615,4.4615,4.4615,4.4615,4.4615,4.4615,4.4615,4.4615,4.4615,4.4615,4.4615,4.4615,4.4615,4.4615,4.4615,4.4615,4.4615,4.4615,4.4615,4.4615,4.4615,4.4615,4.4615,4.4615,4.4615,4.4615,4.4615,4.4615,4.4615,4.4615,4.4615,4.4615,4.4615,4.4615,4.4615,4.4615,4.4615,4.4615,4.4615,4.4615,4.4615,4.4615,4.4615,4.4615,4.4615,4.4615,4.4615,4.4615,4.4615,4.4615,4.4615,4.4615,4.4615,4.4615,4.4615,4.4615,4.4615,4.4615,4.4615,4.4615,4.4615,4.4615,4.4615,4.4615,4.4615,4.4462,4.4096,4.4062,4.3965,4.3708,4.3301,4.3134,4.3276,4.2884,4.2535,4.227,4.227,4.2116,4.1766,4.1766,4.1272,4.032,4.032,4.032,4.032,4.032,4.032,4.0337,4.0238,4.0263,4.0337,4.0238,4.0263,4.0313,4.0163,4.0163,4.0137]}]]